<?xml version="1.0" encoding="UTF-8" standalone="no" ?>
<gpx xmlns="http://www.topografix.com/GPX/1/1" xmlns:xsi="http://www.w3.org/2001/XMLSchema-instance" xsi:schemaLocation="http://www.topografix.com/GPX/1/1 http://www.topografix.com/GPX/1/1/gpx.xsd" version="1.1" creator="VisuGPX - https://www.visugpx.com">
  <metadata>
    <name>S3C J2 Hautacam</name>
    <desc><![CDATA[WE S3C phase 1 jour 2 Aller retour Hautacam solo.
#Route
#S3C
#Pyrenees]]></desc>
  </metadata>
  <trk>
    <name><![CDATA[P1_J2_Hautacam]]></name>
    <trkseg>
      <trkpt lat="42.97248" lon="-0.19621">
        <ele>870</ele>
        <time>2018-06-20T21:36:43Z</time>
      </trkpt>
      <trkpt lat="42.97264" lon="-0.19589">
        <ele>871</ele>
        <time>2018-06-20T21:38:43Z</time>
      </trkpt>
      <trkpt lat="42.97279" lon="-0.19536">
        <ele>871</ele>
        <time>2018-06-20T21:41:43Z</time>
      </trkpt>
      <trkpt lat="42.9725" lon="-0.19505">
        <ele>866</ele>
        <time>2018-06-20T21:42:43Z</time>
      </trkpt>
      <trkpt lat="42.9725" lon="-0.19505">
        <ele>866</ele>
        <time>2018-06-20T21:43:43Z</time>
      </trkpt>
      <trkpt lat="42.97266" lon="-0.19476">
        <ele>868</ele>
        <time>2018-06-20T21:46:43Z</time>
      </trkpt>
      <trkpt lat="42.97287" lon="-0.19431">
        <ele>869</ele>
        <time>2018-06-20T21:48:43Z</time>
      </trkpt>
      <trkpt lat="42.97294" lon="-0.19388">
        <ele>870</ele>
        <time>2018-06-20T21:50:43Z</time>
      </trkpt>
      <trkpt lat="42.97308" lon="-0.19349">
        <ele>871</ele>
        <time>2018-06-20T21:53:43Z</time>
      </trkpt>
      <trkpt lat="42.97326" lon="-0.19324">
        <ele>873</ele>
        <time>2018-06-20T21:57:43Z</time>
      </trkpt>
      <trkpt lat="42.97337" lon="-0.1929">
        <ele>872</ele>
        <time>2018-06-20T22:01:43Z</time>
      </trkpt>
      <trkpt lat="42.97377" lon="-0.19242">
        <ele>871</ele>
        <time>2018-06-20T22:04:43Z</time>
      </trkpt>
      <trkpt lat="42.97397" lon="-0.19216">
        <ele>869</ele>
        <time>2018-06-20T22:06:43Z</time>
      </trkpt>
      <trkpt lat="42.97404" lon="-0.19203">
        <ele>868</ele>
        <time>2018-06-20T22:08:43Z</time>
      </trkpt>
      <trkpt lat="42.97447" lon="-0.19105">
        <ele>866</ele>
        <time>2018-06-20T22:09:43Z</time>
      </trkpt>
      <trkpt lat="42.97451" lon="-0.19092">
        <ele>866</ele>
        <time>2018-06-20T22:10:43Z</time>
      </trkpt>
      <trkpt lat="42.97458" lon="-0.19052">
        <ele>864</ele>
        <time>2018-06-20T22:13:43Z</time>
      </trkpt>
      <trkpt lat="42.9746" lon="-0.19036">
        <ele>863</ele>
        <time>2018-06-20T22:15:43Z</time>
      </trkpt>
      <trkpt lat="42.97469" lon="-0.18993">
        <ele>860</ele>
        <time>2018-06-20T22:17:43Z</time>
      </trkpt>
      <trkpt lat="42.97472" lon="-0.18981">
        <ele>860</ele>
        <time>2018-06-20T22:18:43Z</time>
      </trkpt>
      <trkpt lat="42.97481" lon="-0.18944">
        <ele>858</ele>
        <time>2018-06-20T22:21:43Z</time>
      </trkpt>
      <trkpt lat="42.97481" lon="-0.18918">
        <ele>856</ele>
        <time>2018-06-20T22:23:43Z</time>
      </trkpt>
      <trkpt lat="42.97456" lon="-0.18809">
        <ele>853</ele>
        <time>2018-06-20T22:28:43Z</time>
      </trkpt>
      <trkpt lat="42.97454" lon="-0.18803">
        <ele>853</ele>
        <time>2018-06-20T22:29:43Z</time>
      </trkpt>
      <trkpt lat="42.97456" lon="-0.18759">
        <ele>851</ele>
        <time>2018-06-20T22:35:43Z</time>
      </trkpt>
      <trkpt lat="42.9748" lon="-0.1872">
        <ele>850</ele>
        <time>2018-06-20T22:42:43Z</time>
      </trkpt>
      <trkpt lat="42.97497" lon="-0.1866">
        <ele>850</ele>
        <time>2018-06-20T22:49:43Z</time>
      </trkpt>
      <trkpt lat="42.97501" lon="-0.18631">
        <ele>848</ele>
        <time>2018-06-20T22:52:43Z</time>
      </trkpt>
      <trkpt lat="42.97559" lon="-0.18533">
        <ele>846</ele>
        <time>2018-06-20T22:59:43Z</time>
      </trkpt>
      <trkpt lat="42.97569" lon="-0.18515">
        <ele>845</ele>
        <time>2018-06-20T23:01:43Z</time>
      </trkpt>
      <trkpt lat="42.97594" lon="-0.18429">
        <ele>845</ele>
        <time>2018-06-20T23:06:43Z</time>
      </trkpt>
      <trkpt lat="42.97613" lon="-0.18371">
        <ele>847</ele>
        <time>2018-06-20T23:09:43Z</time>
      </trkpt>
      <trkpt lat="42.9764" lon="-0.18285">
        <ele>845</ele>
        <time>2018-06-20T23:13:43Z</time>
      </trkpt>
      <trkpt lat="42.97645" lon="-0.18269">
        <ele>845</ele>
        <time>2018-06-20T23:14:43Z</time>
      </trkpt>
      <trkpt lat="42.97657" lon="-0.18237">
        <ele>843</ele>
        <time>2018-06-20T23:17:43Z</time>
      </trkpt>
      <trkpt lat="42.97692" lon="-0.18162">
        <ele>842</ele>
        <time>2018-06-20T23:18:43Z</time>
      </trkpt>
      <trkpt lat="42.97698" lon="-0.18147">
        <ele>842</ele>
        <time>2018-06-20T23:19:43Z</time>
      </trkpt>
      <trkpt lat="42.97739" lon="-0.18073">
        <ele>842</ele>
        <time>2018-06-20T23:23:43Z</time>
      </trkpt>
      <trkpt lat="42.97747" lon="-0.1803">
        <ele>841</ele>
        <time>2018-06-20T23:26:43Z</time>
      </trkpt>
      <trkpt lat="42.97756" lon="-0.17945">
        <ele>838</ele>
        <time>2018-06-20T23:29:43Z</time>
      </trkpt>
      <trkpt lat="42.97758" lon="-0.17933">
        <ele>838</ele>
        <time>2018-06-20T23:30:43Z</time>
      </trkpt>
      <trkpt lat="42.97772" lon="-0.17858">
        <ele>837</ele>
        <time>2018-06-20T23:33:43Z</time>
      </trkpt>
      <trkpt lat="42.97789" lon="-0.17771">
        <ele>838</ele>
        <time>2018-06-20T23:36:43Z</time>
      </trkpt>
      <trkpt lat="42.97792" lon="-0.17739">
        <ele>837</ele>
        <time>2018-06-20T23:39:43Z</time>
      </trkpt>
      <trkpt lat="42.97803" lon="-0.17704">
        <ele>837</ele>
        <time>2018-06-20T23:42:43Z</time>
      </trkpt>
      <trkpt lat="42.97822" lon="-0.17647">
        <ele>835</ele>
        <time>2018-06-20T23:45:43Z</time>
      </trkpt>
      <trkpt lat="42.97822" lon="-0.17559">
        <ele>832</ele>
        <time>2018-06-20T23:49:43Z</time>
      </trkpt>
      <trkpt lat="42.97818" lon="-0.17468">
        <ele>830</ele>
        <time>2018-06-20T23:52:43Z</time>
      </trkpt>
      <trkpt lat="42.97822" lon="-0.17399">
        <ele>832</ele>
        <time>2018-06-20T23:54:43Z</time>
      </trkpt>
      <trkpt lat="42.97822" lon="-0.17348">
        <ele>833</ele>
        <time>2018-06-20T23:56:43Z</time>
      </trkpt>
      <trkpt lat="42.97824" lon="-0.17275">
        <ele>833</ele>
        <time>2018-06-20T23:59:43Z</time>
      </trkpt>
      <trkpt lat="42.97832" lon="-0.17229">
        <ele>832</ele>
        <time>2018-06-21T00:02:43Z</time>
      </trkpt>
      <trkpt lat="42.97854" lon="-0.17178">
        <ele>830</ele>
        <time>2018-06-21T00:05:43Z</time>
      </trkpt>
      <trkpt lat="42.97877" lon="-0.1713">
        <ele>834</ele>
        <time>2018-06-21T00:07:43Z</time>
      </trkpt>
      <trkpt lat="42.9789" lon="-0.17104">
        <ele>837</ele>
        <time>2018-06-21T00:08:43Z</time>
      </trkpt>
      <trkpt lat="42.97901" lon="-0.17065">
        <ele>839</ele>
        <time>2018-06-21T00:11:43Z</time>
      </trkpt>
      <trkpt lat="42.97906" lon="-0.16996">
        <ele>840</ele>
        <time>2018-06-21T00:17:43Z</time>
      </trkpt>
      <trkpt lat="42.97931" lon="-0.16941">
        <ele>842</ele>
        <time>2018-06-21T00:22:43Z</time>
      </trkpt>
      <trkpt lat="42.97946" lon="-0.16907">
        <ele>844</ele>
        <time>2018-06-21T00:25:43Z</time>
      </trkpt>
      <trkpt lat="42.97968" lon="-0.16831">
        <ele>842</ele>
        <time>2018-06-21T00:28:43Z</time>
      </trkpt>
      <trkpt lat="42.97973" lon="-0.16814">
        <ele>842</ele>
        <time>2018-06-21T00:29:43Z</time>
      </trkpt>
      <trkpt lat="42.97982" lon="-0.16777">
        <ele>842</ele>
        <time>2018-06-21T00:33:43Z</time>
      </trkpt>
      <trkpt lat="42.97979" lon="-0.16716">
        <ele>839</ele>
        <time>2018-06-21T00:36:43Z</time>
      </trkpt>
      <trkpt lat="42.97976" lon="-0.16676">
        <ele>839</ele>
        <time>2018-06-21T00:37:43Z</time>
      </trkpt>
      <trkpt lat="42.97975" lon="-0.16612">
        <ele>838</ele>
        <time>2018-06-21T00:40:43Z</time>
      </trkpt>
      <trkpt lat="42.97968" lon="-0.16557">
        <ele>834</ele>
        <time>2018-06-21T00:42:43Z</time>
      </trkpt>
      <trkpt lat="42.97965" lon="-0.16536">
        <ele>832</ele>
        <time>2018-06-21T00:44:43Z</time>
      </trkpt>
      <trkpt lat="42.97967" lon="-0.16501">
        <ele>829</ele>
        <time>2018-06-21T00:46:43Z</time>
      </trkpt>
      <trkpt lat="42.97976" lon="-0.164">
        <ele>825</ele>
        <time>2018-06-21T00:47:43Z</time>
      </trkpt>
      <trkpt lat="42.97977" lon="-0.1639">
        <ele>825</ele>
        <time>2018-06-21T00:48:43Z</time>
      </trkpt>
      <trkpt lat="42.97975" lon="-0.16357">
        <ele>825</ele>
        <time>2018-06-21T00:51:43Z</time>
      </trkpt>
      <trkpt lat="42.9796" lon="-0.16261">
        <ele>822</ele>
        <time>2018-06-21T00:53:43Z</time>
      </trkpt>
      <trkpt lat="42.97958" lon="-0.16232">
        <ele>821</ele>
        <time>2018-06-21T00:55:43Z</time>
      </trkpt>
      <trkpt lat="42.97962" lon="-0.16167">
        <ele>818</ele>
        <time>2018-06-21T00:57:43Z</time>
      </trkpt>
      <trkpt lat="42.97969" lon="-0.16063">
        <ele>814</ele>
        <time>2018-06-21T00:58:43Z</time>
      </trkpt>
      <trkpt lat="42.9797" lon="-0.16058">
        <ele>814</ele>
        <time>2018-06-21T00:59:43Z</time>
      </trkpt>
      <trkpt lat="42.97975" lon="-0.15987">
        <ele>810</ele>
        <time>2018-06-21T01:00:43Z</time>
      </trkpt>
      <trkpt lat="42.9798" lon="-0.15954">
        <ele>808</ele>
        <time>2018-06-21T01:02:43Z</time>
      </trkpt>
      <trkpt lat="42.97993" lon="-0.15902">
        <ele>805</ele>
        <time>2018-06-21T01:04:43Z</time>
      </trkpt>
      <trkpt lat="42.98005" lon="-0.15853">
        <ele>802</ele>
        <time>2018-06-21T01:06:43Z</time>
      </trkpt>
      <trkpt lat="42.98015" lon="-0.15801">
        <ele>797</ele>
        <time>2018-06-21T01:07:43Z</time>
      </trkpt>
      <trkpt lat="42.98021" lon="-0.1577">
        <ele>794</ele>
        <time>2018-06-21T01:08:43Z</time>
      </trkpt>
      <trkpt lat="42.98049" lon="-0.15644">
        <ele>786</ele>
        <time>2018-06-21T01:09:43Z</time>
      </trkpt>
      <trkpt lat="42.98051" lon="-0.15633">
        <ele>786</ele>
        <time>2018-06-21T01:10:43Z</time>
      </trkpt>
      <trkpt lat="42.98081" lon="-0.15493">
        <ele>782</ele>
        <time>2018-06-21T01:11:43Z</time>
      </trkpt>
      <trkpt lat="42.9809" lon="-0.15457">
        <ele>779</ele>
        <time>2018-06-21T01:12:43Z</time>
      </trkpt>
      <trkpt lat="42.98099" lon="-0.15429">
        <ele>777</ele>
        <time>2018-06-21T01:14:43Z</time>
      </trkpt>
      <trkpt lat="42.98139" lon="-0.15356">
        <ele>776</ele>
        <time>2018-06-21T01:16:43Z</time>
      </trkpt>
      <trkpt lat="42.98191" lon="-0.15263">
        <ele>774</ele>
        <time>2018-06-21T01:19:43Z</time>
      </trkpt>
      <trkpt lat="42.98236" lon="-0.15178">
        <ele>771</ele>
        <time>2018-06-21T01:21:43Z</time>
      </trkpt>
      <trkpt lat="42.98254" lon="-0.15126">
        <ele>770</ele>
        <time>2018-06-21T01:23:43Z</time>
      </trkpt>
      <trkpt lat="42.98276" lon="-0.15027">
        <ele>764</ele>
        <time>2018-06-21T01:24:43Z</time>
      </trkpt>
      <trkpt lat="42.98294" lon="-0.14959">
        <ele>762</ele>
        <time>2018-06-21T01:26:43Z</time>
      </trkpt>
      <trkpt lat="42.98335" lon="-0.14859">
        <ele>763</ele>
        <time>2018-06-21T01:29:43Z</time>
      </trkpt>
      <trkpt lat="42.98341" lon="-0.14839">
        <ele>763</ele>
        <time>2018-06-21T01:30:43Z</time>
      </trkpt>
      <trkpt lat="42.98359" lon="-0.14709">
        <ele>760</ele>
        <time>2018-06-21T01:33:43Z</time>
      </trkpt>
      <trkpt lat="42.98364" lon="-0.14659">
        <ele>759</ele>
        <time>2018-06-21T01:35:43Z</time>
      </trkpt>
      <trkpt lat="42.9837" lon="-0.1462">
        <ele>759</ele>
        <time>2018-06-21T01:37:43Z</time>
      </trkpt>
      <trkpt lat="42.98384" lon="-0.14587">
        <ele>762</ele>
        <time>2018-06-21T01:39:43Z</time>
      </trkpt>
      <trkpt lat="42.98438" lon="-0.14506">
        <ele>765</ele>
        <time>2018-06-21T01:41:43Z</time>
      </trkpt>
      <trkpt lat="42.98461" lon="-0.14472">
        <ele>762</ele>
        <time>2018-06-21T01:43:43Z</time>
      </trkpt>
      <trkpt lat="42.98509" lon="-0.14406">
        <ele>758</ele>
        <time>2018-06-21T01:44:43Z</time>
      </trkpt>
      <trkpt lat="42.98518" lon="-0.14392">
        <ele>758</ele>
        <time>2018-06-21T01:45:43Z</time>
      </trkpt>
      <trkpt lat="42.98544" lon="-0.1432">
        <ele>756</ele>
        <time>2018-06-21T01:47:43Z</time>
      </trkpt>
      <trkpt lat="42.98573" lon="-0.14217">
        <ele>750</ele>
        <time>2018-06-21T01:49:43Z</time>
      </trkpt>
      <trkpt lat="42.9859" lon="-0.14174">
        <ele>747</ele>
        <time>2018-06-21T01:50:43Z</time>
      </trkpt>
      <trkpt lat="42.98616" lon="-0.14117">
        <ele>749</ele>
        <time>2018-06-21T01:51:43Z</time>
      </trkpt>
      <trkpt lat="42.98654" lon="-0.14022">
        <ele>743</ele>
        <time>2018-06-21T01:53:43Z</time>
      </trkpt>
      <trkpt lat="42.98664" lon="-0.13992">
        <ele>739</ele>
        <time>2018-06-21T01:54:43Z</time>
      </trkpt>
      <trkpt lat="42.98681" lon="-0.13941">
        <ele>738</ele>
        <time>2018-06-21T01:56:43Z</time>
      </trkpt>
      <trkpt lat="42.9873" lon="-0.13828">
        <ele>738</ele>
        <time>2018-06-21T01:58:43Z</time>
      </trkpt>
      <trkpt lat="42.98792" lon="-0.13672">
        <ele>733</ele>
        <time>2018-06-21T02:01:43Z</time>
      </trkpt>
      <trkpt lat="42.988" lon="-0.1365">
        <ele>733</ele>
        <time>2018-06-21T02:02:43Z</time>
      </trkpt>
      <trkpt lat="42.98824" lon="-0.13557">
        <ele>730</ele>
        <time>2018-06-21T02:05:43Z</time>
      </trkpt>
      <trkpt lat="42.98832" lon="-0.13531">
        <ele>730</ele>
        <time>2018-06-21T02:06:43Z</time>
      </trkpt>
      <trkpt lat="42.98858" lon="-0.13476">
        <ele>729</ele>
        <time>2018-06-21T02:09:43Z</time>
      </trkpt>
      <trkpt lat="42.989" lon="-0.13385">
        <ele>727</ele>
        <time>2018-06-21T02:13:43Z</time>
      </trkpt>
      <trkpt lat="42.98944" lon="-0.13298">
        <ele>725</ele>
        <time>2018-06-21T02:18:43Z</time>
      </trkpt>
      <trkpt lat="42.98977" lon="-0.13261">
        <ele>725</ele>
        <time>2018-06-21T02:20:43Z</time>
      </trkpt>
      <trkpt lat="42.98998" lon="-0.13214">
        <ele>722</ele>
        <time>2018-06-21T02:24:43Z</time>
      </trkpt>
      <trkpt lat="42.98999" lon="-0.13207">
        <ele>722</ele>
        <time>2018-06-21T02:25:43Z</time>
      </trkpt>
      <trkpt lat="42.99004" lon="-0.13182">
        <ele>720</ele>
        <time>2018-06-21T02:28:43Z</time>
      </trkpt>
      <trkpt lat="42.99014" lon="-0.1315">
        <ele>717</ele>
        <time>2018-06-21T02:31:43Z</time>
      </trkpt>
      <trkpt lat="42.99022" lon="-0.13137">
        <ele>717</ele>
        <time>2018-06-21T02:32:43Z</time>
      </trkpt>
      <trkpt lat="42.99065" lon="-0.13095">
        <ele>716</ele>
        <time>2018-06-21T02:35:43Z</time>
      </trkpt>
      <trkpt lat="42.99097" lon="-0.13059">
        <ele>716</ele>
        <time>2018-06-21T02:38:43Z</time>
      </trkpt>
      <trkpt lat="42.99159" lon="-0.12969">
        <ele>715</ele>
        <time>2018-06-21T02:41:43Z</time>
      </trkpt>
      <trkpt lat="42.99173" lon="-0.12943">
        <ele>714</ele>
        <time>2018-06-21T02:43:43Z</time>
      </trkpt>
      <trkpt lat="42.9918" lon="-0.12916">
        <ele>712</ele>
        <time>2018-06-21T02:46:43Z</time>
      </trkpt>
      <trkpt lat="42.99191" lon="-0.12845">
        <ele>705</ele>
        <time>2018-06-21T02:48:43Z</time>
      </trkpt>
      <trkpt lat="42.99199" lon="-0.12812">
        <ele>702</ele>
        <time>2018-06-21T02:50:43Z</time>
      </trkpt>
      <trkpt lat="42.99217" lon="-0.12772">
        <ele>699</ele>
        <time>2018-06-21T02:53:43Z</time>
      </trkpt>
      <trkpt lat="42.99249" lon="-0.12706">
        <ele>697</ele>
        <time>2018-06-21T02:55:43Z</time>
      </trkpt>
      <trkpt lat="42.99261" lon="-0.12672">
        <ele>696</ele>
        <time>2018-06-21T02:57:43Z</time>
      </trkpt>
      <trkpt lat="42.99273" lon="-0.12607">
        <ele>693</ele>
        <time>2018-06-21T03:00:43Z</time>
      </trkpt>
      <trkpt lat="42.99275" lon="-0.12595">
        <ele>693</ele>
        <time>2018-06-21T03:01:43Z</time>
      </trkpt>
      <trkpt lat="42.99283" lon="-0.12557">
        <ele>690</ele>
        <time>2018-06-21T03:03:43Z</time>
      </trkpt>
      <trkpt lat="42.99321" lon="-0.125">
        <ele>685</ele>
        <time>2018-06-21T03:05:43Z</time>
      </trkpt>
      <trkpt lat="42.99374" lon="-0.12425">
        <ele>678</ele>
        <time>2018-06-21T03:07:43Z</time>
      </trkpt>
      <trkpt lat="42.99422" lon="-0.12396">
        <ele>676</ele>
        <time>2018-06-21T03:09:43Z</time>
      </trkpt>
      <trkpt lat="42.99427" lon="-0.1239">
        <ele>676</ele>
        <time>2018-06-21T03:10:43Z</time>
      </trkpt>
      <trkpt lat="42.99459" lon="-0.12329">
        <ele>675</ele>
        <time>2018-06-21T03:14:43Z</time>
      </trkpt>
      <trkpt lat="42.99486" lon="-0.1225">
        <ele>669</ele>
        <time>2018-06-21T03:17:43Z</time>
      </trkpt>
      <trkpt lat="42.99494" lon="-0.12217">
        <ele>665</ele>
        <time>2018-06-21T03:18:43Z</time>
      </trkpt>
      <trkpt lat="42.99504" lon="-0.12179">
        <ele>660</ele>
        <time>2018-06-21T03:19:43Z</time>
      </trkpt>
      <trkpt lat="42.99513" lon="-0.12127">
        <ele>658</ele>
        <time>2018-06-21T03:21:43Z</time>
      </trkpt>
      <trkpt lat="42.99509" lon="-0.12094">
        <ele>655</ele>
        <time>2018-06-21T03:24:43Z</time>
      </trkpt>
      <trkpt lat="42.99502" lon="-0.1207">
        <ele>651</ele>
        <time>2018-06-21T03:26:43Z</time>
      </trkpt>
      <trkpt lat="42.99489" lon="-0.12041">
        <ele>647</ele>
        <time>2018-06-21T03:28:43Z</time>
      </trkpt>
      <trkpt lat="42.99482" lon="-0.1201">
        <ele>643</ele>
        <time>2018-06-21T03:30:43Z</time>
      </trkpt>
      <trkpt lat="42.99482" lon="-0.12002">
        <ele>642</ele>
        <time>2018-06-21T03:31:43Z</time>
      </trkpt>
      <trkpt lat="42.99494" lon="-0.11919">
        <ele>638</ele>
        <time>2018-06-21T03:32:43Z</time>
      </trkpt>
      <trkpt lat="42.99498" lon="-0.11909">
        <ele>638</ele>
        <time>2018-06-21T03:33:43Z</time>
      </trkpt>
      <trkpt lat="42.99502" lon="-0.11871">
        <ele>635</ele>
        <time>2018-06-21T03:34:43Z</time>
      </trkpt>
      <trkpt lat="42.99508" lon="-0.11847">
        <ele>633</ele>
        <time>2018-06-21T03:36:43Z</time>
      </trkpt>
      <trkpt lat="42.99511" lon="-0.11839">
        <ele>633</ele>
        <time>2018-06-21T03:37:43Z</time>
      </trkpt>
      <trkpt lat="42.99528" lon="-0.11807">
        <ele>630</ele>
        <time>2018-06-21T03:41:43Z</time>
      </trkpt>
      <trkpt lat="42.99539" lon="-0.11789">
        <ele>629</ele>
        <time>2018-06-21T03:43:43Z</time>
      </trkpt>
      <trkpt lat="42.99569" lon="-0.11776">
        <ele>630</ele>
        <time>2018-06-21T03:47:43Z</time>
      </trkpt>
      <trkpt lat="42.99647" lon="-0.11757">
        <ele>626</ele>
        <time>2018-06-21T03:51:43Z</time>
      </trkpt>
      <trkpt lat="42.99698" lon="-0.1174">
        <ele>621</ele>
        <time>2018-06-21T03:52:43Z</time>
      </trkpt>
      <trkpt lat="42.99733" lon="-0.11729">
        <ele>618</ele>
        <time>2018-06-21T03:53:43Z</time>
      </trkpt>
      <trkpt lat="42.99768" lon="-0.11707">
        <ele>616</ele>
        <time>2018-06-21T03:55:43Z</time>
      </trkpt>
      <trkpt lat="42.99815" lon="-0.11643">
        <ele>613</ele>
        <time>2018-06-21T03:59:43Z</time>
      </trkpt>
      <trkpt lat="42.99823" lon="-0.11623">
        <ele>610</ele>
        <time>2018-06-21T04:00:43Z</time>
      </trkpt>
      <trkpt lat="42.9984" lon="-0.11582">
        <ele>606</ele>
        <time>2018-06-21T04:02:43Z</time>
      </trkpt>
      <trkpt lat="42.99847" lon="-0.11534">
        <ele>602</ele>
        <time>2018-06-21T04:05:43Z</time>
      </trkpt>
      <trkpt lat="42.99846" lon="-0.1152">
        <ele>599</ele>
        <time>2018-06-21T04:06:43Z</time>
      </trkpt>
      <trkpt lat="42.99847" lon="-0.11491">
        <ele>595</ele>
        <time>2018-06-21T04:08:43Z</time>
      </trkpt>
      <trkpt lat="42.99858" lon="-0.11445">
        <ele>595</ele>
        <time>2018-06-21T04:09:43Z</time>
      </trkpt>
      <trkpt lat="42.99864" lon="-0.11407">
        <ele>594</ele>
        <time>2018-06-21T04:11:43Z</time>
      </trkpt>
      <trkpt lat="42.99862" lon="-0.11361">
        <ele>589</ele>
        <time>2018-06-21T04:13:43Z</time>
      </trkpt>
      <trkpt lat="42.99864" lon="-0.11332">
        <ele>588</ele>
        <time>2018-06-21T04:15:43Z</time>
      </trkpt>
      <trkpt lat="42.99901" lon="-0.11255">
        <ele>590</ele>
        <time>2018-06-21T04:19:43Z</time>
      </trkpt>
      <trkpt lat="42.99927" lon="-0.11202">
        <ele>592</ele>
        <time>2018-06-21T04:21:43Z</time>
      </trkpt>
      <trkpt lat="42.99929" lon="-0.11174">
        <ele>588</ele>
        <time>2018-06-21T04:24:43Z</time>
      </trkpt>
      <trkpt lat="42.99925" lon="-0.11163">
        <ele>584</ele>
        <time>2018-06-21T04:26:43Z</time>
      </trkpt>
      <trkpt lat="42.99922" lon="-0.11158">
        <ele>581</ele>
        <time>2018-06-21T04:28:43Z</time>
      </trkpt>
      <trkpt lat="42.99918" lon="-0.11153">
        <ele>578</ele>
        <time>2018-06-21T04:29:43Z</time>
      </trkpt>
      <trkpt lat="42.99912" lon="-0.11148">
        <ele>574</ele>
        <time>2018-06-21T04:31:43Z</time>
      </trkpt>
      <trkpt lat="42.99908" lon="-0.11138">
        <ele>571</ele>
        <time>2018-06-21T04:34:43Z</time>
      </trkpt>
      <trkpt lat="42.99907" lon="-0.11124">
        <ele>567</ele>
        <time>2018-06-21T04:36:43Z</time>
      </trkpt>
      <trkpt lat="42.99908" lon="-0.11103">
        <ele>564</ele>
        <time>2018-06-21T04:38:43Z</time>
      </trkpt>
      <trkpt lat="42.99912" lon="-0.11075">
        <ele>561</ele>
        <time>2018-06-21T04:39:43Z</time>
      </trkpt>
      <trkpt lat="42.99915" lon="-0.11032">
        <ele>557</ele>
        <time>2018-06-21T04:41:43Z</time>
      </trkpt>
      <trkpt lat="42.99916" lon="-0.10991">
        <ele>553</ele>
        <time>2018-06-21T04:42:43Z</time>
      </trkpt>
      <trkpt lat="42.99919" lon="-0.10928">
        <ele>550</ele>
        <time>2018-06-21T04:44:43Z</time>
      </trkpt>
      <trkpt lat="42.99926" lon="-0.109">
        <ele>548</ele>
        <time>2018-06-21T04:46:43Z</time>
      </trkpt>
      <trkpt lat="42.99935" lon="-0.10885">
        <ele>546</ele>
        <time>2018-06-21T04:49:43Z</time>
      </trkpt>
      <trkpt lat="42.99969" lon="-0.10871">
        <ele>547</ele>
        <time>2018-06-21T04:55:43Z</time>
      </trkpt>
      <trkpt lat="42.99983" lon="-0.10872">
        <ele>550</ele>
        <time>2018-06-21T04:56:43Z</time>
      </trkpt>
      <trkpt lat="42.99991" lon="-0.10871">
        <ele>550</ele>
        <time>2018-06-21T04:57:43Z</time>
      </trkpt>
      <trkpt lat="43.00013" lon="-0.1087">
        <ele>552</ele>
        <time>2018-06-21T04:59:43Z</time>
      </trkpt>
      <trkpt lat="43.00093" lon="-0.10829">
        <ele>547</ele>
        <time>2018-06-21T05:03:43Z</time>
      </trkpt>
      <trkpt lat="43.00131" lon="-0.10799">
        <ele>544</ele>
        <time>2018-06-21T05:05:43Z</time>
      </trkpt>
      <trkpt lat="43.00163" lon="-0.10764">
        <ele>538</ele>
        <time>2018-06-21T05:07:43Z</time>
      </trkpt>
      <trkpt lat="43.00179" lon="-0.10749">
        <ele>536</ele>
        <time>2018-06-21T05:09:43Z</time>
      </trkpt>
      <trkpt lat="43.00217" lon="-0.10718">
        <ele>531</ele>
        <time>2018-06-21T05:10:43Z</time>
      </trkpt>
      <trkpt lat="43.00258" lon="-0.10684">
        <ele>525</ele>
        <time>2018-06-21T05:11:43Z</time>
      </trkpt>
      <trkpt lat="43.00284" lon="-0.10656">
        <ele>521</ele>
        <time>2018-06-21T05:13:43Z</time>
      </trkpt>
      <trkpt lat="43.00304" lon="-0.10627">
        <ele>517</ele>
        <time>2018-06-21T05:14:43Z</time>
      </trkpt>
      <trkpt lat="43.00322" lon="-0.10606">
        <ele>514</ele>
        <time>2018-06-21T05:15:43Z</time>
      </trkpt>
      <trkpt lat="43.00356" lon="-0.1058">
        <ele>513</ele>
        <time>2018-06-21T05:17:43Z</time>
      </trkpt>
      <trkpt lat="43.00385" lon="-0.10542">
        <ele>509</ele>
        <time>2018-06-21T05:20:43Z</time>
      </trkpt>
      <trkpt lat="43.00397" lon="-0.10517">
        <ele>505</ele>
        <time>2018-06-21T05:21:43Z</time>
      </trkpt>
      <trkpt lat="43.00408" lon="-0.10494">
        <ele>501</ele>
        <time>2018-06-21T05:22:43Z</time>
      </trkpt>
      <trkpt lat="43.00436" lon="-0.10457">
        <ele>498</ele>
        <time>2018-06-21T05:25:43Z</time>
      </trkpt>
      <trkpt lat="43.00467" lon="-0.10426">
        <ele>495</ele>
        <time>2018-06-21T05:26:43Z</time>
      </trkpt>
      <trkpt lat="43.0048" lon="-0.1041">
        <ele>494</ele>
        <time>2018-06-21T05:28:43Z</time>
      </trkpt>
      <trkpt lat="43.00487" lon="-0.10372">
        <ele>490</ele>
        <time>2018-06-21T05:30:43Z</time>
      </trkpt>
      <trkpt lat="43.00492" lon="-0.10326">
        <ele>484</ele>
        <time>2018-06-21T05:31:43Z</time>
      </trkpt>
      <trkpt lat="43.00497" lon="-0.10307">
        <ele>482</ele>
        <time>2018-06-21T05:33:43Z</time>
      </trkpt>
      <trkpt lat="43.00522" lon="-0.1027">
        <ele>479</ele>
        <time>2018-06-21T05:35:43Z</time>
      </trkpt>
      <trkpt lat="43.00557" lon="-0.1021">
        <ele>476</ele>
        <time>2018-06-21T05:37:43Z</time>
      </trkpt>
      <trkpt lat="43.00561" lon="-0.10204">
        <ele>476</ele>
        <time>2018-06-21T05:38:43Z</time>
      </trkpt>
      <trkpt lat="43.00596" lon="-0.10172">
        <ele>474</ele>
        <time>2018-06-21T05:42:43Z</time>
      </trkpt>
      <trkpt lat="43.00653" lon="-0.10162">
        <ele>473</ele>
        <time>2018-06-21T05:47:43Z</time>
      </trkpt>
      <trkpt lat="43.00696" lon="-0.10155">
        <ele>473</ele>
        <time>2018-06-21T05:51:43Z</time>
      </trkpt>
      <trkpt lat="43.00707" lon="-0.10147">
        <ele>472</ele>
        <time>2018-06-21T05:57:43Z</time>
      </trkpt>
      <trkpt lat="43.00708" lon="-0.10125">
        <ele>469</ele>
        <time>2018-06-21T06:02:43Z</time>
      </trkpt>
      <trkpt lat="43.00689" lon="-0.10112">
        <ele>468</ele>
        <time>2018-06-21T06:04:43Z</time>
      </trkpt>
      <trkpt lat="43.00674" lon="-0.10102">
        <ele>466</ele>
        <time>2018-06-21T06:07:43Z</time>
      </trkpt>
      <trkpt lat="43.00674" lon="-0.10072">
        <ele>463</ele>
        <time>2018-06-21T06:10:43Z</time>
      </trkpt>
      <trkpt lat="43.00674" lon="-0.10058">
        <ele>463</ele>
        <time>2018-06-21T06:11:43Z</time>
      </trkpt>
      <trkpt lat="43.00678" lon="-0.10041">
        <ele>462</ele>
        <time>2018-06-21T06:15:43Z</time>
      </trkpt>
      <trkpt lat="43.00681" lon="-0.10009">
        <ele>460</ele>
        <time>2018-06-21T06:21:43Z</time>
      </trkpt>
      <trkpt lat="43.00692" lon="-0.10005">
        <ele>460</ele>
        <time>2018-06-21T06:23:43Z</time>
      </trkpt>
      <trkpt lat="43.00756" lon="-0.09983">
        <ele>459</ele>
        <time>2018-06-21T06:27:43Z</time>
      </trkpt>
      <trkpt lat="43.00722" lon="-0.0996">
        <ele>455</ele>
        <time>2018-06-21T06:29:43Z</time>
      </trkpt>
      <trkpt lat="43.00685" lon="-0.09933">
        <ele>450</ele>
        <time>2018-06-21T06:30:43Z</time>
      </trkpt>
      <trkpt lat="43.00677" lon="-0.09926">
        <ele>449</ele>
        <time>2018-06-21T06:32:43Z</time>
      </trkpt>
      <trkpt lat="43.00675" lon="-0.09909">
        <ele>447</ele>
        <time>2018-06-21T06:35:43Z</time>
      </trkpt>
      <trkpt lat="43.00685" lon="-0.09861">
        <ele>444</ele>
        <time>2018-06-21T06:37:43Z</time>
      </trkpt>
      <trkpt lat="43.00685" lon="-0.09861">
        <ele>444</ele>
        <time>2018-06-21T06:38:43Z</time>
      </trkpt>
      <trkpt lat="43.00681" lon="-0.09857">
        <ele>444</ele>
        <time>2018-06-21T06:46:43Z</time>
      </trkpt>
      <trkpt lat="43.00681" lon="-0.09849">
        <ele>443</ele>
        <time>2018-06-21T06:56:43Z</time>
      </trkpt>
      <trkpt lat="43.00685" lon="-0.09846">
        <ele>443</ele>
        <time>2018-06-21T07:03:43Z</time>
      </trkpt>
      <trkpt lat="43.00692" lon="-0.09851">
        <ele>443</ele>
        <time>2018-06-21T07:14:43Z</time>
      </trkpt>
      <trkpt lat="43.00736" lon="-0.09849">
        <ele>442</ele>
        <time>2018-06-21T07:17:43Z</time>
      </trkpt>
      <trkpt lat="43.00785" lon="-0.09843">
        <ele>442</ele>
        <time>2018-06-21T07:18:43Z</time>
      </trkpt>
      <trkpt lat="43.00875" lon="-0.09832">
        <ele>442</ele>
        <time>2018-06-21T07:20:43Z</time>
      </trkpt>
      <trkpt lat="43.00931" lon="-0.09826">
        <ele>442</ele>
        <time>2018-06-21T07:23:43Z</time>
      </trkpt>
      <trkpt lat="43.00995" lon="-0.0982">
        <ele>440</ele>
        <time>2018-06-21T07:25:43Z</time>
      </trkpt>
      <trkpt lat="43.00999" lon="-0.09818">
        <ele>440</ele>
        <time>2018-06-21T07:26:43Z</time>
      </trkpt>
      <trkpt lat="43.01021" lon="-0.09818">
        <ele>439</ele>
        <time>2018-06-21T07:29:43Z</time>
      </trkpt>
      <trkpt lat="43.01065" lon="-0.09816">
        <ele>436</ele>
        <time>2018-06-21T07:31:43Z</time>
      </trkpt>
      <trkpt lat="43.01092" lon="-0.09815">
        <ele>435</ele>
        <time>2018-06-21T07:33:43Z</time>
      </trkpt>
      <trkpt lat="43.01122" lon="-0.09814">
        <ele>435</ele>
        <time>2018-06-21T07:36:43Z</time>
      </trkpt>
      <trkpt lat="43.01139" lon="-0.09805">
        <ele>434</ele>
        <time>2018-06-21T07:40:43Z</time>
      </trkpt>
      <trkpt lat="43.01145" lon="-0.09788">
        <ele>432</ele>
        <time>2018-06-21T07:45:43Z</time>
      </trkpt>
      <trkpt lat="43.01153" lon="-0.09768">
        <ele>429</ele>
        <time>2018-06-21T07:48:43Z</time>
      </trkpt>
      <trkpt lat="43.01156" lon="-0.09763">
        <ele>429</ele>
        <time>2018-06-21T07:49:43Z</time>
      </trkpt>
      <trkpt lat="43.01168" lon="-0.09744">
        <ele>427</ele>
        <time>2018-06-21T07:52:43Z</time>
      </trkpt>
      <trkpt lat="43.01171" lon="-0.09727">
        <ele>427</ele>
        <time>2018-06-21T07:58:43Z</time>
      </trkpt>
      <trkpt lat="43.01175" lon="-0.09718">
        <ele>427</ele>
        <time>2018-06-21T08:07:43Z</time>
      </trkpt>
      <trkpt lat="43.0118" lon="-0.09711">
        <ele>427</ele>
        <time>2018-06-21T08:14:43Z</time>
      </trkpt>
      <trkpt lat="43.01193" lon="-0.09648">
        <ele>426</ele>
        <time>2018-06-21T08:21:43Z</time>
      </trkpt>
      <trkpt lat="43.01209" lon="-0.09482">
        <ele>424</ele>
        <time>2018-06-21T08:22:43Z</time>
      </trkpt>
      <trkpt lat="43.0123" lon="-0.0929">
        <ele>422</ele>
        <time>2018-06-21T08:24:43Z</time>
      </trkpt>
      <trkpt lat="43.01243" lon="-0.09166">
        <ele>422</ele>
        <time>2018-06-21T08:25:43Z</time>
      </trkpt>
      <trkpt lat="43.01279" lon="-0.08832">
        <ele>418</ele>
        <time>2018-06-21T08:27:43Z</time>
      </trkpt>
      <trkpt lat="43.01293" lon="-0.08704">
        <ele>419</ele>
        <time>2018-06-21T08:28:43Z</time>
      </trkpt>
      <trkpt lat="43.01292" lon="-0.08701">
        <ele>419</ele>
        <time>2018-06-21T08:29:43Z</time>
      </trkpt>
      <trkpt lat="43.01291" lon="-0.08674">
        <ele>419</ele>
        <time>2018-06-21T08:32:43Z</time>
      </trkpt>
      <trkpt lat="43.01285" lon="-0.08664">
        <ele>419</ele>
        <time>2018-06-21T08:40:43Z</time>
      </trkpt>
      <trkpt lat="43.01269" lon="-0.08652">
        <ele>418</ele>
        <time>2018-06-21T08:44:43Z</time>
      </trkpt>
      <trkpt lat="43.01257" lon="-0.08646">
        <ele>418</ele>
        <time>2018-06-21T08:47:43Z</time>
      </trkpt>
      <trkpt lat="43.01182" lon="-0.08629">
        <ele>418</ele>
        <time>2018-06-21T08:48:43Z</time>
      </trkpt>
      <trkpt lat="43.00927" lon="-0.08573">
        <ele>420</ele>
        <time>2018-06-21T08:50:43Z</time>
      </trkpt>
      <trkpt lat="43.00847" lon="-0.08556">
        <ele>422</ele>
        <time>2018-06-21T08:51:43Z</time>
      </trkpt>
      <trkpt lat="43.00757" lon="-0.08536">
        <ele>423</ele>
        <time>2018-06-21T08:53:43Z</time>
      </trkpt>
      <trkpt lat="43.00659" lon="-0.08488">
        <ele>423</ele>
        <time>2018-06-21T09:00:43Z</time>
      </trkpt>
      <trkpt lat="43.00646" lon="-0.08476">
        <ele>423</ele>
        <time>2018-06-21T09:02:43Z</time>
      </trkpt>
      <trkpt lat="43.00604" lon="-0.08421">
        <ele>423</ele>
        <time>2018-06-21T09:05:43Z</time>
      </trkpt>
      <trkpt lat="43.00573" lon="-0.08361">
        <ele>423</ele>
        <time>2018-06-21T09:08:43Z</time>
      </trkpt>
      <trkpt lat="43.0054" lon="-0.083">
        <ele>423</ele>
        <time>2018-06-21T09:10:43Z</time>
      </trkpt>
      <trkpt lat="43.00535" lon="-0.08303">
        <ele>423</ele>
        <time>2018-06-21T09:13:43Z</time>
      </trkpt>
      <trkpt lat="43.00517" lon="-0.08301">
        <ele>423</ele>
        <time>2018-06-21T09:21:43Z</time>
      </trkpt>
      <trkpt lat="43.00505" lon="-0.08275">
        <ele>422</ele>
        <time>2018-06-21T09:31:43Z</time>
      </trkpt>
      <trkpt lat="43.00514" lon="-0.0825">
        <ele>422</ele>
        <time>2018-06-21T09:40:43Z</time>
      </trkpt>
      <trkpt lat="43.00531" lon="-0.08244">
        <ele>423</ele>
        <time>2018-06-21T09:48:43Z</time>
      </trkpt>
      <trkpt lat="43.00544" lon="-0.08231">
        <ele>423</ele>
        <time>2018-06-21T09:54:43Z</time>
      </trkpt>
      <trkpt lat="43.00544" lon="-0.08179">
        <ele>424</ele>
        <time>2018-06-21T09:58:43Z</time>
      </trkpt>
      <trkpt lat="43.0054" lon="-0.08101">
        <ele>430</ele>
        <time>2018-06-21T10:00:43Z</time>
      </trkpt>
      <trkpt lat="43.00536" lon="-0.0809">
        <ele>431</ele>
        <time>2018-06-21T10:02:43Z</time>
      </trkpt>
      <trkpt lat="43.00513" lon="-0.08055">
        <ele>434</ele>
        <time>2018-06-21T10:05:43Z</time>
      </trkpt>
      <trkpt lat="43.00499" lon="-0.08037">
        <ele>435</ele>
        <time>2018-06-21T10:07:43Z</time>
      </trkpt>
      <trkpt lat="43.00481" lon="-0.08005">
        <ele>438</ele>
        <time>2018-06-21T10:11:43Z</time>
      </trkpt>
      <trkpt lat="43.00478" lon="-0.08001">
        <ele>438</ele>
        <time>2018-06-21T10:12:43Z</time>
      </trkpt>
      <trkpt lat="43.0045" lon="-0.07968">
        <ele>438</ele>
        <time>2018-06-21T10:15:43Z</time>
      </trkpt>
      <trkpt lat="43.00446" lon="-0.07951">
        <ele>440</ele>
        <time>2018-06-21T10:18:43Z</time>
      </trkpt>
      <trkpt lat="43.00408" lon="-0.07916">
        <ele>437</ele>
        <time>2018-06-21T10:20:43Z</time>
      </trkpt>
      <trkpt lat="43.00389" lon="-0.07883">
        <ele>440</ele>
        <time>2018-06-21T10:21:43Z</time>
      </trkpt>
      <trkpt lat="43.00369" lon="-0.07844">
        <ele>441</ele>
        <time>2018-06-21T10:23:43Z</time>
      </trkpt>
      <trkpt lat="43.00353" lon="-0.07782">
        <ele>445</ele>
        <time>2018-06-21T10:25:43Z</time>
      </trkpt>
      <trkpt lat="43.00347" lon="-0.07748">
        <ele>448</ele>
        <time>2018-06-21T10:26:43Z</time>
      </trkpt>
      <trkpt lat="43.0034" lon="-0.07724">
        <ele>448</ele>
        <time>2018-06-21T10:27:43Z</time>
      </trkpt>
      <trkpt lat="43.00314" lon="-0.07649">
        <ele>450</ele>
        <time>2018-06-21T10:30:43Z</time>
      </trkpt>
      <trkpt lat="43.00297" lon="-0.07563">
        <ele>448</ele>
        <time>2018-06-21T10:34:43Z</time>
      </trkpt>
      <trkpt lat="43.00294" lon="-0.07524">
        <ele>446</ele>
        <time>2018-06-21T10:36:43Z</time>
      </trkpt>
      <trkpt lat="43.00298" lon="-0.07465">
        <ele>445</ele>
        <time>2018-06-21T10:40:43Z</time>
      </trkpt>
      <trkpt lat="43.00296" lon="-0.07426">
        <ele>444</ele>
        <time>2018-06-21T10:43:43Z</time>
      </trkpt>
      <trkpt lat="43.00286" lon="-0.07387">
        <ele>442</ele>
        <time>2018-06-21T10:46:43Z</time>
      </trkpt>
      <trkpt lat="43.00267" lon="-0.07323">
        <ele>437</ele>
        <time>2018-06-21T10:48:43Z</time>
      </trkpt>
      <trkpt lat="43.00244" lon="-0.07252">
        <ele>438</ele>
        <time>2018-06-21T10:49:43Z</time>
      </trkpt>
      <trkpt lat="43.00211" lon="-0.07159">
        <ele>443</ele>
        <time>2018-06-21T10:51:43Z</time>
      </trkpt>
      <trkpt lat="43.00211" lon="-0.07156">
        <ele>443</ele>
        <time>2018-06-21T10:52:43Z</time>
      </trkpt>
      <trkpt lat="43.00189" lon="-0.07112">
        <ele>446</ele>
        <time>2018-06-21T10:54:43Z</time>
      </trkpt>
      <trkpt lat="43.00158" lon="-0.07055">
        <ele>449</ele>
        <time>2018-06-21T10:56:43Z</time>
      </trkpt>
      <trkpt lat="43.0014" lon="-0.07024">
        <ele>452</ele>
        <time>2018-06-21T10:58:43Z</time>
      </trkpt>
      <trkpt lat="43.0013" lon="-0.06999">
        <ele>454</ele>
        <time>2018-06-21T11:01:43Z</time>
      </trkpt>
      <trkpt lat="43.00123" lon="-0.06951">
        <ele>457</ele>
        <time>2018-06-21T11:07:43Z</time>
      </trkpt>
      <trkpt lat="43.0016" lon="-0.06938">
        <ele>456</ele>
        <time>2018-06-21T11:09:43Z</time>
      </trkpt>
      <trkpt lat="43.00227" lon="-0.06914">
        <ele>460</ele>
        <time>2018-06-21T11:10:43Z</time>
      </trkpt>
      <trkpt lat="43.00255" lon="-0.06905">
        <ele>461</ele>
        <time>2018-06-21T11:12:43Z</time>
      </trkpt>
      <trkpt lat="43.00259" lon="-0.06875">
        <ele>462</ele>
        <time>2018-06-21T11:15:43Z</time>
      </trkpt>
      <trkpt lat="43.00283" lon="-0.06828">
        <ele>464</ele>
        <time>2018-06-21T11:20:43Z</time>
      </trkpt>
      <trkpt lat="43.0031" lon="-0.06787">
        <ele>467</ele>
        <time>2018-06-21T11:21:43Z</time>
      </trkpt>
      <trkpt lat="43.00334" lon="-0.06752">
        <ele>470</ele>
        <time>2018-06-21T11:23:43Z</time>
      </trkpt>
      <trkpt lat="43.00349" lon="-0.06731">
        <ele>472</ele>
        <time>2018-06-21T11:25:43Z</time>
      </trkpt>
      <trkpt lat="43.00374" lon="-0.067">
        <ele>475</ele>
        <time>2018-06-21T11:27:43Z</time>
      </trkpt>
      <trkpt lat="43.00402" lon="-0.0667">
        <ele>478</ele>
        <time>2018-06-21T11:30:43Z</time>
      </trkpt>
      <trkpt lat="43.00408" lon="-0.06662">
        <ele>478</ele>
        <time>2018-06-21T11:31:43Z</time>
      </trkpt>
      <trkpt lat="43.00446" lon="-0.0661">
        <ele>483</ele>
        <time>2018-06-21T11:34:43Z</time>
      </trkpt>
      <trkpt lat="43.00474" lon="-0.06567">
        <ele>486</ele>
        <time>2018-06-21T11:36:43Z</time>
      </trkpt>
      <trkpt lat="43.00481" lon="-0.06557">
        <ele>487</ele>
        <time>2018-06-21T11:38:43Z</time>
      </trkpt>
      <trkpt lat="43.00467" lon="-0.06539">
        <ele>490</ele>
        <time>2018-06-21T11:40:43Z</time>
      </trkpt>
      <trkpt lat="43.00464" lon="-0.06536">
        <ele>490</ele>
        <time>2018-06-21T11:41:43Z</time>
      </trkpt>
      <trkpt lat="43.00443" lon="-0.06522">
        <ele>493</ele>
        <time>2018-06-21T11:47:43Z</time>
      </trkpt>
      <trkpt lat="43.00429" lon="-0.06499">
        <ele>496</ele>
        <time>2018-06-21T11:50:43Z</time>
      </trkpt>
      <trkpt lat="43.00412" lon="-0.06489">
        <ele>499</ele>
        <time>2018-06-21T11:51:43Z</time>
      </trkpt>
      <trkpt lat="43.00406" lon="-0.06486">
        <ele>499</ele>
        <time>2018-06-21T11:52:43Z</time>
      </trkpt>
      <trkpt lat="43.00392" lon="-0.06468">
        <ele>503</ele>
        <time>2018-06-21T11:54:43Z</time>
      </trkpt>
      <trkpt lat="43.0037" lon="-0.06453">
        <ele>506</ele>
        <time>2018-06-21T11:56:43Z</time>
      </trkpt>
      <trkpt lat="43.00324" lon="-0.0643">
        <ele>510</ele>
        <time>2018-06-21T11:57:43Z</time>
      </trkpt>
      <trkpt lat="43.00311" lon="-0.06423">
        <ele>510</ele>
        <time>2018-06-21T11:58:43Z</time>
      </trkpt>
      <trkpt lat="43.00264" lon="-0.06395">
        <ele>510</ele>
        <time>2018-06-21T12:00:43Z</time>
      </trkpt>
      <trkpt lat="43.00245" lon="-0.06365">
        <ele>514</ele>
        <time>2018-06-21T12:03:43Z</time>
      </trkpt>
      <trkpt lat="43.00241" lon="-0.06358">
        <ele>514</ele>
        <time>2018-06-21T12:04:43Z</time>
      </trkpt>
      <trkpt lat="43.00229" lon="-0.06326">
        <ele>518</ele>
        <time>2018-06-21T12:05:43Z</time>
      </trkpt>
      <trkpt lat="43.00229" lon="-0.06325">
        <ele>518</ele>
        <time>2018-06-21T12:06:43Z</time>
      </trkpt>
      <trkpt lat="43.00222" lon="-0.06302">
        <ele>521</ele>
        <time>2018-06-21T12:07:43Z</time>
      </trkpt>
      <trkpt lat="43.00218" lon="-0.06279">
        <ele>524</ele>
        <time>2018-06-21T12:08:43Z</time>
      </trkpt>
      <trkpt lat="43.00215" lon="-0.06261">
        <ele>527</ele>
        <time>2018-06-21T12:09:43Z</time>
      </trkpt>
      <trkpt lat="43.00211" lon="-0.06244">
        <ele>530</ele>
        <time>2018-06-21T12:11:43Z</time>
      </trkpt>
      <trkpt lat="43.00208" lon="-0.0624">
        <ele>530</ele>
        <time>2018-06-21T12:12:43Z</time>
      </trkpt>
      <trkpt lat="43.00172" lon="-0.06229">
        <ele>529</ele>
        <time>2018-06-21T12:17:43Z</time>
      </trkpt>
      <trkpt lat="43.00145" lon="-0.0623">
        <ele>533</ele>
        <time>2018-06-21T12:20:43Z</time>
      </trkpt>
      <trkpt lat="43.0012" lon="-0.06247">
        <ele>534</ele>
        <time>2018-06-21T12:22:43Z</time>
      </trkpt>
      <trkpt lat="43.0008" lon="-0.06279">
        <ele>533</ele>
        <time>2018-06-21T12:25:43Z</time>
      </trkpt>
      <trkpt lat="43.00031" lon="-0.06286">
        <ele>537</ele>
        <time>2018-06-21T12:28:43Z</time>
      </trkpt>
      <trkpt lat="43.00001" lon="-0.06285">
        <ele>540</ele>
        <time>2018-06-21T12:30:43Z</time>
      </trkpt>
      <trkpt lat="42.99981" lon="-0.06286">
        <ele>541</ele>
        <time>2018-06-21T12:32:43Z</time>
      </trkpt>
      <trkpt lat="42.9996" lon="-0.06274">
        <ele>545</ele>
        <time>2018-06-21T12:37:43Z</time>
      </trkpt>
      <trkpt lat="42.9995" lon="-0.06259">
        <ele>548</ele>
        <time>2018-06-21T12:38:43Z</time>
      </trkpt>
      <trkpt lat="42.99942" lon="-0.06244">
        <ele>552</ele>
        <time>2018-06-21T12:39:43Z</time>
      </trkpt>
      <trkpt lat="42.9993" lon="-0.0623">
        <ele>556</ele>
        <time>2018-06-21T12:41:43Z</time>
      </trkpt>
      <trkpt lat="42.99927" lon="-0.06229">
        <ele>556</ele>
        <time>2018-06-21T12:42:43Z</time>
      </trkpt>
      <trkpt lat="42.99897" lon="-0.06216">
        <ele>560</ele>
        <time>2018-06-21T12:46:43Z</time>
      </trkpt>
      <trkpt lat="42.99878" lon="-0.0621">
        <ele>562</ele>
        <time>2018-06-21T12:49:43Z</time>
      </trkpt>
      <trkpt lat="42.99862" lon="-0.06202">
        <ele>565</ele>
        <time>2018-06-21T12:51:43Z</time>
      </trkpt>
      <trkpt lat="42.99856" lon="-0.062">
        <ele>565</ele>
        <time>2018-06-21T12:52:43Z</time>
      </trkpt>
      <trkpt lat="42.99814" lon="-0.06206">
        <ele>566</ele>
        <time>2018-06-21T12:58:43Z</time>
      </trkpt>
      <trkpt lat="42.99787" lon="-0.06191">
        <ele>568</ele>
        <time>2018-06-21T13:03:43Z</time>
      </trkpt>
      <trkpt lat="42.99743" lon="-0.06193">
        <ele>569</ele>
        <time>2018-06-21T13:10:43Z</time>
      </trkpt>
      <trkpt lat="42.99696" lon="-0.0619">
        <ele>568</ele>
        <time>2018-06-21T13:14:43Z</time>
      </trkpt>
      <trkpt lat="42.99658" lon="-0.06178">
        <ele>569</ele>
        <time>2018-06-21T13:19:43Z</time>
      </trkpt>
      <trkpt lat="42.99637" lon="-0.0618">
        <ele>570</ele>
        <time>2018-06-21T13:24:43Z</time>
      </trkpt>
      <trkpt lat="42.99597" lon="-0.06167">
        <ele>573</ele>
        <time>2018-06-21T13:27:43Z</time>
      </trkpt>
      <trkpt lat="42.99582" lon="-0.06161">
        <ele>576</ele>
        <time>2018-06-21T13:28:43Z</time>
      </trkpt>
      <trkpt lat="42.9956" lon="-0.0615">
        <ele>579</ele>
        <time>2018-06-21T13:31:43Z</time>
      </trkpt>
      <trkpt lat="42.99545" lon="-0.06134">
        <ele>583</ele>
        <time>2018-06-21T13:33:43Z</time>
      </trkpt>
      <trkpt lat="42.99535" lon="-0.06119">
        <ele>586</ele>
        <time>2018-06-21T13:35:43Z</time>
      </trkpt>
      <trkpt lat="42.99532" lon="-0.06117">
        <ele>586</ele>
        <time>2018-06-21T13:36:43Z</time>
      </trkpt>
      <trkpt lat="42.99502" lon="-0.06081">
        <ele>591</ele>
        <time>2018-06-21T13:38:43Z</time>
      </trkpt>
      <trkpt lat="42.99474" lon="-0.06051">
        <ele>592</ele>
        <time>2018-06-21T13:40:43Z</time>
      </trkpt>
      <trkpt lat="42.99451" lon="-0.06022">
        <ele>592</ele>
        <time>2018-06-21T13:44:43Z</time>
      </trkpt>
      <trkpt lat="42.99438" lon="-0.05996">
        <ele>593</ele>
        <time>2018-06-21T13:47:43Z</time>
      </trkpt>
      <trkpt lat="42.99429" lon="-0.05971">
        <ele>596</ele>
        <time>2018-06-21T13:50:43Z</time>
      </trkpt>
      <trkpt lat="42.99425" lon="-0.05952">
        <ele>599</ele>
        <time>2018-06-21T13:52:43Z</time>
      </trkpt>
      <trkpt lat="42.99415" lon="-0.05922">
        <ele>602</ele>
        <time>2018-06-21T13:54:43Z</time>
      </trkpt>
      <trkpt lat="42.99397" lon="-0.05886">
        <ele>610</ele>
        <time>2018-06-21T13:55:43Z</time>
      </trkpt>
      <trkpt lat="42.99384" lon="-0.05851">
        <ele>616</ele>
        <time>2018-06-21T13:56:43Z</time>
      </trkpt>
      <trkpt lat="42.99374" lon="-0.05816">
        <ele>621</ele>
        <time>2018-06-21T13:57:43Z</time>
      </trkpt>
      <trkpt lat="42.99365" lon="-0.05772">
        <ele>627</ele>
        <time>2018-06-21T13:58:43Z</time>
      </trkpt>
      <trkpt lat="42.99354" lon="-0.05758">
        <ele>628</ele>
        <time>2018-06-21T14:00:43Z</time>
      </trkpt>
      <trkpt lat="42.99339" lon="-0.05758">
        <ele>625</ele>
        <time>2018-06-21T14:05:43Z</time>
      </trkpt>
      <trkpt lat="42.99336" lon="-0.0576">
        <ele>625</ele>
        <time>2018-06-21T14:06:43Z</time>
      </trkpt>
      <trkpt lat="42.99324" lon="-0.0578">
        <ele>623</ele>
        <time>2018-06-21T14:09:43Z</time>
      </trkpt>
      <trkpt lat="42.99317" lon="-0.05811">
        <ele>618</ele>
        <time>2018-06-21T14:11:43Z</time>
      </trkpt>
      <trkpt lat="42.99305" lon="-0.05847">
        <ele>615</ele>
        <time>2018-06-21T14:13:43Z</time>
      </trkpt>
      <trkpt lat="42.9929" lon="-0.05868">
        <ele>614</ele>
        <time>2018-06-21T14:15:43Z</time>
      </trkpt>
      <trkpt lat="42.99244" lon="-0.05895">
        <ele>615</ele>
        <time>2018-06-21T14:19:43Z</time>
      </trkpt>
      <trkpt lat="42.99201" lon="-0.05904">
        <ele>617</ele>
        <time>2018-06-21T14:23:43Z</time>
      </trkpt>
      <trkpt lat="42.99177" lon="-0.05902">
        <ele>620</ele>
        <time>2018-06-21T14:24:43Z</time>
      </trkpt>
      <trkpt lat="42.99155" lon="-0.05897">
        <ele>626</ele>
        <time>2018-06-21T14:26:43Z</time>
      </trkpt>
      <trkpt lat="42.99146" lon="-0.05897">
        <ele>629</ele>
        <time>2018-06-21T14:27:43Z</time>
      </trkpt>
      <trkpt lat="42.99118" lon="-0.05915">
        <ele>632</ele>
        <time>2018-06-21T14:30:43Z</time>
      </trkpt>
      <trkpt lat="42.99112" lon="-0.0592">
        <ele>632</ele>
        <time>2018-06-21T14:31:43Z</time>
      </trkpt>
      <trkpt lat="42.99049" lon="-0.05973">
        <ele>631</ele>
        <time>2018-06-21T14:33:43Z</time>
      </trkpt>
      <trkpt lat="42.99044" lon="-0.05977">
        <ele>631</ele>
        <time>2018-06-21T14:34:43Z</time>
      </trkpt>
      <trkpt lat="42.99021" lon="-0.05994">
        <ele>630</ele>
        <time>2018-06-21T14:36:43Z</time>
      </trkpt>
      <trkpt lat="42.9901" lon="-0.05994">
        <ele>633</ele>
        <time>2018-06-21T14:37:43Z</time>
      </trkpt>
      <trkpt lat="42.99" lon="-0.05992">
        <ele>636</ele>
        <time>2018-06-21T14:38:43Z</time>
      </trkpt>
      <trkpt lat="42.98992" lon="-0.05988">
        <ele>635</ele>
        <time>2018-06-21T14:39:43Z</time>
      </trkpt>
      <trkpt lat="42.98977" lon="-0.05969">
        <ele>638</ele>
        <time>2018-06-21T14:41:43Z</time>
      </trkpt>
      <trkpt lat="42.98976" lon="-0.05967">
        <ele>638</ele>
        <time>2018-06-21T14:42:43Z</time>
      </trkpt>
      <trkpt lat="42.9897" lon="-0.05948">
        <ele>642</ele>
        <time>2018-06-21T14:43:43Z</time>
      </trkpt>
      <trkpt lat="42.98963" lon="-0.05926">
        <ele>646</ele>
        <time>2018-06-21T14:44:43Z</time>
      </trkpt>
      <trkpt lat="42.98952" lon="-0.05903">
        <ele>650</ele>
        <time>2018-06-21T14:45:43Z</time>
      </trkpt>
      <trkpt lat="42.98932" lon="-0.05868">
        <ele>656</ele>
        <time>2018-06-21T14:47:43Z</time>
      </trkpt>
      <trkpt lat="42.98925" lon="-0.05854">
        <ele>659</ele>
        <time>2018-06-21T14:48:43Z</time>
      </trkpt>
      <trkpt lat="42.98924" lon="-0.05853">
        <ele>659</ele>
        <time>2018-06-21T14:49:43Z</time>
      </trkpt>
      <trkpt lat="42.98908" lon="-0.05828">
        <ele>666</ele>
        <time>2018-06-21T14:51:43Z</time>
      </trkpt>
      <trkpt lat="42.98898" lon="-0.05815">
        <ele>669</ele>
        <time>2018-06-21T14:52:43Z</time>
      </trkpt>
      <trkpt lat="42.98871" lon="-0.05793">
        <ele>673</ele>
        <time>2018-06-21T14:54:43Z</time>
      </trkpt>
      <trkpt lat="42.98847" lon="-0.0578">
        <ele>673</ele>
        <time>2018-06-21T14:55:43Z</time>
      </trkpt>
      <trkpt lat="42.98805" lon="-0.05759">
        <ele>669</ele>
        <time>2018-06-21T14:57:43Z</time>
      </trkpt>
      <trkpt lat="42.98801" lon="-0.05755">
        <ele>669</ele>
        <time>2018-06-21T14:58:43Z</time>
      </trkpt>
      <trkpt lat="42.98792" lon="-0.05735">
        <ele>673</ele>
        <time>2018-06-21T15:02:43Z</time>
      </trkpt>
      <trkpt lat="42.98787" lon="-0.0572">
        <ele>677</ele>
        <time>2018-06-21T15:03:43Z</time>
      </trkpt>
      <trkpt lat="42.9878" lon="-0.05701">
        <ele>680</ele>
        <time>2018-06-21T15:04:43Z</time>
      </trkpt>
      <trkpt lat="42.98776" lon="-0.05688">
        <ele>683</ele>
        <time>2018-06-21T15:05:43Z</time>
      </trkpt>
      <trkpt lat="42.98767" lon="-0.05661">
        <ele>688</ele>
        <time>2018-06-21T15:06:43Z</time>
      </trkpt>
      <trkpt lat="42.9876" lon="-0.05643">
        <ele>692</ele>
        <time>2018-06-21T15:07:43Z</time>
      </trkpt>
      <trkpt lat="42.98759" lon="-0.0564">
        <ele>692</ele>
        <time>2018-06-21T15:08:43Z</time>
      </trkpt>
      <trkpt lat="42.98744" lon="-0.05624">
        <ele>692</ele>
        <time>2018-06-21T15:11:43Z</time>
      </trkpt>
      <trkpt lat="42.98721" lon="-0.05612">
        <ele>688</ele>
        <time>2018-06-21T15:13:43Z</time>
      </trkpt>
      <trkpt lat="42.98703" lon="-0.05599">
        <ele>687</ele>
        <time>2018-06-21T15:15:43Z</time>
      </trkpt>
      <trkpt lat="42.98682" lon="-0.05543">
        <ele>694</ele>
        <time>2018-06-21T15:20:43Z</time>
      </trkpt>
      <trkpt lat="42.98678" lon="-0.05516">
        <ele>698</ele>
        <time>2018-06-21T15:21:43Z</time>
      </trkpt>
      <trkpt lat="42.98671" lon="-0.05491">
        <ele>700</ele>
        <time>2018-06-21T15:23:43Z</time>
      </trkpt>
      <trkpt lat="42.98659" lon="-0.05449">
        <ele>704</ele>
        <time>2018-06-21T15:25:43Z</time>
      </trkpt>
      <trkpt lat="42.98648" lon="-0.05416">
        <ele>707</ele>
        <time>2018-06-21T15:27:43Z</time>
      </trkpt>
      <trkpt lat="42.98641" lon="-0.05403">
        <ele>707</ele>
        <time>2018-06-21T15:28:43Z</time>
      </trkpt>
      <trkpt lat="42.98594" lon="-0.05318">
        <ele>712</ele>
        <time>2018-06-21T15:33:43Z</time>
      </trkpt>
      <trkpt lat="42.9857" lon="-0.05281">
        <ele>715</ele>
        <time>2018-06-21T15:35:43Z</time>
      </trkpt>
      <trkpt lat="42.98536" lon="-0.05217">
        <ele>723</ele>
        <time>2018-06-21T15:37:43Z</time>
      </trkpt>
      <trkpt lat="42.98524" lon="-0.05195">
        <ele>727</ele>
        <time>2018-06-21T15:39:43Z</time>
      </trkpt>
      <trkpt lat="42.985" lon="-0.05168">
        <ele>731</ele>
        <time>2018-06-21T15:41:43Z</time>
      </trkpt>
      <trkpt lat="42.9848" lon="-0.05161">
        <ele>728</ele>
        <time>2018-06-21T15:43:43Z</time>
      </trkpt>
      <trkpt lat="42.98471" lon="-0.05155">
        <ele>728</ele>
        <time>2018-06-21T15:44:43Z</time>
      </trkpt>
      <trkpt lat="42.98434" lon="-0.05118">
        <ele>730</ele>
        <time>2018-06-21T15:48:43Z</time>
      </trkpt>
      <trkpt lat="42.98418" lon="-0.05094">
        <ele>733</ele>
        <time>2018-06-21T15:51:43Z</time>
      </trkpt>
      <trkpt lat="42.98409" lon="-0.05051">
        <ele>746</ele>
        <time>2018-06-21T15:53:43Z</time>
      </trkpt>
      <trkpt lat="42.98404" lon="-0.05039">
        <ele>750</ele>
        <time>2018-06-21T15:54:43Z</time>
      </trkpt>
      <trkpt lat="42.98391" lon="-0.0503">
        <ele>753</ele>
        <time>2018-06-21T15:57:43Z</time>
      </trkpt>
      <trkpt lat="42.98385" lon="-0.05029">
        <ele>753</ele>
        <time>2018-06-21T15:58:43Z</time>
      </trkpt>
      <trkpt lat="42.98357" lon="-0.05032">
        <ele>750</ele>
        <time>2018-06-21T16:02:43Z</time>
      </trkpt>
      <trkpt lat="42.9834" lon="-0.05042">
        <ele>745</ele>
        <time>2018-06-21T16:04:43Z</time>
      </trkpt>
      <trkpt lat="42.98324" lon="-0.0505">
        <ele>742</ele>
        <time>2018-06-21T16:06:43Z</time>
      </trkpt>
      <trkpt lat="42.98304" lon="-0.05058">
        <ele>739</ele>
        <time>2018-06-21T16:09:43Z</time>
      </trkpt>
      <trkpt lat="42.98283" lon="-0.0505">
        <ele>743</ele>
        <time>2018-06-21T16:12:43Z</time>
      </trkpt>
      <trkpt lat="42.9827" lon="-0.05044">
        <ele>746</ele>
        <time>2018-06-21T16:14:43Z</time>
      </trkpt>
      <trkpt lat="42.98255" lon="-0.05037">
        <ele>749</ele>
        <time>2018-06-21T16:16:43Z</time>
      </trkpt>
      <trkpt lat="42.98232" lon="-0.05031">
        <ele>751</ele>
        <time>2018-06-21T16:19:43Z</time>
      </trkpt>
      <trkpt lat="42.98198" lon="-0.05022">
        <ele>752</ele>
        <time>2018-06-21T16:23:43Z</time>
      </trkpt>
      <trkpt lat="42.98174" lon="-0.0501">
        <ele>755</ele>
        <time>2018-06-21T16:26:43Z</time>
      </trkpt>
      <trkpt lat="42.98167" lon="-0.05007">
        <ele>755</ele>
        <time>2018-06-21T16:27:43Z</time>
      </trkpt>
      <trkpt lat="42.98153" lon="-0.04998">
        <ele>758</ele>
        <time>2018-06-21T16:29:43Z</time>
      </trkpt>
      <trkpt lat="42.9813" lon="-0.04988">
        <ele>759</ele>
        <time>2018-06-21T16:31:43Z</time>
      </trkpt>
      <trkpt lat="42.98068" lon="-0.04974">
        <ele>759</ele>
        <time>2018-06-21T16:34:43Z</time>
      </trkpt>
      <trkpt lat="42.98009" lon="-0.04967">
        <ele>761</ele>
        <time>2018-06-21T16:36:43Z</time>
      </trkpt>
      <trkpt lat="42.97982" lon="-0.04974">
        <ele>758</ele>
        <time>2018-06-21T16:37:43Z</time>
      </trkpt>
      <trkpt lat="42.97957" lon="-0.04971">
        <ele>757</ele>
        <time>2018-06-21T16:39:43Z</time>
      </trkpt>
      <trkpt lat="42.97922" lon="-0.04932">
        <ele>764</ele>
        <time>2018-06-21T16:41:43Z</time>
      </trkpt>
      <trkpt lat="42.97917" lon="-0.04917">
        <ele>767</ele>
        <time>2018-06-21T16:42:43Z</time>
      </trkpt>
      <trkpt lat="42.97913" lon="-0.04887">
        <ele>770</ele>
        <time>2018-06-21T16:43:43Z</time>
      </trkpt>
      <trkpt lat="42.97899" lon="-0.04856">
        <ele>772</ele>
        <time>2018-06-21T16:46:43Z</time>
      </trkpt>
      <trkpt lat="42.97854" lon="-0.04814">
        <ele>775</ele>
        <time>2018-06-21T16:49:43Z</time>
      </trkpt>
      <trkpt lat="42.97844" lon="-0.0481">
        <ele>775</ele>
        <time>2018-06-21T16:50:43Z</time>
      </trkpt>
      <trkpt lat="42.97793" lon="-0.04769">
        <ele>776</ele>
        <time>2018-06-21T16:53:43Z</time>
      </trkpt>
      <trkpt lat="42.97759" lon="-0.04748">
        <ele>773</ele>
        <time>2018-06-21T16:55:43Z</time>
      </trkpt>
      <trkpt lat="42.97751" lon="-0.04739">
        <ele>773</ele>
        <time>2018-06-21T16:56:43Z</time>
      </trkpt>
      <trkpt lat="42.97744" lon="-0.04706">
        <ele>778</ele>
        <time>2018-06-21T16:58:43Z</time>
      </trkpt>
      <trkpt lat="42.97742" lon="-0.04686">
        <ele>781</ele>
        <time>2018-06-21T16:59:43Z</time>
      </trkpt>
      <trkpt lat="42.97738" lon="-0.04668">
        <ele>784</ele>
        <time>2018-06-21T17:00:43Z</time>
      </trkpt>
      <trkpt lat="42.97734" lon="-0.04646">
        <ele>788</ele>
        <time>2018-06-21T17:01:43Z</time>
      </trkpt>
      <trkpt lat="42.97731" lon="-0.04632">
        <ele>791</ele>
        <time>2018-06-21T17:02:43Z</time>
      </trkpt>
      <trkpt lat="42.97727" lon="-0.04613">
        <ele>795</ele>
        <time>2018-06-21T17:03:43Z</time>
      </trkpt>
      <trkpt lat="42.97717" lon="-0.04596">
        <ele>798</ele>
        <time>2018-06-21T17:05:43Z</time>
      </trkpt>
      <trkpt lat="42.97711" lon="-0.04582">
        <ele>801</ele>
        <time>2018-06-21T17:06:43Z</time>
      </trkpt>
      <trkpt lat="42.97705" lon="-0.04552">
        <ele>808</ele>
        <time>2018-06-21T17:07:43Z</time>
      </trkpt>
      <trkpt lat="42.97697" lon="-0.04539">
        <ele>811</ele>
        <time>2018-06-21T17:08:43Z</time>
      </trkpt>
      <trkpt lat="42.97667" lon="-0.04552">
        <ele>806</ele>
        <time>2018-06-21T17:11:43Z</time>
      </trkpt>
      <trkpt lat="42.97657" lon="-0.0457">
        <ele>802</ele>
        <time>2018-06-21T17:12:43Z</time>
      </trkpt>
      <trkpt lat="42.97646" lon="-0.04589">
        <ele>798</ele>
        <time>2018-06-21T17:13:43Z</time>
      </trkpt>
      <trkpt lat="42.97634" lon="-0.04603">
        <ele>797</ele>
        <time>2018-06-21T17:15:43Z</time>
      </trkpt>
      <trkpt lat="42.97571" lon="-0.04628">
        <ele>800</ele>
        <time>2018-06-21T17:19:43Z</time>
      </trkpt>
      <trkpt lat="42.97558" lon="-0.04629">
        <ele>800</ele>
        <time>2018-06-21T17:20:43Z</time>
      </trkpt>
      <trkpt lat="42.97518" lon="-0.04614">
        <ele>804</ele>
        <time>2018-06-21T17:21:43Z</time>
      </trkpt>
      <trkpt lat="42.97518" lon="-0.04614">
        <ele>804</ele>
        <time>2018-06-21T17:22:43Z</time>
      </trkpt>
      <trkpt lat="42.97489" lon="-0.04607">
        <ele>806</ele>
        <time>2018-06-21T17:26:43Z</time>
      </trkpt>
      <trkpt lat="42.97481" lon="-0.04609">
        <ele>806</ele>
        <time>2018-06-21T17:27:43Z</time>
      </trkpt>
      <trkpt lat="42.9745" lon="-0.04617">
        <ele>808</ele>
        <time>2018-06-21T17:29:43Z</time>
      </trkpt>
      <trkpt lat="42.97414" lon="-0.04634">
        <ele>808</ele>
        <time>2018-06-21T17:32:43Z</time>
      </trkpt>
      <trkpt lat="42.97364" lon="-0.04615">
        <ele>808</ele>
        <time>2018-06-21T17:36:43Z</time>
      </trkpt>
      <trkpt lat="42.97352" lon="-0.04593">
        <ele>812</ele>
        <time>2018-06-21T17:38:43Z</time>
      </trkpt>
      <trkpt lat="42.97361" lon="-0.04578">
        <ele>815</ele>
        <time>2018-06-21T17:41:43Z</time>
      </trkpt>
      <trkpt lat="42.97384" lon="-0.04565">
        <ele>818</ele>
        <time>2018-06-21T17:42:43Z</time>
      </trkpt>
      <trkpt lat="42.97411" lon="-0.04543">
        <ele>822</ele>
        <time>2018-06-21T17:43:43Z</time>
      </trkpt>
      <trkpt lat="42.97482" lon="-0.04468">
        <ele>826</ele>
        <time>2018-06-21T17:45:43Z</time>
      </trkpt>
      <trkpt lat="42.97521" lon="-0.04399">
        <ele>838</ele>
        <time>2018-06-21T17:47:43Z</time>
      </trkpt>
      <trkpt lat="42.97531" lon="-0.04383">
        <ele>841</ele>
        <time>2018-06-21T17:48:43Z</time>
      </trkpt>
      <trkpt lat="42.97565" lon="-0.0435">
        <ele>845</ele>
        <time>2018-06-21T17:50:43Z</time>
      </trkpt>
      <trkpt lat="42.97574" lon="-0.04344">
        <ele>845</ele>
        <time>2018-06-21T17:51:43Z</time>
      </trkpt>
      <trkpt lat="42.97602" lon="-0.04325">
        <ele>848</ele>
        <time>2018-06-21T17:54:43Z</time>
      </trkpt>
      <trkpt lat="42.97645" lon="-0.04299">
        <ele>853</ele>
        <time>2018-06-21T17:55:43Z</time>
      </trkpt>
      <trkpt lat="42.97682" lon="-0.04278">
        <ele>856</ele>
        <time>2018-06-21T17:56:43Z</time>
      </trkpt>
      <trkpt lat="42.97709" lon="-0.04266">
        <ele>856</ele>
        <time>2018-06-21T17:57:43Z</time>
      </trkpt>
      <trkpt lat="42.9773" lon="-0.04262">
        <ele>855</ele>
        <time>2018-06-21T17:59:43Z</time>
      </trkpt>
      <trkpt lat="42.97767" lon="-0.04271">
        <ele>852</ele>
        <time>2018-06-21T18:02:43Z</time>
      </trkpt>
      <trkpt lat="42.97805" lon="-0.04288">
        <ele>850</ele>
        <time>2018-06-21T18:04:43Z</time>
      </trkpt>
      <trkpt lat="42.9782" lon="-0.04305">
        <ele>847</ele>
        <time>2018-06-21T18:06:43Z</time>
      </trkpt>
      <trkpt lat="42.97841" lon="-0.04337">
        <ele>845</ele>
        <time>2018-06-21T18:08:43Z</time>
      </trkpt>
      <trkpt lat="42.97861" lon="-0.04346">
        <ele>847</ele>
        <time>2018-06-21T18:11:43Z</time>
      </trkpt>
      <trkpt lat="42.97905" lon="-0.04334">
        <ele>853</ele>
        <time>2018-06-21T18:13:43Z</time>
      </trkpt>
      <trkpt lat="42.97928" lon="-0.04326">
        <ele>859</ele>
        <time>2018-06-21T18:15:43Z</time>
      </trkpt>
      <trkpt lat="42.97937" lon="-0.04317">
        <ele>863</ele>
        <time>2018-06-21T18:16:43Z</time>
      </trkpt>
      <trkpt lat="42.97943" lon="-0.043">
        <ele>868</ele>
        <time>2018-06-21T18:17:43Z</time>
      </trkpt>
      <trkpt lat="42.97951" lon="-0.04287">
        <ele>872</ele>
        <time>2018-06-21T18:18:43Z</time>
      </trkpt>
      <trkpt lat="42.9796" lon="-0.04282">
        <ele>876</ele>
        <time>2018-06-21T18:20:43Z</time>
      </trkpt>
      <trkpt lat="42.97976" lon="-0.04297">
        <ele>877</ele>
        <time>2018-06-21T18:23:43Z</time>
      </trkpt>
      <trkpt lat="42.97983" lon="-0.04342">
        <ele>871</ele>
        <time>2018-06-21T18:26:43Z</time>
      </trkpt>
      <trkpt lat="42.97996" lon="-0.04376">
        <ele>871</ele>
        <time>2018-06-21T18:28:43Z</time>
      </trkpt>
      <trkpt lat="42.98021" lon="-0.04402">
        <ele>874</ele>
        <time>2018-06-21T18:30:43Z</time>
      </trkpt>
      <trkpt lat="42.98021" lon="-0.04402">
        <ele>874</ele>
        <time>2018-06-21T18:31:43Z</time>
      </trkpt>
      <trkpt lat="42.98044" lon="-0.04419">
        <ele>877</ele>
        <time>2018-06-21T18:32:43Z</time>
      </trkpt>
      <trkpt lat="42.98068" lon="-0.04416">
        <ele>883</ele>
        <time>2018-06-21T18:34:43Z</time>
      </trkpt>
      <trkpt lat="42.98091" lon="-0.04409">
        <ele>890</ele>
        <time>2018-06-21T18:35:43Z</time>
      </trkpt>
      <trkpt lat="42.98107" lon="-0.04408">
        <ele>895</ele>
        <time>2018-06-21T18:36:43Z</time>
      </trkpt>
      <trkpt lat="42.98123" lon="-0.0441">
        <ele>898</ele>
        <time>2018-06-21T18:38:43Z</time>
      </trkpt>
      <trkpt lat="42.98147" lon="-0.04421">
        <ele>900</ele>
        <time>2018-06-21T18:41:43Z</time>
      </trkpt>
      <trkpt lat="42.98169" lon="-0.04456">
        <ele>897</ele>
        <time>2018-06-21T18:46:43Z</time>
      </trkpt>
      <trkpt lat="42.98177" lon="-0.04478">
        <ele>894</ele>
        <time>2018-06-21T18:48:43Z</time>
      </trkpt>
      <trkpt lat="42.98187" lon="-0.0449">
        <ele>893</ele>
        <time>2018-06-21T18:50:43Z</time>
      </trkpt>
      <trkpt lat="42.98206" lon="-0.04494">
        <ele>896</ele>
        <time>2018-06-21T18:52:43Z</time>
      </trkpt>
      <trkpt lat="42.9822" lon="-0.04492">
        <ele>899</ele>
        <time>2018-06-21T18:53:43Z</time>
      </trkpt>
      <trkpt lat="42.98236" lon="-0.04489">
        <ele>903</ele>
        <time>2018-06-21T18:54:43Z</time>
      </trkpt>
      <trkpt lat="42.98249" lon="-0.04486">
        <ele>906</ele>
        <time>2018-06-21T18:55:43Z</time>
      </trkpt>
      <trkpt lat="42.98268" lon="-0.04478">
        <ele>909</ele>
        <time>2018-06-21T18:56:43Z</time>
      </trkpt>
      <trkpt lat="42.9829" lon="-0.04469">
        <ele>912</ele>
        <time>2018-06-21T18:57:43Z</time>
      </trkpt>
      <trkpt lat="42.98306" lon="-0.04463">
        <ele>913</ele>
        <time>2018-06-21T18:59:43Z</time>
      </trkpt>
      <trkpt lat="42.98328" lon="-0.04461">
        <ele>915</ele>
        <time>2018-06-21T19:01:43Z</time>
      </trkpt>
      <trkpt lat="42.98367" lon="-0.04475">
        <ele>917</ele>
        <time>2018-06-21T19:05:43Z</time>
      </trkpt>
      <trkpt lat="42.98395" lon="-0.04475">
        <ele>919</ele>
        <time>2018-06-21T19:10:43Z</time>
      </trkpt>
      <trkpt lat="42.98409" lon="-0.04448">
        <ele>922</ele>
        <time>2018-06-21T19:14:43Z</time>
      </trkpt>
      <trkpt lat="42.98413" lon="-0.04418">
        <ele>925</ele>
        <time>2018-06-21T19:17:43Z</time>
      </trkpt>
      <trkpt lat="42.98417" lon="-0.04411">
        <ele>926</ele>
        <time>2018-06-21T19:19:43Z</time>
      </trkpt>
      <trkpt lat="42.9844" lon="-0.04401">
        <ele>929</ele>
        <time>2018-06-21T19:22:43Z</time>
      </trkpt>
      <trkpt lat="42.98469" lon="-0.04398">
        <ele>932</ele>
        <time>2018-06-21T19:24:43Z</time>
      </trkpt>
      <trkpt lat="42.985" lon="-0.04389">
        <ele>935</ele>
        <time>2018-06-21T19:26:43Z</time>
      </trkpt>
      <trkpt lat="42.98541" lon="-0.04379">
        <ele>938</ele>
        <time>2018-06-21T19:29:43Z</time>
      </trkpt>
      <trkpt lat="42.98584" lon="-0.04378">
        <ele>940</ele>
        <time>2018-06-21T19:32:43Z</time>
      </trkpt>
      <trkpt lat="42.98623" lon="-0.04385">
        <ele>944</ele>
        <time>2018-06-21T19:35:43Z</time>
      </trkpt>
      <trkpt lat="42.98652" lon="-0.04391">
        <ele>947</ele>
        <time>2018-06-21T19:37:43Z</time>
      </trkpt>
      <trkpt lat="42.98695" lon="-0.04399">
        <ele>950</ele>
        <time>2018-06-21T19:40:43Z</time>
      </trkpt>
      <trkpt lat="42.98706" lon="-0.04402">
        <ele>951</ele>
        <time>2018-06-21T19:42:43Z</time>
      </trkpt>
      <trkpt lat="42.98737" lon="-0.04406">
        <ele>953</ele>
        <time>2018-06-21T19:46:43Z</time>
      </trkpt>
      <trkpt lat="42.98755" lon="-0.04397">
        <ele>955</ele>
        <time>2018-06-21T19:50:43Z</time>
      </trkpt>
      <trkpt lat="42.98784" lon="-0.04383">
        <ele>957</ele>
        <time>2018-06-21T19:54:43Z</time>
      </trkpt>
      <trkpt lat="42.98808" lon="-0.04374">
        <ele>959</ele>
        <time>2018-06-21T19:58:43Z</time>
      </trkpt>
      <trkpt lat="42.98837" lon="-0.0435">
        <ele>963</ele>
        <time>2018-06-21T20:02:43Z</time>
      </trkpt>
      <trkpt lat="42.9885" lon="-0.04335">
        <ele>966</ele>
        <time>2018-06-21T20:04:43Z</time>
      </trkpt>
      <trkpt lat="42.98866" lon="-0.04322">
        <ele>970</ele>
        <time>2018-06-21T20:06:43Z</time>
      </trkpt>
      <trkpt lat="42.98869" lon="-0.04319">
        <ele>970</ele>
        <time>2018-06-21T20:07:43Z</time>
      </trkpt>
      <trkpt lat="42.9889" lon="-0.04316">
        <ele>973</ele>
        <time>2018-06-21T20:10:43Z</time>
      </trkpt>
      <trkpt lat="42.98897" lon="-0.04318">
        <ele>973</ele>
        <time>2018-06-21T20:11:43Z</time>
      </trkpt>
      <trkpt lat="42.98925" lon="-0.04337">
        <ele>972</ele>
        <time>2018-06-21T20:13:43Z</time>
      </trkpt>
      <trkpt lat="42.98959" lon="-0.04356">
        <ele>974</ele>
        <time>2018-06-21T20:16:43Z</time>
      </trkpt>
      <trkpt lat="42.98987" lon="-0.04356">
        <ele>978</ele>
        <time>2018-06-21T20:20:43Z</time>
      </trkpt>
      <trkpt lat="42.98998" lon="-0.04335">
        <ele>983</ele>
        <time>2018-06-21T20:22:43Z</time>
      </trkpt>
      <trkpt lat="42.98998" lon="-0.04312">
        <ele>987</ele>
        <time>2018-06-21T20:24:43Z</time>
      </trkpt>
      <trkpt lat="42.9899" lon="-0.04294">
        <ele>990</ele>
        <time>2018-06-21T20:26:43Z</time>
      </trkpt>
      <trkpt lat="42.98964" lon="-0.04253">
        <ele>993</ele>
        <time>2018-06-21T20:29:43Z</time>
      </trkpt>
      <trkpt lat="42.98947" lon="-0.04225">
        <ele>998</ele>
        <time>2018-06-21T20:30:43Z</time>
      </trkpt>
      <trkpt lat="42.98932" lon="-0.04201">
        <ele>1002</ele>
        <time>2018-06-21T20:32:43Z</time>
      </trkpt>
      <trkpt lat="42.98918" lon="-0.0418">
        <ele>1006</ele>
        <time>2018-06-21T20:34:43Z</time>
      </trkpt>
      <trkpt lat="42.98898" lon="-0.04168">
        <ele>1008</ele>
        <time>2018-06-21T20:37:43Z</time>
      </trkpt>
      <trkpt lat="42.98886" lon="-0.04162">
        <ele>1010</ele>
        <time>2018-06-21T20:39:43Z</time>
      </trkpt>
      <trkpt lat="42.98816" lon="-0.04126">
        <ele>1017</ele>
        <time>2018-06-21T20:42:43Z</time>
      </trkpt>
      <trkpt lat="42.98783" lon="-0.04102">
        <ele>1021</ele>
        <time>2018-06-21T20:44:43Z</time>
      </trkpt>
      <trkpt lat="42.98765" lon="-0.04086">
        <ele>1024</ele>
        <time>2018-06-21T20:45:43Z</time>
      </trkpt>
      <trkpt lat="42.98751" lon="-0.04071">
        <ele>1025</ele>
        <time>2018-06-21T20:47:43Z</time>
      </trkpt>
      <trkpt lat="42.98736" lon="-0.04053">
        <ele>1029</ele>
        <time>2018-06-21T20:48:43Z</time>
      </trkpt>
      <trkpt lat="42.98684" lon="-0.04029">
        <ele>1032</ele>
        <time>2018-06-21T20:50:43Z</time>
      </trkpt>
      <trkpt lat="42.98627" lon="-0.04003">
        <ele>1041</ele>
        <time>2018-06-21T20:52:43Z</time>
      </trkpt>
      <trkpt lat="42.98608" lon="-0.03996">
        <ele>1045</ele>
        <time>2018-06-21T20:53:43Z</time>
      </trkpt>
      <trkpt lat="42.98573" lon="-0.03989">
        <ele>1048</ele>
        <time>2018-06-21T20:54:43Z</time>
      </trkpt>
      <trkpt lat="42.98556" lon="-0.03984">
        <ele>1048</ele>
        <time>2018-06-21T20:55:43Z</time>
      </trkpt>
      <trkpt lat="42.9853" lon="-0.03967">
        <ele>1050</ele>
        <time>2018-06-21T20:58:43Z</time>
      </trkpt>
      <trkpt lat="42.98516" lon="-0.0395">
        <ele>1053</ele>
        <time>2018-06-21T20:59:43Z</time>
      </trkpt>
      <trkpt lat="42.98504" lon="-0.03934">
        <ele>1056</ele>
        <time>2018-06-21T21:00:43Z</time>
      </trkpt>
      <trkpt lat="42.9848" lon="-0.03901">
        <ele>1062</ele>
        <time>2018-06-21T21:01:43Z</time>
      </trkpt>
      <trkpt lat="42.98455" lon="-0.03881">
        <ele>1065</ele>
        <time>2018-06-21T21:02:43Z</time>
      </trkpt>
      <trkpt lat="42.98455" lon="-0.03881">
        <ele>1065</ele>
        <time>2018-06-21T21:03:43Z</time>
      </trkpt>
      <trkpt lat="42.98422" lon="-0.03866">
        <ele>1065</ele>
        <time>2018-06-21T21:05:43Z</time>
      </trkpt>
      <trkpt lat="42.98392" lon="-0.03853">
        <ele>1065</ele>
        <time>2018-06-21T21:08:43Z</time>
      </trkpt>
      <trkpt lat="42.98341" lon="-0.03808">
        <ele>1072</ele>
        <time>2018-06-21T21:10:43Z</time>
      </trkpt>
      <trkpt lat="42.98327" lon="-0.03787">
        <ele>1076</ele>
        <time>2018-06-21T21:12:43Z</time>
      </trkpt>
      <trkpt lat="42.98313" lon="-0.03766">
        <ele>1080</ele>
        <time>2018-06-21T21:13:43Z</time>
      </trkpt>
      <trkpt lat="42.98298" lon="-0.03743">
        <ele>1083</ele>
        <time>2018-06-21T21:14:43Z</time>
      </trkpt>
      <trkpt lat="42.98274" lon="-0.0371">
        <ele>1088</ele>
        <time>2018-06-21T21:15:43Z</time>
      </trkpt>
      <trkpt lat="42.98269" lon="-0.03704">
        <ele>1089</ele>
        <time>2018-06-21T21:17:43Z</time>
      </trkpt>
      <trkpt lat="42.98237" lon="-0.0368">
        <ele>1089</ele>
        <time>2018-06-21T21:20:43Z</time>
      </trkpt>
      <trkpt lat="42.98189" lon="-0.03615">
        <ele>1093</ele>
        <time>2018-06-21T21:24:43Z</time>
      </trkpt>
      <trkpt lat="42.98182" lon="-0.03585">
        <ele>1097</ele>
        <time>2018-06-21T21:27:43Z</time>
      </trkpt>
      <trkpt lat="42.98181" lon="-0.03558">
        <ele>1102</ele>
        <time>2018-06-21T21:30:43Z</time>
      </trkpt>
      <trkpt lat="42.98187" lon="-0.03532">
        <ele>1108</ele>
        <time>2018-06-21T21:32:43Z</time>
      </trkpt>
      <trkpt lat="42.98188" lon="-0.03519">
        <ele>1111</ele>
        <time>2018-06-21T21:33:43Z</time>
      </trkpt>
      <trkpt lat="42.98181" lon="-0.03493">
        <ele>1115</ele>
        <time>2018-06-21T21:35:43Z</time>
      </trkpt>
      <trkpt lat="42.98177" lon="-0.03488">
        <ele>1115</ele>
        <time>2018-06-21T21:36:43Z</time>
      </trkpt>
      <trkpt lat="42.98148" lon="-0.03452">
        <ele>1119</ele>
        <time>2018-06-21T21:38:43Z</time>
      </trkpt>
      <trkpt lat="42.98122" lon="-0.03418">
        <ele>1122</ele>
        <time>2018-06-21T21:40:43Z</time>
      </trkpt>
      <trkpt lat="42.98115" lon="-0.03402">
        <ele>1125</ele>
        <time>2018-06-21T21:41:43Z</time>
      </trkpt>
      <trkpt lat="42.98092" lon="-0.03349">
        <ele>1131</ele>
        <time>2018-06-21T21:42:43Z</time>
      </trkpt>
      <trkpt lat="42.98065" lon="-0.03269">
        <ele>1138</ele>
        <time>2018-06-21T21:44:43Z</time>
      </trkpt>
      <trkpt lat="42.9806" lon="-0.03247">
        <ele>1141</ele>
        <time>2018-06-21T21:45:43Z</time>
      </trkpt>
      <trkpt lat="42.9806" lon="-0.03246">
        <ele>1141</ele>
        <time>2018-06-21T21:46:43Z</time>
      </trkpt>
      <trkpt lat="42.98054" lon="-0.03217">
        <ele>1146</ele>
        <time>2018-06-21T21:47:43Z</time>
      </trkpt>
      <trkpt lat="42.98048" lon="-0.03195">
        <ele>1150</ele>
        <time>2018-06-21T21:48:43Z</time>
      </trkpt>
      <trkpt lat="42.98047" lon="-0.03193">
        <ele>1150</ele>
        <time>2018-06-21T21:49:43Z</time>
      </trkpt>
      <trkpt lat="42.98031" lon="-0.03169">
        <ele>1152</ele>
        <time>2018-06-21T21:52:43Z</time>
      </trkpt>
      <trkpt lat="42.97947" lon="-0.03147">
        <ele>1149</ele>
        <time>2018-06-21T21:55:43Z</time>
      </trkpt>
      <trkpt lat="42.97926" lon="-0.0314">
        <ele>1149</ele>
        <time>2018-06-21T21:56:43Z</time>
      </trkpt>
      <trkpt lat="42.97904" lon="-0.03123">
        <ele>1149</ele>
        <time>2018-06-21T21:59:43Z</time>
      </trkpt>
      <trkpt lat="42.97898" lon="-0.03103">
        <ele>1153</ele>
        <time>2018-06-21T22:02:43Z</time>
      </trkpt>
      <trkpt lat="42.97902" lon="-0.03096">
        <ele>1156</ele>
        <time>2018-06-21T22:03:43Z</time>
      </trkpt>
      <trkpt lat="42.97911" lon="-0.03094">
        <ele>1159</ele>
        <time>2018-06-21T22:05:43Z</time>
      </trkpt>
      <trkpt lat="42.97945" lon="-0.0311">
        <ele>1160</ele>
        <time>2018-06-21T22:09:43Z</time>
      </trkpt>
      <trkpt lat="42.9797" lon="-0.03111">
        <ele>1163</ele>
        <time>2018-06-21T22:12:43Z</time>
      </trkpt>
      <trkpt lat="42.97973" lon="-0.03105">
        <ele>1165</ele>
        <time>2018-06-21T22:14:43Z</time>
      </trkpt>
      <trkpt lat="42.9797" lon="-0.03095">
        <ele>1168</ele>
        <time>2018-06-21T22:15:43Z</time>
      </trkpt>
      <trkpt lat="42.97951" lon="-0.03083">
        <ele>1169</ele>
        <time>2018-06-21T22:17:43Z</time>
      </trkpt>
      <trkpt lat="42.97937" lon="-0.03074">
        <ele>1169</ele>
        <time>2018-06-21T22:19:43Z</time>
      </trkpt>
      <trkpt lat="42.97909" lon="-0.03043">
        <ele>1171</ele>
        <time>2018-06-21T22:22:43Z</time>
      </trkpt>
      <trkpt lat="42.97904" lon="-0.03022">
        <ele>1174</ele>
        <time>2018-06-21T22:24:43Z</time>
      </trkpt>
      <trkpt lat="42.97903" lon="-0.03021">
        <ele>1174</ele>
        <time>2018-06-21T22:25:43Z</time>
      </trkpt>
      <trkpt lat="42.97901" lon="-0.03005">
        <ele>1177</ele>
        <time>2018-06-21T22:26:43Z</time>
      </trkpt>
      <trkpt lat="42.97904" lon="-0.02963">
        <ele>1179</ele>
        <time>2018-06-21T22:29:43Z</time>
      </trkpt>
      <trkpt lat="42.97915" lon="-0.02925">
        <ele>1183</ele>
        <time>2018-06-21T22:32:43Z</time>
      </trkpt>
      <trkpt lat="42.97921" lon="-0.02908">
        <ele>1183</ele>
        <time>2018-06-21T22:33:43Z</time>
      </trkpt>
      <trkpt lat="42.97922" lon="-0.02869">
        <ele>1181</ele>
        <time>2018-06-21T22:36:43Z</time>
      </trkpt>
      <trkpt lat="42.97917" lon="-0.02841">
        <ele>1178</ele>
        <time>2018-06-21T22:38:43Z</time>
      </trkpt>
      <trkpt lat="42.97914" lon="-0.02831">
        <ele>1178</ele>
        <time>2018-06-21T22:39:43Z</time>
      </trkpt>
      <trkpt lat="42.97891" lon="-0.02786">
        <ele>1180</ele>
        <time>2018-06-21T22:42:43Z</time>
      </trkpt>
      <trkpt lat="42.97869" lon="-0.02716">
        <ele>1187</ele>
        <time>2018-06-21T22:45:43Z</time>
      </trkpt>
      <trkpt lat="42.9786" lon="-0.0269">
        <ele>1190</ele>
        <time>2018-06-21T22:47:43Z</time>
      </trkpt>
      <trkpt lat="42.97849" lon="-0.02653">
        <ele>1194</ele>
        <time>2018-06-21T22:48:43Z</time>
      </trkpt>
      <trkpt lat="42.97846" lon="-0.02633">
        <ele>1197</ele>
        <time>2018-06-21T22:50:43Z</time>
      </trkpt>
      <trkpt lat="42.97848" lon="-0.02613">
        <ele>1201</ele>
        <time>2018-06-21T22:52:43Z</time>
      </trkpt>
      <trkpt lat="42.97855" lon="-0.02594">
        <ele>1204</ele>
        <time>2018-06-21T22:53:43Z</time>
      </trkpt>
      <trkpt lat="42.97874" lon="-0.0255">
        <ele>1211</ele>
        <time>2018-06-21T22:54:43Z</time>
      </trkpt>
      <trkpt lat="42.97889" lon="-0.02522">
        <ele>1214</ele>
        <time>2018-06-21T22:55:43Z</time>
      </trkpt>
      <trkpt lat="42.97895" lon="-0.02494">
        <ele>1216</ele>
        <time>2018-06-21T22:57:43Z</time>
      </trkpt>
      <trkpt lat="42.97885" lon="-0.02464">
        <ele>1219</ele>
        <time>2018-06-21T22:59:43Z</time>
      </trkpt>
      <trkpt lat="42.9787" lon="-0.02456">
        <ele>1220</ele>
        <time>2018-06-21T23:01:43Z</time>
      </trkpt>
      <trkpt lat="42.97844" lon="-0.02491">
        <ele>1217</ele>
        <time>2018-06-21T23:05:43Z</time>
      </trkpt>
      <trkpt lat="42.97836" lon="-0.02503">
        <ele>1216</ele>
        <time>2018-06-21T23:07:43Z</time>
      </trkpt>
      <trkpt lat="42.97812" lon="-0.02528">
        <ele>1216</ele>
        <time>2018-06-21T23:10:43Z</time>
      </trkpt>
      <trkpt lat="42.97757" lon="-0.02569">
        <ele>1218</ele>
        <time>2018-06-21T23:13:43Z</time>
      </trkpt>
      <trkpt lat="42.97704" lon="-0.02613">
        <ele>1217</ele>
        <time>2018-06-21T23:16:43Z</time>
      </trkpt>
      <trkpt lat="42.97672" lon="-0.02622">
        <ele>1221</ele>
        <time>2018-06-21T23:19:43Z</time>
      </trkpt>
      <trkpt lat="42.97653" lon="-0.02604">
        <ele>1225</ele>
        <time>2018-06-21T23:22:43Z</time>
      </trkpt>
      <trkpt lat="42.97633" lon="-0.02568">
        <ele>1231</ele>
        <time>2018-06-21T23:24:43Z</time>
      </trkpt>
      <trkpt lat="42.97626" lon="-0.02557">
        <ele>1234</ele>
        <time>2018-06-21T23:25:43Z</time>
      </trkpt>
      <trkpt lat="42.97609" lon="-0.02541">
        <ele>1238</ele>
        <time>2018-06-21T23:27:43Z</time>
      </trkpt>
      <trkpt lat="42.97602" lon="-0.02538">
        <ele>1238</ele>
        <time>2018-06-21T23:28:43Z</time>
      </trkpt>
      <trkpt lat="42.97565" lon="-0.02541">
        <ele>1240</ele>
        <time>2018-06-21T23:32:43Z</time>
      </trkpt>
      <trkpt lat="42.97544" lon="-0.02548">
        <ele>1243</ele>
        <time>2018-06-21T23:34:43Z</time>
      </trkpt>
      <trkpt lat="42.97507" lon="-0.02564">
        <ele>1246</ele>
        <time>2018-06-21T23:37:43Z</time>
      </trkpt>
      <trkpt lat="42.97469" lon="-0.02604">
        <ele>1249</ele>
        <time>2018-06-21T23:40:43Z</time>
      </trkpt>
      <trkpt lat="42.97453" lon="-0.02625">
        <ele>1249</ele>
        <time>2018-06-21T23:41:43Z</time>
      </trkpt>
      <trkpt lat="42.97392" lon="-0.02703">
        <ele>1246</ele>
        <time>2018-06-21T23:45:43Z</time>
      </trkpt>
      <trkpt lat="42.97361" lon="-0.02747">
        <ele>1243</ele>
        <time>2018-06-21T23:46:43Z</time>
      </trkpt>
      <trkpt lat="42.97344" lon="-0.02762">
        <ele>1242</ele>
        <time>2018-06-21T23:48:43Z</time>
      </trkpt>
      <trkpt lat="42.97331" lon="-0.02763">
        <ele>1245</ele>
        <time>2018-06-21T23:50:43Z</time>
      </trkpt>
      <trkpt lat="42.97331" lon="-0.02763">
        <ele>1245</ele>
        <time>2018-06-21T23:51:43Z</time>
      </trkpt>
      <trkpt lat="42.97321" lon="-0.02746">
        <ele>1249</ele>
        <time>2018-06-21T23:54:43Z</time>
      </trkpt>
      <trkpt lat="42.97323" lon="-0.02708">
        <ele>1255</ele>
        <time>2018-06-21T23:56:43Z</time>
      </trkpt>
      <trkpt lat="42.97325" lon="-0.02674">
        <ele>1261</ele>
        <time>2018-06-21T23:57:43Z</time>
      </trkpt>
      <trkpt lat="42.97325" lon="-0.02651">
        <ele>1264</ele>
        <time>2018-06-21T23:58:43Z</time>
      </trkpt>
      <trkpt lat="42.97326" lon="-0.02602">
        <ele>1272</ele>
        <time>2018-06-21T23:59:43Z</time>
      </trkpt>
      <trkpt lat="42.9732" lon="-0.02561">
        <ele>1276</ele>
        <time>2018-06-22T00:01:43Z</time>
      </trkpt>
      <trkpt lat="42.97314" lon="-0.02541">
        <ele>1277</ele>
        <time>2018-06-22T00:03:43Z</time>
      </trkpt>
      <trkpt lat="42.97306" lon="-0.02506">
        <ele>1280</ele>
        <time>2018-06-22T00:05:43Z</time>
      </trkpt>
      <trkpt lat="42.973" lon="-0.02449">
        <ele>1285</ele>
        <time>2018-06-22T00:07:43Z</time>
      </trkpt>
      <trkpt lat="42.97291" lon="-0.02395">
        <ele>1291</ele>
        <time>2018-06-22T00:09:43Z</time>
      </trkpt>
      <trkpt lat="42.97279" lon="-0.02347">
        <ele>1296</ele>
        <time>2018-06-22T00:11:43Z</time>
      </trkpt>
      <trkpt lat="42.97273" lon="-0.02305">
        <ele>1301</ele>
        <time>2018-06-22T00:13:43Z</time>
      </trkpt>
      <trkpt lat="42.97262" lon="-0.02256">
        <ele>1307</ele>
        <time>2018-06-22T00:15:43Z</time>
      </trkpt>
      <trkpt lat="42.97258" lon="-0.02239">
        <ele>1309</ele>
        <time>2018-06-22T00:17:43Z</time>
      </trkpt>
      <trkpt lat="42.97252" lon="-0.0221">
        <ele>1313</ele>
        <time>2018-06-22T00:19:43Z</time>
      </trkpt>
      <trkpt lat="42.97245" lon="-0.02182">
        <ele>1316</ele>
        <time>2018-06-22T00:21:43Z</time>
      </trkpt>
      <trkpt lat="42.97217" lon="-0.02142">
        <ele>1318</ele>
        <time>2018-06-22T00:24:43Z</time>
      </trkpt>
      <trkpt lat="42.97202" lon="-0.02097">
        <ele>1322</ele>
        <time>2018-06-22T00:27:43Z</time>
      </trkpt>
      <trkpt lat="42.97198" lon="-0.02062">
        <ele>1325</ele>
        <time>2018-06-22T00:29:43Z</time>
      </trkpt>
      <trkpt lat="42.97197" lon="-0.0203">
        <ele>1329</ele>
        <time>2018-06-22T00:30:43Z</time>
      </trkpt>
      <trkpt lat="42.97197" lon="-0.02">
        <ele>1332</ele>
        <time>2018-06-22T00:31:43Z</time>
      </trkpt>
      <trkpt lat="42.9719" lon="-0.01947">
        <ele>1336</ele>
        <time>2018-06-22T00:33:43Z</time>
      </trkpt>
      <trkpt lat="42.97173" lon="-0.01884">
        <ele>1339</ele>
        <time>2018-06-22T00:36:43Z</time>
      </trkpt>
      <trkpt lat="42.97171" lon="-0.01877">
        <ele>1339</ele>
        <time>2018-06-22T00:37:43Z</time>
      </trkpt>
      <trkpt lat="42.97169" lon="-0.01835">
        <ele>1342</ele>
        <time>2018-06-22T00:40:43Z</time>
      </trkpt>
      <trkpt lat="42.97176" lon="-0.0181">
        <ele>1346</ele>
        <time>2018-06-22T00:42:43Z</time>
      </trkpt>
      <trkpt lat="42.9719" lon="-0.01794">
        <ele>1350</ele>
        <time>2018-06-22T00:44:43Z</time>
      </trkpt>
      <trkpt lat="42.972" lon="-0.01791">
        <ele>1353</ele>
        <time>2018-06-22T00:45:43Z</time>
      </trkpt>
      <trkpt lat="42.97218" lon="-0.01796">
        <ele>1356</ele>
        <time>2018-06-22T00:47:43Z</time>
      </trkpt>
      <trkpt lat="42.97222" lon="-0.01804">
        <ele>1356</ele>
        <time>2018-06-22T00:48:43Z</time>
      </trkpt>
      <trkpt lat="42.97237" lon="-0.01872">
        <ele>1354</ele>
        <time>2018-06-22T00:50:43Z</time>
      </trkpt>
      <trkpt lat="42.97267" lon="-0.01911">
        <ele>1357</ele>
        <time>2018-06-22T00:53:43Z</time>
      </trkpt>
      <trkpt lat="42.97298" lon="-0.01937">
        <ele>1362</ele>
        <time>2018-06-22T00:55:43Z</time>
      </trkpt>
      <trkpt lat="42.97312" lon="-0.01948">
        <ele>1363</ele>
        <time>2018-06-22T00:57:43Z</time>
      </trkpt>
      <trkpt lat="42.97325" lon="-0.01953">
        <ele>1366</ele>
        <time>2018-06-22T00:58:43Z</time>
      </trkpt>
      <trkpt lat="42.97344" lon="-0.01949">
        <ele>1368</ele>
        <time>2018-06-22T01:00:43Z</time>
      </trkpt>
      <trkpt lat="42.9737" lon="-0.01926">
        <ele>1370</ele>
        <time>2018-06-22T01:02:43Z</time>
      </trkpt>
      <trkpt lat="42.97384" lon="-0.01906">
        <ele>1372</ele>
        <time>2018-06-22T01:04:43Z</time>
      </trkpt>
      <trkpt lat="42.974" lon="-0.0187">
        <ele>1375</ele>
        <time>2018-06-22T01:07:43Z</time>
      </trkpt>
      <trkpt lat="42.9741" lon="-0.01837">
        <ele>1379</ele>
        <time>2018-06-22T01:09:43Z</time>
      </trkpt>
      <trkpt lat="42.97423" lon="-0.01815">
        <ele>1382</ele>
        <time>2018-06-22T01:12:43Z</time>
      </trkpt>
      <trkpt lat="42.97484" lon="-0.0177">
        <ele>1388</ele>
        <time>2018-06-22T01:14:43Z</time>
      </trkpt>
      <trkpt lat="42.97516" lon="-0.0175">
        <ele>1392</ele>
        <time>2018-06-22T01:16:43Z</time>
      </trkpt>
      <trkpt lat="42.97549" lon="-0.01728">
        <ele>1395</ele>
        <time>2018-06-22T01:18:43Z</time>
      </trkpt>
      <trkpt lat="42.97579" lon="-0.01699">
        <ele>1399</ele>
        <time>2018-06-22T01:20:43Z</time>
      </trkpt>
      <trkpt lat="42.97592" lon="-0.01681">
        <ele>1400</ele>
        <time>2018-06-22T01:22:43Z</time>
      </trkpt>
      <trkpt lat="42.97604" lon="-0.0165">
        <ele>1403</ele>
        <time>2018-06-22T01:24:43Z</time>
      </trkpt>
      <trkpt lat="42.97623" lon="-0.01593">
        <ele>1406</ele>
        <time>2018-06-22T01:26:43Z</time>
      </trkpt>
      <trkpt lat="42.97644" lon="-0.0154">
        <ele>1411</ele>
        <time>2018-06-22T01:28:43Z</time>
      </trkpt>
      <trkpt lat="42.97655" lon="-0.01514">
        <ele>1414</ele>
        <time>2018-06-22T01:30:43Z</time>
      </trkpt>
      <trkpt lat="42.9767" lon="-0.01497">
        <ele>1415</ele>
        <time>2018-06-22T01:32:43Z</time>
      </trkpt>
      <trkpt lat="42.97702" lon="-0.01476">
        <ele>1416</ele>
        <time>2018-06-22T01:36:43Z</time>
      </trkpt>
      <trkpt lat="42.97738" lon="-0.01448">
        <ele>1416</ele>
        <time>2018-06-22T01:39:43Z</time>
      </trkpt>
      <trkpt lat="42.97738" lon="-0.01419">
        <ele>1420</ele>
        <time>2018-06-22T01:43:43Z</time>
      </trkpt>
      <trkpt lat="42.97725" lon="-0.01414">
        <ele>1423</ele>
        <time>2018-06-22T01:45:43Z</time>
      </trkpt>
      <trkpt lat="42.97684" lon="-0.0143">
        <ele>1426</ele>
        <time>2018-06-22T01:47:43Z</time>
      </trkpt>
      <trkpt lat="42.9762" lon="-0.01441">
        <ele>1432</ele>
        <time>2018-06-22T01:48:43Z</time>
      </trkpt>
      <trkpt lat="42.97571" lon="-0.01452">
        <ele>1434</ele>
        <time>2018-06-22T01:50:43Z</time>
      </trkpt>
      <trkpt lat="42.97524" lon="-0.01487">
        <ele>1432</ele>
        <time>2018-06-22T01:53:43Z</time>
      </trkpt>
      <trkpt lat="42.97498" lon="-0.01484">
        <ele>1434</ele>
        <time>2018-06-22T01:56:43Z</time>
      </trkpt>
      <trkpt lat="42.97486" lon="-0.0146">
        <ele>1437</ele>
        <time>2018-06-22T01:59:43Z</time>
      </trkpt>
      <trkpt lat="42.97492" lon="-0.01442">
        <ele>1440</ele>
        <time>2018-06-22T02:01:43Z</time>
      </trkpt>
      <trkpt lat="42.97524" lon="-0.01414">
        <ele>1443</ele>
        <time>2018-06-22T02:03:43Z</time>
      </trkpt>
      <trkpt lat="42.97559" lon="-0.01394">
        <ele>1446</ele>
        <time>2018-06-22T02:05:43Z</time>
      </trkpt>
      <trkpt lat="42.97601" lon="-0.01362">
        <ele>1451</ele>
        <time>2018-06-22T02:06:43Z</time>
      </trkpt>
      <trkpt lat="42.97628" lon="-0.0134">
        <ele>1455</ele>
        <time>2018-06-22T02:07:43Z</time>
      </trkpt>
      <trkpt lat="42.97673" lon="-0.0131">
        <ele>1458</ele>
        <time>2018-06-22T02:10:43Z</time>
      </trkpt>
      <trkpt lat="42.97693" lon="-0.01293">
        <ele>1458</ele>
        <time>2018-06-22T02:11:43Z</time>
      </trkpt>
      <trkpt lat="42.97724" lon="-0.01248">
        <ele>1460</ele>
        <time>2018-06-22T02:13:43Z</time>
      </trkpt>
      <trkpt lat="42.97735" lon="-0.01218">
        <ele>1460</ele>
        <time>2018-06-22T02:14:43Z</time>
      </trkpt>
      <trkpt lat="42.97733" lon="-0.01192">
        <ele>1464</ele>
        <time>2018-06-22T02:16:43Z</time>
      </trkpt>
      <trkpt lat="42.97726" lon="-0.01169">
        <ele>1469</ele>
        <time>2018-06-22T02:17:43Z</time>
      </trkpt>
      <trkpt lat="42.97709" lon="-0.01128">
        <ele>1475</ele>
        <time>2018-06-22T02:18:43Z</time>
      </trkpt>
      <trkpt lat="42.97691" lon="-0.01047">
        <ele>1480</ele>
        <time>2018-06-22T02:19:43Z</time>
      </trkpt>
      <trkpt lat="42.9768" lon="-0.01008">
        <ele>1483</ele>
        <time>2018-06-22T02:21:43Z</time>
      </trkpt>
      <trkpt lat="42.97666" lon="-0.00984">
        <ele>1488</ele>
        <time>2018-06-22T02:22:43Z</time>
      </trkpt>
      <trkpt lat="42.97659" lon="-0.0096">
        <ele>1491</ele>
        <time>2018-06-22T02:23:43Z</time>
      </trkpt>
      <trkpt lat="42.97659" lon="-0.00949">
        <ele>1491</ele>
        <time>2018-06-22T02:24:43Z</time>
      </trkpt>
      <trkpt lat="42.97672" lon="-0.00928">
        <ele>1488</ele>
        <time>2018-06-22T02:26:43Z</time>
      </trkpt>
      <trkpt lat="42.97701" lon="-0.00896">
        <ele>1487</ele>
        <time>2018-06-22T02:28:43Z</time>
      </trkpt>
      <trkpt lat="42.97702" lon="-0.00877">
        <ele>1490</ele>
        <time>2018-06-22T02:31:43Z</time>
      </trkpt>
      <trkpt lat="42.97691" lon="-0.00859">
        <ele>1494</ele>
        <time>2018-06-22T02:33:43Z</time>
      </trkpt>
      <trkpt lat="42.9767" lon="-0.00849">
        <ele>1499</ele>
        <time>2018-06-22T02:34:43Z</time>
      </trkpt>
      <trkpt lat="42.97659" lon="-0.00848">
        <ele>1502</ele>
        <time>2018-06-22T02:35:43Z</time>
      </trkpt>
      <trkpt lat="42.97642" lon="-0.00854">
        <ele>1506</ele>
        <time>2018-06-22T02:37:43Z</time>
      </trkpt>
      <trkpt lat="42.97628" lon="-0.00878">
        <ele>1507</ele>
        <time>2018-06-22T02:39:43Z</time>
      </trkpt>
      <trkpt lat="42.97626" lon="-0.00952">
        <ele>1502</ele>
        <time>2018-06-22T02:41:43Z</time>
      </trkpt>
      <trkpt lat="42.97622" lon="-0.01028">
        <ele>1501</ele>
        <time>2018-06-22T02:44:43Z</time>
      </trkpt>
      <trkpt lat="42.97611" lon="-0.0108">
        <ele>1504</ele>
        <time>2018-06-22T02:46:43Z</time>
      </trkpt>
      <trkpt lat="42.97593" lon="-0.0115">
        <ele>1505</ele>
        <time>2018-06-22T02:48:43Z</time>
      </trkpt>
      <trkpt lat="42.9756" lon="-0.01159">
        <ele>1505</ele>
        <time>2018-06-22T02:52:43Z</time>
      </trkpt>
      <trkpt lat="42.97543" lon="-0.01119">
        <ele>1508</ele>
        <time>2018-06-22T02:56:43Z</time>
      </trkpt>
      <trkpt lat="42.97547" lon="-0.01069">
        <ele>1513</ele>
        <time>2018-06-22T02:58:43Z</time>
      </trkpt>
      <trkpt lat="42.97547" lon="-0.01069">
        <ele>1513</ele>
        <time>2018-06-22T02:59:43Z</time>
      </trkpt>
      <trkpt lat="42.97513" lon="-0.01042">
        <ele>1517</ele>
        <time>2018-06-22T03:01:43Z</time>
      </trkpt>
      <trkpt lat="42.97478" lon="-0.01008">
        <ele>1520</ele>
        <time>2018-06-22T03:02:43Z</time>
      </trkpt>
      <trkpt lat="42.97468" lon="-0.01">
        <ele>1520</ele>
        <time>2018-06-22T03:03:43Z</time>
      </trkpt>
      <trkpt lat="42.97421" lon="-0.00954">
        <ele>1524</ele>
        <time>2018-06-22T03:05:43Z</time>
      </trkpt>
      <trkpt lat="42.97397" lon="-0.00932">
        <ele>1523</ele>
        <time>2018-06-22T03:06:43Z</time>
      </trkpt>
      <trkpt lat="42.9736" lon="-0.00892">
        <ele>1522</ele>
        <time>2018-06-22T03:09:43Z</time>
      </trkpt>
      <trkpt lat="42.97348" lon="-0.00869">
        <ele>1525</ele>
        <time>2018-06-22T03:10:43Z</time>
      </trkpt>
      <trkpt lat="42.97339" lon="-0.00857">
        <ele>1525</ele>
        <time>2018-06-22T03:11:43Z</time>
      </trkpt>
      <trkpt lat="42.97295" lon="-0.00808">
        <ele>1528</ele>
        <time>2018-06-22T03:13:43Z</time>
      </trkpt>
      <trkpt lat="42.97264" lon="-0.00749">
        <ele>1531</ele>
        <time>2018-06-22T03:15:43Z</time>
      </trkpt>
      <trkpt lat="42.97258" lon="-0.0074">
        <ele>1531</ele>
        <time>2018-06-22T03:16:43Z</time>
      </trkpt>
      <trkpt lat="42.97225" lon="-0.00735">
        <ele>1530</ele>
        <time>2018-06-22T03:20:43Z</time>
      </trkpt>
      <trkpt lat="42.97216" lon="-0.00762">
        <ele>1526</ele>
        <time>2018-06-22T03:22:43Z</time>
      </trkpt>
      <trkpt lat="42.97214" lon="-0.00803">
        <ele>1522</ele>
        <time>2018-06-22T03:24:43Z</time>
      </trkpt>
      <trkpt lat="42.97215" lon="-0.00827">
        <ele>1519</ele>
        <time>2018-06-22T03:26:43Z</time>
      </trkpt>
      <trkpt lat="42.97205" lon="-0.00865">
        <ele>1515</ele>
        <time>2018-06-22T03:28:43Z</time>
      </trkpt>
      <trkpt lat="42.972" lon="-0.009">
        <ele>1512</ele>
        <time>2018-06-22T03:29:43Z</time>
      </trkpt>
      <trkpt lat="42.97197" lon="-0.0091">
        <ele>1511</ele>
        <time>2018-06-22T03:31:43Z</time>
      </trkpt>
      <trkpt lat="42.97178" lon="-0.00944">
        <ele>1509</ele>
        <time>2018-06-22T03:34:43Z</time>
      </trkpt>
      <trkpt lat="42.97164" lon="-0.00957">
        <ele>1509</ele>
        <time>2018-06-22T03:38:43Z</time>
      </trkpt>
      <trkpt lat="42.97189" lon="-0.00931">
        <ele>1509</ele>
        <time>2018-06-22T03:42:43Z</time>
      </trkpt>
      <trkpt lat="42.97197" lon="-0.0091">
        <ele>1511</ele>
        <time>2018-06-22T03:44:43Z</time>
      </trkpt>
      <trkpt lat="42.97205" lon="-0.00865">
        <ele>1515</ele>
        <time>2018-06-22T03:46:43Z</time>
      </trkpt>
      <trkpt lat="42.97211" lon="-0.00842">
        <ele>1518</ele>
        <time>2018-06-22T03:47:43Z</time>
      </trkpt>
      <trkpt lat="42.97214" lon="-0.00803">
        <ele>1522</ele>
        <time>2018-06-22T03:50:43Z</time>
      </trkpt>
      <trkpt lat="42.97216" lon="-0.00762">
        <ele>1526</ele>
        <time>2018-06-22T03:52:43Z</time>
      </trkpt>
      <trkpt lat="42.97225" lon="-0.00735">
        <ele>1530</ele>
        <time>2018-06-22T03:54:43Z</time>
      </trkpt>
      <trkpt lat="42.97237" lon="-0.00733">
        <ele>1530</ele>
        <time>2018-06-22T03:55:43Z</time>
      </trkpt>
      <trkpt lat="42.97264" lon="-0.00749">
        <ele>1531</ele>
        <time>2018-06-22T03:59:43Z</time>
      </trkpt>
      <trkpt lat="42.97295" lon="-0.00808">
        <ele>1528</ele>
        <time>2018-06-22T04:01:43Z</time>
      </trkpt>
      <trkpt lat="42.97339" lon="-0.00857">
        <ele>1525</ele>
        <time>2018-06-22T04:03:43Z</time>
      </trkpt>
      <trkpt lat="42.97348" lon="-0.00869">
        <ele>1525</ele>
        <time>2018-06-22T04:04:43Z</time>
      </trkpt>
      <trkpt lat="42.9736" lon="-0.00892">
        <ele>1522</ele>
        <time>2018-06-22T04:05:43Z</time>
      </trkpt>
      <trkpt lat="42.97397" lon="-0.00932">
        <ele>1523</ele>
        <time>2018-06-22T04:09:43Z</time>
      </trkpt>
      <trkpt lat="42.97416" lon="-0.00929">
        <ele>1528</ele>
        <time>2018-06-22T04:11:43Z</time>
      </trkpt>
      <trkpt lat="42.9745" lon="-0.00949">
        <ele>1527</ele>
        <time>2018-06-22T04:12:43Z</time>
      </trkpt>
      <trkpt lat="42.97471" lon="-0.0095">
        <ele>1528</ele>
        <time>2018-06-22T04:14:43Z</time>
      </trkpt>
      <trkpt lat="42.97494" lon="-0.00936">
        <ele>1531</ele>
        <time>2018-06-22T04:16:43Z</time>
      </trkpt>
      <trkpt lat="42.97522" lon="-0.00905">
        <ele>1532</ele>
        <time>2018-06-22T04:18:43Z</time>
      </trkpt>
      <trkpt lat="42.97532" lon="-0.00856">
        <ele>1534</ele>
        <time>2018-06-22T04:22:43Z</time>
      </trkpt>
      <trkpt lat="42.97515" lon="-0.00847">
        <ele>1539</ele>
        <time>2018-06-22T04:24:43Z</time>
      </trkpt>
      <trkpt lat="42.97503" lon="-0.00847">
        <ele>1542</ele>
        <time>2018-06-22T04:25:43Z</time>
      </trkpt>
      <trkpt lat="42.97457" lon="-0.00836">
        <ele>1545</ele>
        <time>2018-06-22T04:28:43Z</time>
      </trkpt>
      <trkpt lat="42.97423" lon="-0.0081">
        <ele>1550</ele>
        <time>2018-06-22T04:30:43Z</time>
      </trkpt>
      <trkpt lat="42.9741" lon="-0.00804">
        <ele>1550</ele>
        <time>2018-06-22T04:31:43Z</time>
      </trkpt>
      <trkpt lat="42.974" lon="-0.00787">
        <ele>1552</ele>
        <time>2018-06-22T04:34:43Z</time>
      </trkpt>
      <trkpt lat="42.97407" lon="-0.00782">
        <ele>1555</ele>
        <time>2018-06-22T04:36:43Z</time>
      </trkpt>
      <trkpt lat="42.97447" lon="-0.00769">
        <ele>1557</ele>
        <time>2018-06-22T04:38:43Z</time>
      </trkpt>
      <trkpt lat="42.97473" lon="-0.00731">
        <ele>1562</ele>
        <time>2018-06-22T04:40:43Z</time>
      </trkpt>
      <trkpt lat="42.97495" lon="-0.00697">
        <ele>1565</ele>
        <time>2018-06-22T04:42:43Z</time>
      </trkpt>
      <trkpt lat="42.97496" lon="-0.00681">
        <ele>1568</ele>
        <time>2018-06-22T04:45:43Z</time>
      </trkpt>
      <trkpt lat="42.9749" lon="-0.00678">
        <ele>1569</ele>
        <time>2018-06-22T04:47:43Z</time>
      </trkpt>
      <trkpt lat="42.97469" lon="-0.00698">
        <ele>1568</ele>
        <time>2018-06-22T04:50:43Z</time>
      </trkpt>
      <trkpt lat="42.9744" lon="-0.00702">
        <ele>1571</ele>
        <time>2018-06-22T04:53:43Z</time>
      </trkpt>
      <trkpt lat="42.97417" lon="-0.00698">
        <ele>1574</ele>
        <time>2018-06-22T04:54:43Z</time>
      </trkpt>
      <trkpt lat="42.97404" lon="-0.00695">
        <ele>1573</ele>
        <time>2018-06-22T04:55:43Z</time>
      </trkpt>
      <trkpt lat="42.97359" lon="-0.00661">
        <ele>1575</ele>
        <time>2018-06-22T04:58:43Z</time>
      </trkpt>
      <trkpt lat="42.97347" lon="-0.00638">
        <ele>1579</ele>
        <time>2018-06-22T04:59:43Z</time>
      </trkpt>
      <trkpt lat="42.97341" lon="-0.0062">
        <ele>1582</ele>
        <time>2018-06-22T05:00:43Z</time>
      </trkpt>
      <trkpt lat="42.97334" lon="-0.006">
        <ele>1586</ele>
        <time>2018-06-22T05:01:43Z</time>
      </trkpt>
      <trkpt lat="42.97325" lon="-0.00582">
        <ele>1589</ele>
        <time>2018-06-22T05:03:43Z</time>
      </trkpt>
      <trkpt lat="42.9731" lon="-0.00561">
        <ele>1592</ele>
        <time>2018-06-22T05:05:43Z</time>
      </trkpt>
      <trkpt lat="42.97276" lon="-0.00527">
        <ele>1596</ele>
        <time>2018-06-22T05:07:43Z</time>
      </trkpt>
      <trkpt lat="42.97243" lon="-0.00484">
        <ele>1602</ele>
        <time>2018-06-22T05:08:43Z</time>
      </trkpt>
      <trkpt lat="42.97223" lon="-0.00457">
        <ele>1606</ele>
        <time>2018-06-22T05:09:43Z</time>
      </trkpt>
      <trkpt lat="42.97192" lon="-0.00418">
        <ele>1611</ele>
        <time>2018-06-22T05:10:43Z</time>
      </trkpt>
      <trkpt lat="42.97165" lon="-0.00365">
        <ele>1615</ele>
        <time>2018-06-22T05:12:43Z</time>
      </trkpt>
      <trkpt lat="42.97157" lon="-0.00348">
        <ele>1618</ele>
        <time>2018-06-22T05:13:43Z</time>
      </trkpt>
      <trkpt lat="42.97156" lon="-0.00347">
        <ele>1618</ele>
        <time>2018-06-22T05:14:43Z</time>
      </trkpt>
      <trkpt lat="42.97147" lon="-0.00319">
        <ele>1620</ele>
        <time>2018-06-22T05:16:43Z</time>
      </trkpt>
      <trkpt lat="42.97145" lon="-0.0031">
        <ele>1620</ele>
        <time>2018-06-22T05:19:43Z</time>
      </trkpt>
      <trkpt lat="42.97117" lon="-0.00288">
        <ele>1620</ele>
        <time>2018-06-22T05:23:43Z</time>
      </trkpt>
      <trkpt lat="42.97086" lon="-0.00278">
        <ele>1623</ele>
        <time>2018-06-22T05:27:43Z</time>
      </trkpt>
      <trkpt lat="42.97065" lon="-0.00281">
        <ele>1628</ele>
        <time>2018-06-22T05:29:43Z</time>
      </trkpt>
      <trkpt lat="42.97046" lon="-0.00296">
        <ele>1633</ele>
        <time>2018-06-22T05:31:43Z</time>
      </trkpt>
      <trkpt lat="42.97038" lon="-0.00307">
        <ele>1636</ele>
        <time>2018-06-22T05:32:43Z</time>
      </trkpt>
      <trkpt lat="42.97026" lon="-0.00328">
        <ele>1639</ele>
        <time>2018-06-22T05:34:43Z</time>
      </trkpt>
      <trkpt lat="42.97019" lon="-0.00347">
        <ele>1639</ele>
        <time>2018-06-22T05:35:43Z</time>
      </trkpt>
      <trkpt lat="42.97015" lon="-0.00357">
        <ele>1638</ele>
        <time>2018-06-22T05:37:43Z</time>
      </trkpt>
      <trkpt lat="42.96996" lon="-0.0039">
        <ele>1637</ele>
        <time>2018-06-22T05:39:43Z</time>
      </trkpt>
      <trkpt lat="42.96966" lon="-0.00414">
        <ele>1641</ele>
        <time>2018-06-22T05:41:43Z</time>
      </trkpt>
      <trkpt lat="42.96925" lon="-0.00436">
        <ele>1646</ele>
        <time>2018-06-22T05:43:43Z</time>
      </trkpt>
      <trkpt lat="42.96907" lon="-0.00444">
        <ele>1647</ele>
        <time>2018-06-22T05:45:43Z</time>
      </trkpt>
      <trkpt lat="42.96869" lon="-0.00459">
        <ele>1650</ele>
        <time>2018-06-22T05:49:43Z</time>
      </trkpt>
      <trkpt lat="42.96837" lon="-0.00476">
        <ele>1653</ele>
        <time>2018-06-22T05:52:43Z</time>
      </trkpt>
      <trkpt lat="42.96814" lon="-0.00505">
        <ele>1649</ele>
        <time>2018-06-22T05:55:43Z</time>
      </trkpt>
      <trkpt lat="42.96796" lon="-0.00535">
        <ele>1648</ele>
        <time>2018-06-22T05:57:43Z</time>
      </trkpt>
      <trkpt lat="42.96772" lon="-0.00578">
        <ele>1651</ele>
        <time>2018-06-22T06:01:43Z</time>
      </trkpt>
      <trkpt lat="42.9676" lon="-0.00582">
        <ele>1654</ele>
        <time>2018-06-22T06:04:43Z</time>
      </trkpt>
      <trkpt lat="42.96769" lon="-0.00535">
        <ele>1652</ele>
        <time>2018-06-22T06:09:43Z</time>
      </trkpt>
      <trkpt lat="42.96791" lon="-0.00465">
        <ele>1654</ele>
        <time>2018-06-22T06:15:43Z</time>
      </trkpt>
      <trkpt lat="42.9679" lon="-0.00448">
        <ele>1655</ele>
        <time>2018-06-22T06:17:43Z</time>
      </trkpt>
      <trkpt lat="42.96798" lon="-0.00409">
        <ele>1659</ele>
        <time>2018-06-22T06:20:43Z</time>
      </trkpt>
      <trkpt lat="42.96804" lon="-0.00394">
        <ele>1662</ele>
        <time>2018-06-22T06:21:43Z</time>
      </trkpt>
      <trkpt lat="42.96816" lon="-0.00362">
        <ele>1667</ele>
        <time>2018-06-22T06:23:43Z</time>
      </trkpt>
      <trkpt lat="42.96824" lon="-0.00351">
        <ele>1670</ele>
        <time>2018-06-22T06:24:43Z</time>
      </trkpt>
      <trkpt lat="42.96831" lon="-0.00337">
        <ele>1674</ele>
        <time>2018-06-22T06:26:43Z</time>
      </trkpt>
      <trkpt lat="42.96839" lon="-0.00311">
        <ele>1675</ele>
        <time>2018-06-22T06:28:43Z</time>
      </trkpt>
      <trkpt lat="42.96845" lon="-0.00229">
        <ele>1673</ele>
        <time>2018-06-22T06:31:43Z</time>
      </trkpt>
      <trkpt lat="42.96847" lon="-0.00144">
        <ele>1672</ele>
        <time>2018-06-22T06:33:43Z</time>
      </trkpt>
      <trkpt lat="42.96858" lon="-0.00073">
        <ele>1675</ele>
        <time>2018-06-22T06:34:43Z</time>
      </trkpt>
      <trkpt lat="42.96863" lon="-0.00057">
        <ele>1674</ele>
        <time>2018-06-22T06:35:43Z</time>
      </trkpt>
      <trkpt lat="42.96876" lon="-0.00018">
        <ele>1673</ele>
        <time>2018-06-22T06:37:43Z</time>
      </trkpt>
      <trkpt lat="42.96872" lon="0.00038">
        <ele>1674</ele>
        <time>2018-06-22T06:39:43Z</time>
      </trkpt>
      <trkpt lat="42.9688" lon="0.00076">
        <ele>1677</ele>
        <time>2018-06-22T06:40:43Z</time>
      </trkpt>
      <trkpt lat="42.9688" lon="0.00085">
        <ele>1677</ele>
        <time>2018-06-22T06:41:43Z</time>
      </trkpt>
      <trkpt lat="42.9686" lon="0.00129">
        <ele>1675</ele>
        <time>2018-06-22T06:44:43Z</time>
      </trkpt>
      <trkpt lat="42.96848" lon="0.00165">
        <ele>1675</ele>
        <time>2018-06-22T06:47:43Z</time>
      </trkpt>
      <trkpt lat="42.9687" lon="0.00257">
        <ele>1677</ele>
        <time>2018-06-22T06:49:43Z</time>
      </trkpt>
      <trkpt lat="42.9688" lon="0.00273">
        <ele>1679</ele>
        <time>2018-06-22T06:51:43Z</time>
      </trkpt>
      <trkpt lat="42.969" lon="0.00293">
        <ele>1685</ele>
        <time>2018-06-22T06:52:43Z</time>
      </trkpt>
      <trkpt lat="42.96908" lon="0.0031">
        <ele>1688</ele>
        <time>2018-06-22T06:54:43Z</time>
      </trkpt>
      <trkpt lat="42.96901" lon="0.00348">
        <ele>1684</ele>
        <time>2018-06-22T06:56:43Z</time>
      </trkpt>
      <trkpt lat="42.96894" lon="0.0039">
        <ele>1679</ele>
        <time>2018-06-22T06:57:43Z</time>
      </trkpt>
      <trkpt lat="42.96893" lon="0.00444">
        <ele>1674</ele>
        <time>2018-06-22T06:59:43Z</time>
      </trkpt>
      <trkpt lat="42.96893" lon="0.00471">
        <ele>1670</ele>
        <time>2018-06-22T07:00:43Z</time>
      </trkpt>
      <trkpt lat="42.96891" lon="0.00482">
        <ele>1668</ele>
        <time>2018-06-22T07:02:43Z</time>
      </trkpt>
      <trkpt lat="42.96879" lon="0.00525">
        <ele>1663</ele>
        <time>2018-06-22T07:03:43Z</time>
      </trkpt>
      <trkpt lat="42.96865" lon="0.00564">
        <ele>1663</ele>
        <time>2018-06-22T07:04:43Z</time>
      </trkpt>
      <trkpt lat="42.96856" lon="0.00612">
        <ele>1665</ele>
        <time>2018-06-22T07:06:43Z</time>
      </trkpt>
      <trkpt lat="42.96854" lon="0.00704">
        <ele>1666</ele>
        <time>2018-06-22T07:08:43Z</time>
      </trkpt>
      <trkpt lat="42.9686" lon="0.00743">
        <ele>1665</ele>
        <time>2018-06-22T07:11:43Z</time>
      </trkpt>
      <trkpt lat="42.96875" lon="0.00824">
        <ele>1670</ele>
        <time>2018-06-22T07:14:43Z</time>
      </trkpt>
      <trkpt lat="42.96877" lon="0.00828">
        <ele>1670</ele>
        <time>2018-06-22T07:15:43Z</time>
      </trkpt>
      <trkpt lat="42.96898" lon="0.00851">
        <ele>1668</ele>
        <time>2018-06-22T07:17:43Z</time>
      </trkpt>
      <trkpt lat="42.96904" lon="0.00858">
        <ele>1668</ele>
        <time>2018-06-22T07:18:43Z</time>
      </trkpt>
      <trkpt lat="42.96904" lon="0.0091">
        <ele>1675</ele>
        <time>2018-06-22T07:21:43Z</time>
      </trkpt>
      <trkpt lat="42.96904" lon="0.00949">
        <ele>1679</ele>
        <time>2018-06-22T07:23:43Z</time>
      </trkpt>
      <trkpt lat="42.96906" lon="0.00958">
        <ele>1679</ele>
        <time>2018-06-22T07:24:43Z</time>
      </trkpt>
      <trkpt lat="42.9693" lon="0.01037">
        <ele>1683</ele>
        <time>2018-06-22T07:26:43Z</time>
      </trkpt>
      <trkpt lat="42.96939" lon="0.01065">
        <ele>1686</ele>
        <time>2018-06-22T07:28:43Z</time>
      </trkpt>
      <trkpt lat="42.9698" lon="0.01127">
        <ele>1684</ele>
        <time>2018-06-22T07:30:43Z</time>
      </trkpt>
      <trkpt lat="42.97011" lon="0.01177">
        <ele>1678</ele>
        <time>2018-06-22T07:32:43Z</time>
      </trkpt>
      <trkpt lat="42.97033" lon="0.01231">
        <ele>1672</ele>
        <time>2018-06-22T07:34:43Z</time>
      </trkpt>
      <trkpt lat="42.97052" lon="0.01292">
        <ele>1667</ele>
        <time>2018-06-22T07:35:43Z</time>
      </trkpt>
      <trkpt lat="42.97052" lon="0.01345">
        <ele>1668</ele>
        <time>2018-06-22T07:37:43Z</time>
      </trkpt>
      <trkpt lat="42.97041" lon="0.01344">
        <ele>1673</ele>
        <time>2018-06-22T07:38:43Z</time>
      </trkpt>
      <trkpt lat="42.97032" lon="0.01338">
        <ele>1676</ele>
        <time>2018-06-22T07:39:43Z</time>
      </trkpt>
      <trkpt lat="42.97021" lon="0.01317">
        <ele>1680</ele>
        <time>2018-06-22T07:40:43Z</time>
      </trkpt>
      <trkpt lat="42.97001" lon="0.0127">
        <ele>1686</ele>
        <time>2018-06-22T07:42:43Z</time>
      </trkpt>
      <trkpt lat="42.96986" lon="0.01247">
        <ele>1694</ele>
        <time>2018-06-22T07:43:43Z</time>
      </trkpt>
      <trkpt lat="42.96966" lon="0.01224">
        <ele>1703</ele>
        <time>2018-06-22T07:44:43Z</time>
      </trkpt>
      <trkpt lat="42.96938" lon="0.01193">
        <ele>1713</ele>
        <time>2018-06-22T07:46:43Z</time>
      </trkpt>
      <trkpt lat="42.96926" lon="0.01178">
        <ele>1716</ele>
        <time>2018-06-22T07:48:43Z</time>
      </trkpt>
      <trkpt lat="42.96899" lon="0.0113">
        <ele>1712</ele>
        <time>2018-06-22T07:49:43Z</time>
      </trkpt>
      <trkpt lat="42.96872" lon="0.01099">
        <ele>1712</ele>
        <time>2018-06-22T07:51:43Z</time>
      </trkpt>
      <trkpt lat="42.96859" lon="0.01097">
        <ele>1715</ele>
        <time>2018-06-22T07:53:43Z</time>
      </trkpt>
      <trkpt lat="42.96844" lon="0.01108">
        <ele>1721</ele>
        <time>2018-06-22T07:54:43Z</time>
      </trkpt>
      <trkpt lat="42.96833" lon="0.0112">
        <ele>1726</ele>
        <time>2018-06-22T07:55:43Z</time>
      </trkpt>
      <trkpt lat="42.96822" lon="0.01127">
        <ele>1724</ele>
        <time>2018-06-22T07:56:43Z</time>
      </trkpt>
      <trkpt lat="42.96792" lon="0.01137">
        <ele>1719</ele>
        <time>2018-06-22T07:58:43Z</time>
      </trkpt>
      <trkpt lat="42.96792" lon="0.01137">
        <ele>1719</ele>
        <time>2018-06-22T07:59:43Z</time>
      </trkpt>
      <trkpt lat="42.96816" lon="0.0113">
        <ele>1724</ele>
        <time>2018-06-22T08:00:43Z</time>
      </trkpt>
      <trkpt lat="42.96822" lon="0.01127">
        <ele>1724</ele>
        <time>2018-06-22T08:01:43Z</time>
      </trkpt>
      <trkpt lat="42.96844" lon="0.01108">
        <ele>1721</ele>
        <time>2018-06-22T08:03:43Z</time>
      </trkpt>
      <trkpt lat="42.96859" lon="0.01097">
        <ele>1715</ele>
        <time>2018-06-22T08:04:43Z</time>
      </trkpt>
      <trkpt lat="42.96872" lon="0.01099">
        <ele>1712</ele>
        <time>2018-06-22T08:06:43Z</time>
      </trkpt>
      <trkpt lat="42.96926" lon="0.01178">
        <ele>1716</ele>
        <time>2018-06-22T08:09:43Z</time>
      </trkpt>
      <trkpt lat="42.96933" lon="0.01186">
        <ele>1714</ele>
        <time>2018-06-22T08:10:43Z</time>
      </trkpt>
      <trkpt lat="42.96961" lon="0.01218">
        <ele>1705</ele>
        <time>2018-06-22T08:12:43Z</time>
      </trkpt>
      <trkpt lat="42.96986" lon="0.01247">
        <ele>1694</ele>
        <time>2018-06-22T08:14:43Z</time>
      </trkpt>
      <trkpt lat="42.97001" lon="0.0127">
        <ele>1686</ele>
        <time>2018-06-22T08:15:43Z</time>
      </trkpt>
      <trkpt lat="42.97015" lon="0.01304">
        <ele>1682</ele>
        <time>2018-06-22T08:16:43Z</time>
      </trkpt>
      <trkpt lat="42.97032" lon="0.01338">
        <ele>1676</ele>
        <time>2018-06-22T08:18:43Z</time>
      </trkpt>
      <trkpt lat="42.97041" lon="0.01344">
        <ele>1673</ele>
        <time>2018-06-22T08:19:43Z</time>
      </trkpt>
      <trkpt lat="42.97052" lon="0.01345">
        <ele>1668</ele>
        <time>2018-06-22T08:20:43Z</time>
      </trkpt>
      <trkpt lat="42.97052" lon="0.01292">
        <ele>1667</ele>
        <time>2018-06-22T08:22:43Z</time>
      </trkpt>
      <trkpt lat="42.97033" lon="0.01231">
        <ele>1672</ele>
        <time>2018-06-22T08:23:43Z</time>
      </trkpt>
      <trkpt lat="42.97015" lon="0.01184">
        <ele>1676</ele>
        <time>2018-06-22T08:24:43Z</time>
      </trkpt>
      <trkpt lat="42.96992" lon="0.0115">
        <ele>1683</ele>
        <time>2018-06-22T08:26:43Z</time>
      </trkpt>
      <trkpt lat="42.96939" lon="0.01065">
        <ele>1686</ele>
        <time>2018-06-22T08:29:43Z</time>
      </trkpt>
      <trkpt lat="42.9693" lon="0.01037">
        <ele>1683</ele>
        <time>2018-06-22T08:31:43Z</time>
      </trkpt>
      <trkpt lat="42.9693" lon="0.01014">
        <ele>1679</ele>
        <time>2018-06-22T08:32:43Z</time>
      </trkpt>
      <trkpt lat="42.96906" lon="0.00958">
        <ele>1679</ele>
        <time>2018-06-22T08:33:43Z</time>
      </trkpt>
      <trkpt lat="42.96903" lon="0.00929">
        <ele>1677</ele>
        <time>2018-06-22T08:35:43Z</time>
      </trkpt>
      <trkpt lat="42.96907" lon="0.0088">
        <ele>1670</ele>
        <time>2018-06-22T08:37:43Z</time>
      </trkpt>
      <trkpt lat="42.96904" lon="0.00858">
        <ele>1668</ele>
        <time>2018-06-22T08:39:43Z</time>
      </trkpt>
      <trkpt lat="42.96875" lon="0.00824">
        <ele>1670</ele>
        <time>2018-06-22T08:43:43Z</time>
      </trkpt>
      <trkpt lat="42.96864" lon="0.00758">
        <ele>1665</ele>
        <time>2018-06-22T08:44:43Z</time>
      </trkpt>
      <trkpt lat="42.96861" lon="0.00746">
        <ele>1665</ele>
        <time>2018-06-22T08:45:43Z</time>
      </trkpt>
      <trkpt lat="42.96856" lon="0.0072">
        <ele>1665</ele>
        <time>2018-06-22T08:48:43Z</time>
      </trkpt>
      <trkpt lat="42.96856" lon="0.00612">
        <ele>1665</ele>
        <time>2018-06-22T08:51:43Z</time>
      </trkpt>
      <trkpt lat="42.96865" lon="0.00564">
        <ele>1663</ele>
        <time>2018-06-22T08:53:43Z</time>
      </trkpt>
      <trkpt lat="42.96879" lon="0.00525">
        <ele>1663</ele>
        <time>2018-06-22T08:54:43Z</time>
      </trkpt>
      <trkpt lat="42.96891" lon="0.00482">
        <ele>1668</ele>
        <time>2018-06-22T08:55:43Z</time>
      </trkpt>
      <trkpt lat="42.96893" lon="0.00471">
        <ele>1670</ele>
        <time>2018-06-22T08:57:43Z</time>
      </trkpt>
      <trkpt lat="42.96893" lon="0.00444">
        <ele>1674</ele>
        <time>2018-06-22T08:58:43Z</time>
      </trkpt>
      <trkpt lat="42.96893" lon="0.0041">
        <ele>1678</ele>
        <time>2018-06-22T08:59:43Z</time>
      </trkpt>
      <trkpt lat="42.96901" lon="0.00348">
        <ele>1684</ele>
        <time>2018-06-22T09:01:43Z</time>
      </trkpt>
      <trkpt lat="42.96906" lon="0.00328">
        <ele>1687</ele>
        <time>2018-06-22T09:02:43Z</time>
      </trkpt>
      <trkpt lat="42.9688" lon="0.00273">
        <ele>1679</ele>
        <time>2018-06-22T09:06:43Z</time>
      </trkpt>
      <trkpt lat="42.9687" lon="0.00257">
        <ele>1677</ele>
        <time>2018-06-22T09:08:43Z</time>
      </trkpt>
      <trkpt lat="42.96848" lon="0.00165">
        <ele>1675</ele>
        <time>2018-06-22T09:10:43Z</time>
      </trkpt>
      <trkpt lat="42.96848" lon="0.00157">
        <ele>1675</ele>
        <time>2018-06-22T09:11:43Z</time>
      </trkpt>
      <trkpt lat="42.96871" lon="0.00103">
        <ele>1676</ele>
        <time>2018-06-22T09:14:43Z</time>
      </trkpt>
      <trkpt lat="42.9688" lon="0.00085">
        <ele>1677</ele>
        <time>2018-06-22T09:16:43Z</time>
      </trkpt>
      <trkpt lat="42.96872" lon="0.00038">
        <ele>1674</ele>
        <time>2018-06-22T09:18:43Z</time>
      </trkpt>
      <trkpt lat="42.96876" lon="-0.00018">
        <ele>1673</ele>
        <time>2018-06-22T09:20:43Z</time>
      </trkpt>
      <trkpt lat="42.96863" lon="-0.00057">
        <ele>1674</ele>
        <time>2018-06-22T09:22:43Z</time>
      </trkpt>
      <trkpt lat="42.96847" lon="-0.00144">
        <ele>1672</ele>
        <time>2018-06-22T09:24:43Z</time>
      </trkpt>
      <trkpt lat="42.96845" lon="-0.00229">
        <ele>1673</ele>
        <time>2018-06-22T09:26:43Z</time>
      </trkpt>
      <trkpt lat="42.96841" lon="-0.00299">
        <ele>1675</ele>
        <time>2018-06-22T09:28:43Z</time>
      </trkpt>
      <trkpt lat="42.96839" lon="-0.00311">
        <ele>1675</ele>
        <time>2018-06-22T09:29:43Z</time>
      </trkpt>
      <trkpt lat="42.96826" lon="-0.00348">
        <ele>1671</ele>
        <time>2018-06-22T09:32:43Z</time>
      </trkpt>
      <trkpt lat="42.96816" lon="-0.00362">
        <ele>1667</ele>
        <time>2018-06-22T09:34:43Z</time>
      </trkpt>
      <trkpt lat="42.96808" lon="-0.00379">
        <ele>1663</ele>
        <time>2018-06-22T09:35:43Z</time>
      </trkpt>
      <trkpt lat="42.96798" lon="-0.00409">
        <ele>1659</ele>
        <time>2018-06-22T09:37:43Z</time>
      </trkpt>
      <trkpt lat="42.9679" lon="-0.00436">
        <ele>1656</ele>
        <time>2018-06-22T09:39:43Z</time>
      </trkpt>
      <trkpt lat="42.9679" lon="-0.00455">
        <ele>1655</ele>
        <time>2018-06-22T09:41:43Z</time>
      </trkpt>
      <trkpt lat="42.96789" lon="-0.00493">
        <ele>1652</ele>
        <time>2018-06-22T09:44:43Z</time>
      </trkpt>
      <trkpt lat="42.96777" lon="-0.00517">
        <ele>1651</ele>
        <time>2018-06-22T09:46:43Z</time>
      </trkpt>
      <trkpt lat="42.96758" lon="-0.00569">
        <ele>1654</ele>
        <time>2018-06-22T09:51:43Z</time>
      </trkpt>
      <trkpt lat="42.96767" lon="-0.00586">
        <ele>1652</ele>
        <time>2018-06-22T09:55:43Z</time>
      </trkpt>
      <trkpt lat="42.96782" lon="-0.00561">
        <ele>1649</ele>
        <time>2018-06-22T09:58:43Z</time>
      </trkpt>
      <trkpt lat="42.96796" lon="-0.00535">
        <ele>1648</ele>
        <time>2018-06-22T10:00:43Z</time>
      </trkpt>
      <trkpt lat="42.96822" lon="-0.00494">
        <ele>1651</ele>
        <time>2018-06-22T10:03:43Z</time>
      </trkpt>
      <trkpt lat="42.96879" lon="-0.00454">
        <ele>1649</ele>
        <time>2018-06-22T10:09:43Z</time>
      </trkpt>
      <trkpt lat="42.96898" lon="-0.00447">
        <ele>1648</ele>
        <time>2018-06-22T10:11:43Z</time>
      </trkpt>
      <trkpt lat="42.96946" lon="-0.00425">
        <ele>1643</ele>
        <time>2018-06-22T10:15:43Z</time>
      </trkpt>
      <trkpt lat="42.96979" lon="-0.00405">
        <ele>1639</ele>
        <time>2018-06-22T10:17:43Z</time>
      </trkpt>
      <trkpt lat="42.97007" lon="-0.00376">
        <ele>1637</ele>
        <time>2018-06-22T10:19:43Z</time>
      </trkpt>
      <trkpt lat="42.97019" lon="-0.00347">
        <ele>1639</ele>
        <time>2018-06-22T10:22:43Z</time>
      </trkpt>
      <trkpt lat="42.97031" lon="-0.00319">
        <ele>1638</ele>
        <time>2018-06-22T10:24:43Z</time>
      </trkpt>
      <trkpt lat="42.97046" lon="-0.00296">
        <ele>1633</ele>
        <time>2018-06-22T10:26:43Z</time>
      </trkpt>
      <trkpt lat="42.97056" lon="-0.00286">
        <ele>1630</ele>
        <time>2018-06-22T10:27:43Z</time>
      </trkpt>
      <trkpt lat="42.97075" lon="-0.00279">
        <ele>1625</ele>
        <time>2018-06-22T10:29:43Z</time>
      </trkpt>
      <trkpt lat="42.97094" lon="-0.00279">
        <ele>1622</ele>
        <time>2018-06-22T10:31:43Z</time>
      </trkpt>
      <trkpt lat="42.97111" lon="-0.00284">
        <ele>1621</ele>
        <time>2018-06-22T10:33:43Z</time>
      </trkpt>
      <trkpt lat="42.97145" lon="-0.0031">
        <ele>1620</ele>
        <time>2018-06-22T10:38:43Z</time>
      </trkpt>
      <trkpt lat="42.9715" lon="-0.00331">
        <ele>1620</ele>
        <time>2018-06-22T10:42:43Z</time>
      </trkpt>
      <trkpt lat="42.97157" lon="-0.00348">
        <ele>1618</ele>
        <time>2018-06-22T10:44:43Z</time>
      </trkpt>
      <trkpt lat="42.97165" lon="-0.00365">
        <ele>1615</ele>
        <time>2018-06-22T10:45:43Z</time>
      </trkpt>
      <trkpt lat="42.97183" lon="-0.00401">
        <ele>1612</ele>
        <time>2018-06-22T10:46:43Z</time>
      </trkpt>
      <trkpt lat="42.97223" lon="-0.00457">
        <ele>1606</ele>
        <time>2018-06-22T10:48:43Z</time>
      </trkpt>
      <trkpt lat="42.97243" lon="-0.00484">
        <ele>1602</ele>
        <time>2018-06-22T10:49:43Z</time>
      </trkpt>
      <trkpt lat="42.97276" lon="-0.00527">
        <ele>1596</ele>
        <time>2018-06-22T10:50:43Z</time>
      </trkpt>
      <trkpt lat="42.9731" lon="-0.00561">
        <ele>1592</ele>
        <time>2018-06-22T10:52:43Z</time>
      </trkpt>
      <trkpt lat="42.97325" lon="-0.00582">
        <ele>1589</ele>
        <time>2018-06-22T10:54:43Z</time>
      </trkpt>
      <trkpt lat="42.97334" lon="-0.006">
        <ele>1586</ele>
        <time>2018-06-22T10:56:43Z</time>
      </trkpt>
      <trkpt lat="42.97341" lon="-0.0062">
        <ele>1582</ele>
        <time>2018-06-22T10:57:43Z</time>
      </trkpt>
      <trkpt lat="42.97347" lon="-0.00638">
        <ele>1579</ele>
        <time>2018-06-22T10:58:43Z</time>
      </trkpt>
      <trkpt lat="42.97359" lon="-0.00661">
        <ele>1575</ele>
        <time>2018-06-22T10:59:43Z</time>
      </trkpt>
      <trkpt lat="42.97393" lon="-0.00692">
        <ele>1573</ele>
        <time>2018-06-22T11:01:43Z</time>
      </trkpt>
      <trkpt lat="42.9744" lon="-0.00702">
        <ele>1571</ele>
        <time>2018-06-22T11:04:43Z</time>
      </trkpt>
      <trkpt lat="42.97455" lon="-0.00702">
        <ele>1569</ele>
        <time>2018-06-22T11:06:43Z</time>
      </trkpt>
      <trkpt lat="42.97486" lon="-0.00679">
        <ele>1570</ele>
        <time>2018-06-22T11:09:43Z</time>
      </trkpt>
      <trkpt lat="42.97496" lon="-0.00681">
        <ele>1568</ele>
        <time>2018-06-22T11:12:43Z</time>
      </trkpt>
      <trkpt lat="42.97495" lon="-0.00697">
        <ele>1565</ele>
        <time>2018-06-22T11:15:43Z</time>
      </trkpt>
      <trkpt lat="42.97473" lon="-0.00731">
        <ele>1562</ele>
        <time>2018-06-22T11:17:43Z</time>
      </trkpt>
      <trkpt lat="42.97459" lon="-0.00754">
        <ele>1559</ele>
        <time>2018-06-22T11:18:43Z</time>
      </trkpt>
      <trkpt lat="42.97434" lon="-0.00778">
        <ele>1556</ele>
        <time>2018-06-22T11:20:43Z</time>
      </trkpt>
      <trkpt lat="42.97402" lon="-0.00784">
        <ele>1553</ele>
        <time>2018-06-22T11:22:43Z</time>
      </trkpt>
      <trkpt lat="42.97402" lon="-0.00799">
        <ele>1550</ele>
        <time>2018-06-22T11:25:43Z</time>
      </trkpt>
      <trkpt lat="42.9741" lon="-0.00804">
        <ele>1550</ele>
        <time>2018-06-22T11:26:43Z</time>
      </trkpt>
      <trkpt lat="42.97442" lon="-0.00825">
        <ele>1547</ele>
        <time>2018-06-22T11:28:43Z</time>
      </trkpt>
      <trkpt lat="42.9747" lon="-0.00841">
        <ele>1544</ele>
        <time>2018-06-22T11:30:43Z</time>
      </trkpt>
      <trkpt lat="42.97515" lon="-0.00847">
        <ele>1539</ele>
        <time>2018-06-22T11:33:43Z</time>
      </trkpt>
      <trkpt lat="42.97526" lon="-0.0085">
        <ele>1536</ele>
        <time>2018-06-22T11:34:43Z</time>
      </trkpt>
      <trkpt lat="42.97536" lon="-0.0087">
        <ele>1532</ele>
        <time>2018-06-22T11:36:43Z</time>
      </trkpt>
      <trkpt lat="42.97532" lon="-0.0089">
        <ele>1531</ele>
        <time>2018-06-22T11:38:43Z</time>
      </trkpt>
      <trkpt lat="42.97494" lon="-0.00936">
        <ele>1531</ele>
        <time>2018-06-22T11:41:43Z</time>
      </trkpt>
      <trkpt lat="42.97471" lon="-0.0095">
        <ele>1528</ele>
        <time>2018-06-22T11:43:43Z</time>
      </trkpt>
      <trkpt lat="42.9745" lon="-0.00949">
        <ele>1527</ele>
        <time>2018-06-22T11:45:43Z</time>
      </trkpt>
      <trkpt lat="42.97401" lon="-0.00929">
        <ele>1525</ele>
        <time>2018-06-22T11:47:43Z</time>
      </trkpt>
      <trkpt lat="42.97397" lon="-0.00932">
        <ele>1523</ele>
        <time>2018-06-22T11:49:43Z</time>
      </trkpt>
      <trkpt lat="42.97455" lon="-0.00987">
        <ele>1521</ele>
        <time>2018-06-22T11:51:43Z</time>
      </trkpt>
      <trkpt lat="42.97478" lon="-0.01008">
        <ele>1520</ele>
        <time>2018-06-22T11:53:43Z</time>
      </trkpt>
      <trkpt lat="42.97513" lon="-0.01042">
        <ele>1517</ele>
        <time>2018-06-22T11:54:43Z</time>
      </trkpt>
      <trkpt lat="42.97536" lon="-0.01063">
        <ele>1514</ele>
        <time>2018-06-22T11:55:43Z</time>
      </trkpt>
      <trkpt lat="42.97547" lon="-0.01069">
        <ele>1513</ele>
        <time>2018-06-22T11:57:43Z</time>
      </trkpt>
      <trkpt lat="42.97544" lon="-0.01107">
        <ele>1510</ele>
        <time>2018-06-22T11:58:43Z</time>
      </trkpt>
      <trkpt lat="42.97544" lon="-0.01133">
        <ele>1507</ele>
        <time>2018-06-22T12:00:43Z</time>
      </trkpt>
      <trkpt lat="42.9756" lon="-0.01159">
        <ele>1505</ele>
        <time>2018-06-22T12:03:43Z</time>
      </trkpt>
      <trkpt lat="42.97593" lon="-0.0115">
        <ele>1505</ele>
        <time>2018-06-22T12:07:43Z</time>
      </trkpt>
      <trkpt lat="42.97619" lon="-0.01043">
        <ele>1502</ele>
        <time>2018-06-22T12:10:43Z</time>
      </trkpt>
      <trkpt lat="42.97624" lon="-0.00997">
        <ele>1500</ele>
        <time>2018-06-22T12:12:43Z</time>
      </trkpt>
      <trkpt lat="42.97626" lon="-0.00952">
        <ele>1502</ele>
        <time>2018-06-22T12:14:43Z</time>
      </trkpt>
      <trkpt lat="42.97627" lon="-0.00904">
        <ele>1505</ele>
        <time>2018-06-22T12:15:43Z</time>
      </trkpt>
      <trkpt lat="42.97631" lon="-0.00867">
        <ele>1507</ele>
        <time>2018-06-22T12:17:43Z</time>
      </trkpt>
      <trkpt lat="42.97649" lon="-0.00849">
        <ele>1504</ele>
        <time>2018-06-22T12:19:43Z</time>
      </trkpt>
      <trkpt lat="42.9767" lon="-0.00849">
        <ele>1499</ele>
        <time>2018-06-22T12:21:43Z</time>
      </trkpt>
      <trkpt lat="42.97691" lon="-0.00859">
        <ele>1494</ele>
        <time>2018-06-22T12:22:43Z</time>
      </trkpt>
      <trkpt lat="42.97699" lon="-0.0087">
        <ele>1491</ele>
        <time>2018-06-22T12:23:43Z</time>
      </trkpt>
      <trkpt lat="42.97703" lon="-0.00889">
        <ele>1488</ele>
        <time>2018-06-22T12:26:43Z</time>
      </trkpt>
      <trkpt lat="42.97662" lon="-0.00941">
        <ele>1490</ele>
        <time>2018-06-22T12:30:43Z</time>
      </trkpt>
      <trkpt lat="42.97659" lon="-0.0096">
        <ele>1491</ele>
        <time>2018-06-22T12:32:43Z</time>
      </trkpt>
      <trkpt lat="42.97666" lon="-0.00984">
        <ele>1488</ele>
        <time>2018-06-22T12:33:43Z</time>
      </trkpt>
      <trkpt lat="42.9768" lon="-0.01008">
        <ele>1483</ele>
        <time>2018-06-22T12:34:43Z</time>
      </trkpt>
      <trkpt lat="42.97691" lon="-0.01047">
        <ele>1480</ele>
        <time>2018-06-22T12:36:43Z</time>
      </trkpt>
      <trkpt lat="42.97709" lon="-0.01128">
        <ele>1475</ele>
        <time>2018-06-22T12:37:43Z</time>
      </trkpt>
      <trkpt lat="42.97726" lon="-0.01169">
        <ele>1469</ele>
        <time>2018-06-22T12:38:43Z</time>
      </trkpt>
      <trkpt lat="42.97733" lon="-0.01192">
        <ele>1464</ele>
        <time>2018-06-22T12:39:43Z</time>
      </trkpt>
      <trkpt lat="42.97735" lon="-0.01218">
        <ele>1460</ele>
        <time>2018-06-22T12:41:43Z</time>
      </trkpt>
      <trkpt lat="42.97724" lon="-0.01248">
        <ele>1460</ele>
        <time>2018-06-22T12:42:43Z</time>
      </trkpt>
      <trkpt lat="42.97693" lon="-0.01293">
        <ele>1458</ele>
        <time>2018-06-22T12:44:43Z</time>
      </trkpt>
      <trkpt lat="42.97673" lon="-0.0131">
        <ele>1458</ele>
        <time>2018-06-22T12:45:43Z</time>
      </trkpt>
      <trkpt lat="42.97628" lon="-0.0134">
        <ele>1455</ele>
        <time>2018-06-22T12:48:43Z</time>
      </trkpt>
      <trkpt lat="42.97601" lon="-0.01362">
        <ele>1451</ele>
        <time>2018-06-22T12:49:43Z</time>
      </trkpt>
      <trkpt lat="42.97559" lon="-0.01394">
        <ele>1446</ele>
        <time>2018-06-22T12:50:43Z</time>
      </trkpt>
      <trkpt lat="42.97524" lon="-0.01414">
        <ele>1443</ele>
        <time>2018-06-22T12:52:43Z</time>
      </trkpt>
      <trkpt lat="42.97492" lon="-0.01442">
        <ele>1440</ele>
        <time>2018-06-22T12:54:43Z</time>
      </trkpt>
      <trkpt lat="42.97486" lon="-0.0146">
        <ele>1437</ele>
        <time>2018-06-22T12:56:43Z</time>
      </trkpt>
      <trkpt lat="42.97498" lon="-0.01484">
        <ele>1434</ele>
        <time>2018-06-22T12:59:43Z</time>
      </trkpt>
      <trkpt lat="42.97514" lon="-0.01488">
        <ele>1433</ele>
        <time>2018-06-22T13:01:43Z</time>
      </trkpt>
      <trkpt lat="42.97571" lon="-0.01452">
        <ele>1434</ele>
        <time>2018-06-22T13:05:43Z</time>
      </trkpt>
      <trkpt lat="42.9762" lon="-0.01441">
        <ele>1432</ele>
        <time>2018-06-22T13:07:43Z</time>
      </trkpt>
      <trkpt lat="42.97684" lon="-0.0143">
        <ele>1426</ele>
        <time>2018-06-22T13:08:43Z</time>
      </trkpt>
      <trkpt lat="42.97725" lon="-0.01414">
        <ele>1423</ele>
        <time>2018-06-22T13:10:43Z</time>
      </trkpt>
      <trkpt lat="42.97738" lon="-0.01419">
        <ele>1420</ele>
        <time>2018-06-22T13:12:43Z</time>
      </trkpt>
      <trkpt lat="42.97743" lon="-0.01432">
        <ele>1417</ele>
        <time>2018-06-22T13:14:43Z</time>
      </trkpt>
      <trkpt lat="42.97738" lon="-0.01448">
        <ele>1416</ele>
        <time>2018-06-22T13:16:43Z</time>
      </trkpt>
      <trkpt lat="42.97688" lon="-0.01484">
        <ele>1416</ele>
        <time>2018-06-22T13:20:43Z</time>
      </trkpt>
      <trkpt lat="42.97661" lon="-0.01506">
        <ele>1415</ele>
        <time>2018-06-22T13:23:43Z</time>
      </trkpt>
      <trkpt lat="42.97644" lon="-0.0154">
        <ele>1411</ele>
        <time>2018-06-22T13:26:43Z</time>
      </trkpt>
      <trkpt lat="42.97634" lon="-0.01566">
        <ele>1408</ele>
        <time>2018-06-22T13:27:43Z</time>
      </trkpt>
      <trkpt lat="42.97612" lon="-0.01622">
        <ele>1405</ele>
        <time>2018-06-22T13:29:43Z</time>
      </trkpt>
      <trkpt lat="42.97595" lon="-0.01673">
        <ele>1401</ele>
        <time>2018-06-22T13:31:43Z</time>
      </trkpt>
      <trkpt lat="42.97586" lon="-0.01691">
        <ele>1400</ele>
        <time>2018-06-22T13:33:43Z</time>
      </trkpt>
      <trkpt lat="42.97567" lon="-0.01712">
        <ele>1397</ele>
        <time>2018-06-22T13:35:43Z</time>
      </trkpt>
      <trkpt lat="42.97529" lon="-0.01743">
        <ele>1393</ele>
        <time>2018-06-22T13:37:43Z</time>
      </trkpt>
      <trkpt lat="42.97502" lon="-0.01759">
        <ele>1390</ele>
        <time>2018-06-22T13:39:43Z</time>
      </trkpt>
      <trkpt lat="42.97437" lon="-0.01801">
        <ele>1384</ele>
        <time>2018-06-22T13:41:43Z</time>
      </trkpt>
      <trkpt lat="42.97419" lon="-0.0182">
        <ele>1381</ele>
        <time>2018-06-22T13:43:43Z</time>
      </trkpt>
      <trkpt lat="42.97405" lon="-0.01851">
        <ele>1377</ele>
        <time>2018-06-22T13:46:43Z</time>
      </trkpt>
      <trkpt lat="42.97395" lon="-0.01886">
        <ele>1374</ele>
        <time>2018-06-22T13:48:43Z</time>
      </trkpt>
      <trkpt lat="42.97381" lon="-0.01911">
        <ele>1372</ele>
        <time>2018-06-22T13:50:43Z</time>
      </trkpt>
      <trkpt lat="42.97364" lon="-0.01934">
        <ele>1369</ele>
        <time>2018-06-22T13:52:43Z</time>
      </trkpt>
      <trkpt lat="42.97337" lon="-0.01952">
        <ele>1368</ele>
        <time>2018-06-22T13:54:43Z</time>
      </trkpt>
      <trkpt lat="42.97312" lon="-0.01948">
        <ele>1363</ele>
        <time>2018-06-22T13:56:43Z</time>
      </trkpt>
      <trkpt lat="42.97307" lon="-0.01944">
        <ele>1363</ele>
        <time>2018-06-22T13:57:43Z</time>
      </trkpt>
      <trkpt lat="42.97281" lon="-0.01924">
        <ele>1359</ele>
        <time>2018-06-22T13:59:43Z</time>
      </trkpt>
      <trkpt lat="42.97249" lon="-0.01896">
        <ele>1355</ele>
        <time>2018-06-22T14:01:43Z</time>
      </trkpt>
      <trkpt lat="42.97237" lon="-0.01872">
        <ele>1354</ele>
        <time>2018-06-22T14:03:43Z</time>
      </trkpt>
      <trkpt lat="42.97218" lon="-0.01796">
        <ele>1356</ele>
        <time>2018-06-22T14:06:43Z</time>
      </trkpt>
      <trkpt lat="42.972" lon="-0.01791">
        <ele>1353</ele>
        <time>2018-06-22T14:08:43Z</time>
      </trkpt>
      <trkpt lat="42.9719" lon="-0.01794">
        <ele>1350</ele>
        <time>2018-06-22T14:09:43Z</time>
      </trkpt>
      <trkpt lat="42.97176" lon="-0.0181">
        <ele>1346</ele>
        <time>2018-06-22T14:11:43Z</time>
      </trkpt>
      <trkpt lat="42.97169" lon="-0.01835">
        <ele>1342</ele>
        <time>2018-06-22T14:13:43Z</time>
      </trkpt>
      <trkpt lat="42.97171" lon="-0.01877">
        <ele>1339</ele>
        <time>2018-06-22T14:15:43Z</time>
      </trkpt>
      <trkpt lat="42.97173" lon="-0.01884">
        <ele>1339</ele>
        <time>2018-06-22T14:16:43Z</time>
      </trkpt>
      <trkpt lat="42.9719" lon="-0.01947">
        <ele>1336</ele>
        <time>2018-06-22T14:19:43Z</time>
      </trkpt>
      <trkpt lat="42.97197" lon="-0.02">
        <ele>1332</ele>
        <time>2018-06-22T14:21:43Z</time>
      </trkpt>
      <trkpt lat="42.97197" lon="-0.0203">
        <ele>1329</ele>
        <time>2018-06-22T14:22:43Z</time>
      </trkpt>
      <trkpt lat="42.97198" lon="-0.02062">
        <ele>1325</ele>
        <time>2018-06-22T14:23:43Z</time>
      </trkpt>
      <trkpt lat="42.97202" lon="-0.02097">
        <ele>1322</ele>
        <time>2018-06-22T14:25:43Z</time>
      </trkpt>
      <trkpt lat="42.9721" lon="-0.02126">
        <ele>1319</ele>
        <time>2018-06-22T14:27:43Z</time>
      </trkpt>
      <trkpt lat="42.97229" lon="-0.02159">
        <ele>1318</ele>
        <time>2018-06-22T14:29:43Z</time>
      </trkpt>
      <trkpt lat="42.97249" lon="-0.02194">
        <ele>1315</ele>
        <time>2018-06-22T14:32:43Z</time>
      </trkpt>
      <trkpt lat="42.97255" lon="-0.02226">
        <ele>1310</ele>
        <time>2018-06-22T14:34:43Z</time>
      </trkpt>
      <trkpt lat="42.97262" lon="-0.02256">
        <ele>1307</ele>
        <time>2018-06-22T14:36:43Z</time>
      </trkpt>
      <trkpt lat="42.97268" lon="-0.02286">
        <ele>1303</ele>
        <time>2018-06-22T14:37:43Z</time>
      </trkpt>
      <trkpt lat="42.97276" lon="-0.02324">
        <ele>1298</ele>
        <time>2018-06-22T14:39:43Z</time>
      </trkpt>
      <trkpt lat="42.97284" lon="-0.02369">
        <ele>1293</ele>
        <time>2018-06-22T14:41:43Z</time>
      </trkpt>
      <trkpt lat="42.97298" lon="-0.02431">
        <ele>1287</ele>
        <time>2018-06-22T14:43:43Z</time>
      </trkpt>
      <trkpt lat="42.97303" lon="-0.02482">
        <ele>1282</ele>
        <time>2018-06-22T14:45:43Z</time>
      </trkpt>
      <trkpt lat="42.97308" lon="-0.02518">
        <ele>1279</ele>
        <time>2018-06-22T14:47:43Z</time>
      </trkpt>
      <trkpt lat="42.97318" lon="-0.02552">
        <ele>1277</ele>
        <time>2018-06-22T14:49:43Z</time>
      </trkpt>
      <trkpt lat="42.97324" lon="-0.02587">
        <ele>1274</ele>
        <time>2018-06-22T14:51:43Z</time>
      </trkpt>
      <trkpt lat="42.97325" lon="-0.02651">
        <ele>1264</ele>
        <time>2018-06-22T14:53:43Z</time>
      </trkpt>
      <trkpt lat="42.97325" lon="-0.02674">
        <ele>1261</ele>
        <time>2018-06-22T14:54:43Z</time>
      </trkpt>
      <trkpt lat="42.97323" lon="-0.02708">
        <ele>1255</ele>
        <time>2018-06-22T14:55:43Z</time>
      </trkpt>
      <trkpt lat="42.9732" lon="-0.02739">
        <ele>1250</ele>
        <time>2018-06-22T14:56:43Z</time>
      </trkpt>
      <trkpt lat="42.97322" lon="-0.02754">
        <ele>1247</ele>
        <time>2018-06-22T14:58:43Z</time>
      </trkpt>
      <trkpt lat="42.97331" lon="-0.02763">
        <ele>1245</ele>
        <time>2018-06-22T15:00:43Z</time>
      </trkpt>
      <trkpt lat="42.97344" lon="-0.02762">
        <ele>1242</ele>
        <time>2018-06-22T15:02:43Z</time>
      </trkpt>
      <trkpt lat="42.97353" lon="-0.02756">
        <ele>1242</ele>
        <time>2018-06-22T15:03:43Z</time>
      </trkpt>
      <trkpt lat="42.97392" lon="-0.02703">
        <ele>1246</ele>
        <time>2018-06-22T15:05:43Z</time>
      </trkpt>
      <trkpt lat="42.97408" lon="-0.02679">
        <ele>1250</ele>
        <time>2018-06-22T15:06:43Z</time>
      </trkpt>
      <trkpt lat="42.97469" lon="-0.02604">
        <ele>1249</ele>
        <time>2018-06-22T15:10:43Z</time>
      </trkpt>
      <trkpt lat="42.97507" lon="-0.02564">
        <ele>1246</ele>
        <time>2018-06-22T15:13:43Z</time>
      </trkpt>
      <trkpt lat="42.97544" lon="-0.02548">
        <ele>1243</ele>
        <time>2018-06-22T15:16:43Z</time>
      </trkpt>
      <trkpt lat="42.97565" lon="-0.02541">
        <ele>1240</ele>
        <time>2018-06-22T15:18:43Z</time>
      </trkpt>
      <trkpt lat="42.97584" lon="-0.02538">
        <ele>1238</ele>
        <time>2018-06-22T15:20:43Z</time>
      </trkpt>
      <trkpt lat="42.97609" lon="-0.02541">
        <ele>1238</ele>
        <time>2018-06-22T15:23:43Z</time>
      </trkpt>
      <trkpt lat="42.97626" lon="-0.02557">
        <ele>1234</ele>
        <time>2018-06-22T15:25:43Z</time>
      </trkpt>
      <trkpt lat="42.97633" lon="-0.02568">
        <ele>1231</ele>
        <time>2018-06-22T15:26:43Z</time>
      </trkpt>
      <trkpt lat="42.97648" lon="-0.02595">
        <ele>1226</ele>
        <time>2018-06-22T15:27:43Z</time>
      </trkpt>
      <trkpt lat="42.97657" lon="-0.02611">
        <ele>1223</ele>
        <time>2018-06-22T15:29:43Z</time>
      </trkpt>
      <trkpt lat="42.97683" lon="-0.02623">
        <ele>1219</ele>
        <time>2018-06-22T15:32:43Z</time>
      </trkpt>
      <trkpt lat="42.97715" lon="-0.02605">
        <ele>1217</ele>
        <time>2018-06-22T15:35:43Z</time>
      </trkpt>
      <trkpt lat="42.97792" lon="-0.02542">
        <ele>1218</ele>
        <time>2018-06-22T15:38:43Z</time>
      </trkpt>
      <trkpt lat="42.97812" lon="-0.02528">
        <ele>1216</ele>
        <time>2018-06-22T15:40:43Z</time>
      </trkpt>
      <trkpt lat="42.97819" lon="-0.02523">
        <ele>1216</ele>
        <time>2018-06-22T15:41:43Z</time>
      </trkpt>
      <trkpt lat="42.97844" lon="-0.02491">
        <ele>1217</ele>
        <time>2018-06-22T15:45:43Z</time>
      </trkpt>
      <trkpt lat="42.9786" lon="-0.02461">
        <ele>1220</ele>
        <time>2018-06-22T15:47:43Z</time>
      </trkpt>
      <trkpt lat="42.97885" lon="-0.02464">
        <ele>1219</ele>
        <time>2018-06-22T15:51:43Z</time>
      </trkpt>
      <trkpt lat="42.97895" lon="-0.02494">
        <ele>1216</ele>
        <time>2018-06-22T15:53:43Z</time>
      </trkpt>
      <trkpt lat="42.97894" lon="-0.02506">
        <ele>1216</ele>
        <time>2018-06-22T15:54:43Z</time>
      </trkpt>
      <trkpt lat="42.97874" lon="-0.0255">
        <ele>1211</ele>
        <time>2018-06-22T15:56:43Z</time>
      </trkpt>
      <trkpt lat="42.97855" lon="-0.02594">
        <ele>1204</ele>
        <time>2018-06-22T15:57:43Z</time>
      </trkpt>
      <trkpt lat="42.97848" lon="-0.02613">
        <ele>1201</ele>
        <time>2018-06-22T15:58:43Z</time>
      </trkpt>
      <trkpt lat="42.97846" lon="-0.02626">
        <ele>1198</ele>
        <time>2018-06-22T15:59:43Z</time>
      </trkpt>
      <trkpt lat="42.97849" lon="-0.02653">
        <ele>1194</ele>
        <time>2018-06-22T16:02:43Z</time>
      </trkpt>
      <trkpt lat="42.9786" lon="-0.0269">
        <ele>1190</ele>
        <time>2018-06-22T16:03:43Z</time>
      </trkpt>
      <trkpt lat="42.97866" lon="-0.02705">
        <ele>1188</ele>
        <time>2018-06-22T16:05:43Z</time>
      </trkpt>
      <trkpt lat="42.9788" lon="-0.02756">
        <ele>1182</ele>
        <time>2018-06-22T16:07:43Z</time>
      </trkpt>
      <trkpt lat="42.97891" lon="-0.02786">
        <ele>1180</ele>
        <time>2018-06-22T16:09:43Z</time>
      </trkpt>
      <trkpt lat="42.97906" lon="-0.02813">
        <ele>1179</ele>
        <time>2018-06-22T16:11:43Z</time>
      </trkpt>
      <trkpt lat="42.97922" lon="-0.02869">
        <ele>1181</ele>
        <time>2018-06-22T16:15:43Z</time>
      </trkpt>
      <trkpt lat="42.97923" lon="-0.02882">
        <ele>1181</ele>
        <time>2018-06-22T16:16:43Z</time>
      </trkpt>
      <trkpt lat="42.97915" lon="-0.02925">
        <ele>1183</ele>
        <time>2018-06-22T16:19:43Z</time>
      </trkpt>
      <trkpt lat="42.97907" lon="-0.02951">
        <ele>1180</ele>
        <time>2018-06-22T16:20:43Z</time>
      </trkpt>
      <trkpt lat="42.97906" lon="-0.02952">
        <ele>1180</ele>
        <time>2018-06-22T16:21:43Z</time>
      </trkpt>
      <trkpt lat="42.97901" lon="-0.03005">
        <ele>1177</ele>
        <time>2018-06-22T16:25:43Z</time>
      </trkpt>
      <trkpt lat="42.97903" lon="-0.03021">
        <ele>1174</ele>
        <time>2018-06-22T16:26:43Z</time>
      </trkpt>
      <trkpt lat="42.97904" lon="-0.03022">
        <ele>1174</ele>
        <time>2018-06-22T16:27:43Z</time>
      </trkpt>
      <trkpt lat="42.97909" lon="-0.03043">
        <ele>1171</ele>
        <time>2018-06-22T16:29:43Z</time>
      </trkpt>
      <trkpt lat="42.97915" lon="-0.03052">
        <ele>1171</ele>
        <time>2018-06-22T16:30:43Z</time>
      </trkpt>
      <trkpt lat="42.97937" lon="-0.03074">
        <ele>1169</ele>
        <time>2018-06-22T16:32:43Z</time>
      </trkpt>
      <trkpt lat="42.97965" lon="-0.0309">
        <ele>1169</ele>
        <time>2018-06-22T16:35:43Z</time>
      </trkpt>
      <trkpt lat="42.97973" lon="-0.03105">
        <ele>1165</ele>
        <time>2018-06-22T16:37:43Z</time>
      </trkpt>
      <trkpt lat="42.97973" lon="-0.03105">
        <ele>1165</ele>
        <time>2018-06-22T16:38:43Z</time>
      </trkpt>
      <trkpt lat="42.97963" lon="-0.03114">
        <ele>1161</ele>
        <time>2018-06-22T16:40:43Z</time>
      </trkpt>
      <trkpt lat="42.97945" lon="-0.0311">
        <ele>1160</ele>
        <time>2018-06-22T16:42:43Z</time>
      </trkpt>
      <trkpt lat="42.97911" lon="-0.03094">
        <ele>1159</ele>
        <time>2018-06-22T16:46:43Z</time>
      </trkpt>
      <trkpt lat="42.97902" lon="-0.03096">
        <ele>1156</ele>
        <time>2018-06-22T16:48:43Z</time>
      </trkpt>
      <trkpt lat="42.97898" lon="-0.03103">
        <ele>1153</ele>
        <time>2018-06-22T16:49:43Z</time>
      </trkpt>
      <trkpt lat="42.97898" lon="-0.03111">
        <ele>1150</ele>
        <time>2018-06-22T16:50:43Z</time>
      </trkpt>
      <trkpt lat="42.97904" lon="-0.03123">
        <ele>1149</ele>
        <time>2018-06-22T16:52:43Z</time>
      </trkpt>
      <trkpt lat="42.97947" lon="-0.03147">
        <ele>1149</ele>
        <time>2018-06-22T16:56:43Z</time>
      </trkpt>
      <trkpt lat="42.98024" lon="-0.03165">
        <ele>1152</ele>
        <time>2018-06-22T16:58:43Z</time>
      </trkpt>
      <trkpt lat="42.98031" lon="-0.03169">
        <ele>1152</ele>
        <time>2018-06-22T16:59:43Z</time>
      </trkpt>
      <trkpt lat="42.98048" lon="-0.03195">
        <ele>1150</ele>
        <time>2018-06-22T17:03:43Z</time>
      </trkpt>
      <trkpt lat="42.98054" lon="-0.03217">
        <ele>1146</ele>
        <time>2018-06-22T17:04:43Z</time>
      </trkpt>
      <trkpt lat="42.9806" lon="-0.03246">
        <ele>1141</ele>
        <time>2018-06-22T17:05:43Z</time>
      </trkpt>
      <trkpt lat="42.9806" lon="-0.03247">
        <ele>1141</ele>
        <time>2018-06-22T17:06:43Z</time>
      </trkpt>
      <trkpt lat="42.98065" lon="-0.03269">
        <ele>1138</ele>
        <time>2018-06-22T17:07:43Z</time>
      </trkpt>
      <trkpt lat="42.98085" lon="-0.0333">
        <ele>1133</ele>
        <time>2018-06-22T17:08:43Z</time>
      </trkpt>
      <trkpt lat="42.98115" lon="-0.03402">
        <ele>1125</ele>
        <time>2018-06-22T17:10:43Z</time>
      </trkpt>
      <trkpt lat="42.98122" lon="-0.03418">
        <ele>1122</ele>
        <time>2018-06-22T17:11:43Z</time>
      </trkpt>
      <trkpt lat="42.98148" lon="-0.03452">
        <ele>1119</ele>
        <time>2018-06-22T17:13:43Z</time>
      </trkpt>
      <trkpt lat="42.98177" lon="-0.03488">
        <ele>1115</ele>
        <time>2018-06-22T17:15:43Z</time>
      </trkpt>
      <trkpt lat="42.98181" lon="-0.03493">
        <ele>1115</ele>
        <time>2018-06-22T17:16:43Z</time>
      </trkpt>
      <trkpt lat="42.98188" lon="-0.03511">
        <ele>1112</ele>
        <time>2018-06-22T17:17:43Z</time>
      </trkpt>
      <trkpt lat="42.98187" lon="-0.03532">
        <ele>1108</ele>
        <time>2018-06-22T17:19:43Z</time>
      </trkpt>
      <trkpt lat="42.98182" lon="-0.03548">
        <ele>1104</ele>
        <time>2018-06-22T17:20:43Z</time>
      </trkpt>
      <trkpt lat="42.9818" lon="-0.0357">
        <ele>1099</ele>
        <time>2018-06-22T17:22:43Z</time>
      </trkpt>
      <trkpt lat="42.98183" lon="-0.03597">
        <ele>1095</ele>
        <time>2018-06-22T17:25:43Z</time>
      </trkpt>
      <trkpt lat="42.98198" lon="-0.03637">
        <ele>1090</ele>
        <time>2018-06-22T17:28:43Z</time>
      </trkpt>
      <trkpt lat="42.98222" lon="-0.03669">
        <ele>1089</ele>
        <time>2018-06-22T17:30:43Z</time>
      </trkpt>
      <trkpt lat="42.98274" lon="-0.0371">
        <ele>1088</ele>
        <time>2018-06-22T17:35:43Z</time>
      </trkpt>
      <trkpt lat="42.98298" lon="-0.03743">
        <ele>1083</ele>
        <time>2018-06-22T17:36:43Z</time>
      </trkpt>
      <trkpt lat="42.98313" lon="-0.03766">
        <ele>1080</ele>
        <time>2018-06-22T17:37:43Z</time>
      </trkpt>
      <trkpt lat="42.98327" lon="-0.03787">
        <ele>1076</ele>
        <time>2018-06-22T17:38:43Z</time>
      </trkpt>
      <trkpt lat="42.98337" lon="-0.03803">
        <ele>1073</ele>
        <time>2018-06-22T17:39:43Z</time>
      </trkpt>
      <trkpt lat="42.98373" lon="-0.03839">
        <ele>1067</ele>
        <time>2018-06-22T17:41:43Z</time>
      </trkpt>
      <trkpt lat="42.98396" lon="-0.03856">
        <ele>1065</ele>
        <time>2018-06-22T17:43:43Z</time>
      </trkpt>
      <trkpt lat="42.98436" lon="-0.03872">
        <ele>1065</ele>
        <time>2018-06-22T17:46:43Z</time>
      </trkpt>
      <trkpt lat="42.9848" lon="-0.03901">
        <ele>1062</ele>
        <time>2018-06-22T17:49:43Z</time>
      </trkpt>
      <trkpt lat="42.98504" lon="-0.03934">
        <ele>1056</ele>
        <time>2018-06-22T17:50:43Z</time>
      </trkpt>
      <trkpt lat="42.98516" lon="-0.0395">
        <ele>1053</ele>
        <time>2018-06-22T17:51:43Z</time>
      </trkpt>
      <trkpt lat="42.9853" lon="-0.03967">
        <ele>1050</ele>
        <time>2018-06-22T17:52:43Z</time>
      </trkpt>
      <trkpt lat="42.98532" lon="-0.0397">
        <ele>1050</ele>
        <time>2018-06-22T17:53:43Z</time>
      </trkpt>
      <trkpt lat="42.98573" lon="-0.03989">
        <ele>1048</ele>
        <time>2018-06-22T17:56:43Z</time>
      </trkpt>
      <trkpt lat="42.98608" lon="-0.03996">
        <ele>1045</ele>
        <time>2018-06-22T17:57:43Z</time>
      </trkpt>
      <trkpt lat="42.98627" lon="-0.04003">
        <ele>1041</ele>
        <time>2018-06-22T17:58:43Z</time>
      </trkpt>
      <trkpt lat="42.98664" lon="-0.04021">
        <ele>1034</ele>
        <time>2018-06-22T17:59:43Z</time>
      </trkpt>
      <trkpt lat="42.98727" lon="-0.04045">
        <ele>1030</ele>
        <time>2018-06-22T18:01:43Z</time>
      </trkpt>
      <trkpt lat="42.98751" lon="-0.04071">
        <ele>1025</ele>
        <time>2018-06-22T18:03:43Z</time>
      </trkpt>
      <trkpt lat="42.98758" lon="-0.04078">
        <ele>1025</ele>
        <time>2018-06-22T18:04:43Z</time>
      </trkpt>
      <trkpt lat="42.98783" lon="-0.04102">
        <ele>1021</ele>
        <time>2018-06-22T18:06:43Z</time>
      </trkpt>
      <trkpt lat="42.98816" lon="-0.04126">
        <ele>1017</ele>
        <time>2018-06-22T18:08:43Z</time>
      </trkpt>
      <trkpt lat="42.98869" lon="-0.04152">
        <ele>1012</ele>
        <time>2018-06-22T18:09:43Z</time>
      </trkpt>
      <trkpt lat="42.98879" lon="-0.04159">
        <ele>1010</ele>
        <time>2018-06-22T18:10:43Z</time>
      </trkpt>
      <trkpt lat="42.98879" lon="-0.04159">
        <ele>1010</ele>
        <time>2018-06-22T18:11:43Z</time>
      </trkpt>
      <trkpt lat="42.98898" lon="-0.04168">
        <ele>1008</ele>
        <time>2018-06-22T18:14:43Z</time>
      </trkpt>
      <trkpt lat="42.98909" lon="-0.04173">
        <ele>1008</ele>
        <time>2018-06-22T18:15:43Z</time>
      </trkpt>
      <trkpt lat="42.98925" lon="-0.0419">
        <ele>1004</ele>
        <time>2018-06-22T18:18:43Z</time>
      </trkpt>
      <trkpt lat="42.98941" lon="-0.04215">
        <ele>1000</ele>
        <time>2018-06-22T18:20:43Z</time>
      </trkpt>
      <trkpt lat="42.98964" lon="-0.04253">
        <ele>993</ele>
        <time>2018-06-22T18:22:43Z</time>
      </trkpt>
      <trkpt lat="42.9899" lon="-0.04294">
        <ele>990</ele>
        <time>2018-06-22T18:25:43Z</time>
      </trkpt>
      <trkpt lat="42.98998" lon="-0.04312">
        <ele>987</ele>
        <time>2018-06-22T18:27:43Z</time>
      </trkpt>
      <trkpt lat="42.98998" lon="-0.04335">
        <ele>983</ele>
        <time>2018-06-22T18:29:43Z</time>
      </trkpt>
      <trkpt lat="42.98993" lon="-0.04348">
        <ele>980</ele>
        <time>2018-06-22T18:30:43Z</time>
      </trkpt>
      <trkpt lat="42.98978" lon="-0.04361">
        <ele>976</ele>
        <time>2018-06-22T18:32:43Z</time>
      </trkpt>
      <trkpt lat="42.98964" lon="-0.04358">
        <ele>975</ele>
        <time>2018-06-22T18:34:43Z</time>
      </trkpt>
      <trkpt lat="42.98925" lon="-0.04337">
        <ele>972</ele>
        <time>2018-06-22T18:38:43Z</time>
      </trkpt>
      <trkpt lat="42.9889" lon="-0.04316">
        <ele>973</ele>
        <time>2018-06-22T18:41:43Z</time>
      </trkpt>
      <trkpt lat="42.98869" lon="-0.04319">
        <ele>970</ele>
        <time>2018-06-22T18:44:43Z</time>
      </trkpt>
      <trkpt lat="42.98866" lon="-0.04322">
        <ele>970</ele>
        <time>2018-06-22T18:45:43Z</time>
      </trkpt>
      <trkpt lat="42.9885" lon="-0.04335">
        <ele>966</ele>
        <time>2018-06-22T18:47:43Z</time>
      </trkpt>
      <trkpt lat="42.98837" lon="-0.0435">
        <ele>963</ele>
        <time>2018-06-22T18:49:43Z</time>
      </trkpt>
      <trkpt lat="42.98824" lon="-0.04363">
        <ele>960</ele>
        <time>2018-06-22T18:50:43Z</time>
      </trkpt>
      <trkpt lat="42.98814" lon="-0.04372">
        <ele>959</ele>
        <time>2018-06-22T18:52:43Z</time>
      </trkpt>
      <trkpt lat="42.9879" lon="-0.0438">
        <ele>957</ele>
        <time>2018-06-22T18:56:43Z</time>
      </trkpt>
      <trkpt lat="42.98763" lon="-0.04393">
        <ele>955</ele>
        <time>2018-06-22T19:00:43Z</time>
      </trkpt>
      <trkpt lat="42.98741" lon="-0.04404">
        <ele>953</ele>
        <time>2018-06-22T19:04:43Z</time>
      </trkpt>
      <trkpt lat="42.98737" lon="-0.04406">
        <ele>953</ele>
        <time>2018-06-22T19:05:43Z</time>
      </trkpt>
      <trkpt lat="42.98706" lon="-0.04402">
        <ele>951</ele>
        <time>2018-06-22T19:09:43Z</time>
      </trkpt>
      <trkpt lat="42.9868" lon="-0.04396">
        <ele>949</ele>
        <time>2018-06-22T19:12:43Z</time>
      </trkpt>
      <trkpt lat="42.98635" lon="-0.04388">
        <ele>945</ele>
        <time>2018-06-22T19:15:43Z</time>
      </trkpt>
      <trkpt lat="42.98608" lon="-0.04382">
        <ele>942</ele>
        <time>2018-06-22T19:17:43Z</time>
      </trkpt>
      <trkpt lat="42.98569" lon="-0.04377">
        <ele>940</ele>
        <time>2018-06-22T19:20:43Z</time>
      </trkpt>
      <trkpt lat="42.98526" lon="-0.04381">
        <ele>937</ele>
        <time>2018-06-22T19:23:43Z</time>
      </trkpt>
      <trkpt lat="42.98489" lon="-0.04394">
        <ele>934</ele>
        <time>2018-06-22T19:26:43Z</time>
      </trkpt>
      <trkpt lat="42.98457" lon="-0.044">
        <ele>930</ele>
        <time>2018-06-22T19:28:43Z</time>
      </trkpt>
      <trkpt lat="42.98428" lon="-0.04405">
        <ele>927</ele>
        <time>2018-06-22T19:30:43Z</time>
      </trkpt>
      <trkpt lat="42.98423" lon="-0.04407">
        <ele>927</ele>
        <time>2018-06-22T19:31:43Z</time>
      </trkpt>
      <trkpt lat="42.98411" lon="-0.04424">
        <ele>924</ele>
        <time>2018-06-22T19:34:43Z</time>
      </trkpt>
      <trkpt lat="42.98407" lon="-0.0446">
        <ele>921</ele>
        <time>2018-06-22T19:37:43Z</time>
      </trkpt>
      <trkpt lat="42.98399" lon="-0.04473">
        <ele>920</ele>
        <time>2018-06-22T19:39:43Z</time>
      </trkpt>
      <trkpt lat="42.98367" lon="-0.04475">
        <ele>917</ele>
        <time>2018-06-22T19:45:43Z</time>
      </trkpt>
      <trkpt lat="42.98336" lon="-0.04464">
        <ele>916</ele>
        <time>2018-06-22T19:48:43Z</time>
      </trkpt>
      <trkpt lat="42.98306" lon="-0.04463">
        <ele>913</ele>
        <time>2018-06-22T19:51:43Z</time>
      </trkpt>
      <trkpt lat="42.983" lon="-0.04465">
        <ele>913</ele>
        <time>2018-06-22T19:52:43Z</time>
      </trkpt>
      <trkpt lat="42.98268" lon="-0.04478">
        <ele>909</ele>
        <time>2018-06-22T19:54:43Z</time>
      </trkpt>
      <trkpt lat="42.98249" lon="-0.04486">
        <ele>906</ele>
        <time>2018-06-22T19:55:43Z</time>
      </trkpt>
      <trkpt lat="42.98236" lon="-0.04489">
        <ele>903</ele>
        <time>2018-06-22T19:56:43Z</time>
      </trkpt>
      <trkpt lat="42.9822" lon="-0.04492">
        <ele>899</ele>
        <time>2018-06-22T19:57:43Z</time>
      </trkpt>
      <trkpt lat="42.98206" lon="-0.04494">
        <ele>896</ele>
        <time>2018-06-22T19:58:43Z</time>
      </trkpt>
      <trkpt lat="42.98187" lon="-0.0449">
        <ele>893</ele>
        <time>2018-06-22T20:00:43Z</time>
      </trkpt>
      <trkpt lat="42.98181" lon="-0.04484">
        <ele>893</ele>
        <time>2018-06-22T20:01:43Z</time>
      </trkpt>
      <trkpt lat="42.98169" lon="-0.04456">
        <ele>897</ele>
        <time>2018-06-22T20:04:43Z</time>
      </trkpt>
      <trkpt lat="42.98161" lon="-0.04435">
        <ele>900</ele>
        <time>2018-06-22T20:06:43Z</time>
      </trkpt>
      <trkpt lat="42.98156" lon="-0.0443">
        <ele>900</ele>
        <time>2018-06-22T20:07:43Z</time>
      </trkpt>
      <trkpt lat="42.98115" lon="-0.04408">
        <ele>897</ele>
        <time>2018-06-22T20:13:43Z</time>
      </trkpt>
      <trkpt lat="42.98091" lon="-0.04409">
        <ele>890</ele>
        <time>2018-06-22T20:15:43Z</time>
      </trkpt>
      <trkpt lat="42.98068" lon="-0.04416">
        <ele>883</ele>
        <time>2018-06-22T20:16:43Z</time>
      </trkpt>
      <trkpt lat="42.98055" lon="-0.0442">
        <ele>879</ele>
        <time>2018-06-22T20:17:43Z</time>
      </trkpt>
      <trkpt lat="42.98021" lon="-0.04402">
        <ele>874</ele>
        <time>2018-06-22T20:19:43Z</time>
      </trkpt>
      <trkpt lat="42.97996" lon="-0.04376">
        <ele>871</ele>
        <time>2018-06-22T20:21:43Z</time>
      </trkpt>
      <trkpt lat="42.97978" lon="-0.04302">
        <ele>877</ele>
        <time>2018-06-22T20:24:43Z</time>
      </trkpt>
      <trkpt lat="42.97976" lon="-0.04297">
        <ele>877</ele>
        <time>2018-06-22T20:25:43Z</time>
      </trkpt>
      <trkpt lat="42.97954" lon="-0.04283">
        <ele>874</ele>
        <time>2018-06-22T20:29:43Z</time>
      </trkpt>
      <trkpt lat="42.97943" lon="-0.043">
        <ele>868</ele>
        <time>2018-06-22T20:31:43Z</time>
      </trkpt>
      <trkpt lat="42.97937" lon="-0.04317">
        <ele>863</ele>
        <time>2018-06-22T20:32:43Z</time>
      </trkpt>
      <trkpt lat="42.97928" lon="-0.04326">
        <ele>859</ele>
        <time>2018-06-22T20:33:43Z</time>
      </trkpt>
      <trkpt lat="42.97915" lon="-0.04331">
        <ele>855</ele>
        <time>2018-06-22T20:34:43Z</time>
      </trkpt>
      <trkpt lat="42.9787" lon="-0.04344">
        <ele>848</ele>
        <time>2018-06-22T20:36:43Z</time>
      </trkpt>
      <trkpt lat="42.97851" lon="-0.04344">
        <ele>845</ele>
        <time>2018-06-22T20:38:43Z</time>
      </trkpt>
      <trkpt lat="42.97847" lon="-0.04342">
        <ele>845</ele>
        <time>2018-06-22T20:39:43Z</time>
      </trkpt>
      <trkpt lat="42.97808" lon="-0.04292">
        <ele>849</ele>
        <time>2018-06-22T20:43:43Z</time>
      </trkpt>
      <trkpt lat="42.9779" lon="-0.0428">
        <ele>850</ele>
        <time>2018-06-22T20:45:43Z</time>
      </trkpt>
      <trkpt lat="42.97742" lon="-0.04263">
        <ele>854</ele>
        <time>2018-06-22T20:47:43Z</time>
      </trkpt>
      <trkpt lat="42.9773" lon="-0.04262">
        <ele>855</ele>
        <time>2018-06-22T20:49:43Z</time>
      </trkpt>
      <trkpt lat="42.97682" lon="-0.04278">
        <ele>856</ele>
        <time>2018-06-22T20:52:43Z</time>
      </trkpt>
      <trkpt lat="42.97645" lon="-0.04299">
        <ele>853</ele>
        <time>2018-06-22T20:53:43Z</time>
      </trkpt>
      <trkpt lat="42.97602" lon="-0.04325">
        <ele>848</ele>
        <time>2018-06-22T20:54:43Z</time>
      </trkpt>
      <trkpt lat="42.97587" lon="-0.04335">
        <ele>845</ele>
        <time>2018-06-22T20:55:43Z</time>
      </trkpt>
      <trkpt lat="42.97574" lon="-0.04344">
        <ele>845</ele>
        <time>2018-06-22T20:56:43Z</time>
      </trkpt>
      <trkpt lat="42.97565" lon="-0.0435">
        <ele>845</ele>
        <time>2018-06-22T20:58:43Z</time>
      </trkpt>
      <trkpt lat="42.97531" lon="-0.04383">
        <ele>841</ele>
        <time>2018-06-22T21:00:43Z</time>
      </trkpt>
      <trkpt lat="42.97521" lon="-0.04399">
        <ele>838</ele>
        <time>2018-06-22T21:01:43Z</time>
      </trkpt>
      <trkpt lat="42.97494" lon="-0.04451">
        <ele>828</ele>
        <time>2018-06-22T21:02:43Z</time>
      </trkpt>
      <trkpt lat="42.97453" lon="-0.04501">
        <ele>824</ele>
        <time>2018-06-22T21:04:43Z</time>
      </trkpt>
      <trkpt lat="42.97384" lon="-0.04565">
        <ele>818</ele>
        <time>2018-06-22T21:06:43Z</time>
      </trkpt>
      <trkpt lat="42.97361" lon="-0.04578">
        <ele>815</ele>
        <time>2018-06-22T21:07:43Z</time>
      </trkpt>
      <trkpt lat="42.97354" lon="-0.04587">
        <ele>813</ele>
        <time>2018-06-22T21:09:43Z</time>
      </trkpt>
      <trkpt lat="42.97355" lon="-0.04603">
        <ele>810</ele>
        <time>2018-06-22T21:11:43Z</time>
      </trkpt>
      <trkpt lat="42.97389" lon="-0.04631">
        <ele>807</ele>
        <time>2018-06-22T21:13:43Z</time>
      </trkpt>
      <trkpt lat="42.974" lon="-0.04635">
        <ele>807</ele>
        <time>2018-06-22T21:14:43Z</time>
      </trkpt>
      <trkpt lat="42.97431" lon="-0.04626">
        <ele>808</ele>
        <time>2018-06-22T21:18:43Z</time>
      </trkpt>
      <trkpt lat="42.97481" lon="-0.04609">
        <ele>806</ele>
        <time>2018-06-22T21:21:43Z</time>
      </trkpt>
      <trkpt lat="42.97489" lon="-0.04607">
        <ele>806</ele>
        <time>2018-06-22T21:22:43Z</time>
      </trkpt>
      <trkpt lat="42.97514" lon="-0.04612">
        <ele>804</ele>
        <time>2018-06-22T21:25:43Z</time>
      </trkpt>
      <trkpt lat="42.97558" lon="-0.04629">
        <ele>800</ele>
        <time>2018-06-22T21:28:43Z</time>
      </trkpt>
      <trkpt lat="42.97571" lon="-0.04628">
        <ele>800</ele>
        <time>2018-06-22T21:29:43Z</time>
      </trkpt>
      <trkpt lat="42.97618" lon="-0.04613">
        <ele>797</ele>
        <time>2018-06-22T21:31:43Z</time>
      </trkpt>
      <trkpt lat="42.97625" lon="-0.04608">
        <ele>797</ele>
        <time>2018-06-22T21:32:43Z</time>
      </trkpt>
      <trkpt lat="42.97657" lon="-0.0457">
        <ele>802</ele>
        <time>2018-06-22T21:36:43Z</time>
      </trkpt>
      <trkpt lat="42.97667" lon="-0.04552">
        <ele>806</ele>
        <time>2018-06-22T21:37:43Z</time>
      </trkpt>
      <trkpt lat="42.97679" lon="-0.04537">
        <ele>811</ele>
        <time>2018-06-22T21:38:43Z</time>
      </trkpt>
      <trkpt lat="42.97705" lon="-0.04552">
        <ele>808</ele>
        <time>2018-06-22T21:41:43Z</time>
      </trkpt>
      <trkpt lat="42.97711" lon="-0.04582">
        <ele>801</ele>
        <time>2018-06-22T21:42:43Z</time>
      </trkpt>
      <trkpt lat="42.97717" lon="-0.04596">
        <ele>798</ele>
        <time>2018-06-22T21:43:43Z</time>
      </trkpt>
      <trkpt lat="42.97727" lon="-0.04613">
        <ele>795</ele>
        <time>2018-06-22T21:45:43Z</time>
      </trkpt>
      <trkpt lat="42.97731" lon="-0.04632">
        <ele>791</ele>
        <time>2018-06-22T21:46:43Z</time>
      </trkpt>
      <trkpt lat="42.97734" lon="-0.04646">
        <ele>788</ele>
        <time>2018-06-22T21:47:43Z</time>
      </trkpt>
      <trkpt lat="42.97738" lon="-0.04668">
        <ele>784</ele>
        <time>2018-06-22T21:48:43Z</time>
      </trkpt>
      <trkpt lat="42.97742" lon="-0.04686">
        <ele>781</ele>
        <time>2018-06-22T21:49:43Z</time>
      </trkpt>
      <trkpt lat="42.97744" lon="-0.04706">
        <ele>778</ele>
        <time>2018-06-22T21:50:43Z</time>
      </trkpt>
      <trkpt lat="42.97746" lon="-0.04726">
        <ele>775</ele>
        <time>2018-06-22T21:51:43Z</time>
      </trkpt>
      <trkpt lat="42.97759" lon="-0.04748">
        <ele>773</ele>
        <time>2018-06-22T21:53:43Z</time>
      </trkpt>
      <trkpt lat="42.97793" lon="-0.04769">
        <ele>776</ele>
        <time>2018-06-22T21:55:43Z</time>
      </trkpt>
      <trkpt lat="42.97811" lon="-0.04784">
        <ele>776</ele>
        <time>2018-06-22T21:56:43Z</time>
      </trkpt>
      <trkpt lat="42.97878" lon="-0.0483">
        <ele>774</ele>
        <time>2018-06-22T22:00:43Z</time>
      </trkpt>
      <trkpt lat="42.97899" lon="-0.04856">
        <ele>772</ele>
        <time>2018-06-22T22:02:43Z</time>
      </trkpt>
      <trkpt lat="42.97905" lon="-0.04865">
        <ele>772</ele>
        <time>2018-06-22T22:03:43Z</time>
      </trkpt>
      <trkpt lat="42.97917" lon="-0.04917">
        <ele>767</ele>
        <time>2018-06-22T22:06:43Z</time>
      </trkpt>
      <trkpt lat="42.97922" lon="-0.04932">
        <ele>764</ele>
        <time>2018-06-22T22:07:43Z</time>
      </trkpt>
      <trkpt lat="42.9794" lon="-0.04958">
        <ele>759</ele>
        <time>2018-06-22T22:08:43Z</time>
      </trkpt>
      <trkpt lat="42.97964" lon="-0.04973">
        <ele>757</ele>
        <time>2018-06-22T22:10:43Z</time>
      </trkpt>
      <trkpt lat="42.98009" lon="-0.04967">
        <ele>761</ele>
        <time>2018-06-22T22:12:43Z</time>
      </trkpt>
      <trkpt lat="42.98035" lon="-0.04966">
        <ele>761</ele>
        <time>2018-06-22T22:13:43Z</time>
      </trkpt>
      <trkpt lat="42.98081" lon="-0.04977">
        <ele>758</ele>
        <time>2018-06-22T22:15:43Z</time>
      </trkpt>
      <trkpt lat="42.9813" lon="-0.04988">
        <ele>759</ele>
        <time>2018-06-22T22:17:43Z</time>
      </trkpt>
      <trkpt lat="42.9816" lon="-0.05003">
        <ele>756</ele>
        <time>2018-06-22T22:20:43Z</time>
      </trkpt>
      <trkpt lat="42.98174" lon="-0.0501">
        <ele>755</ele>
        <time>2018-06-22T22:22:43Z</time>
      </trkpt>
      <trkpt lat="42.98198" lon="-0.05022">
        <ele>752</ele>
        <time>2018-06-22T22:25:43Z</time>
      </trkpt>
      <trkpt lat="42.98206" lon="-0.05024">
        <ele>752</ele>
        <time>2018-06-22T22:26:43Z</time>
      </trkpt>
      <trkpt lat="42.98245" lon="-0.05034">
        <ele>750</ele>
        <time>2018-06-22T22:31:43Z</time>
      </trkpt>
      <trkpt lat="42.9827" lon="-0.05044">
        <ele>746</ele>
        <time>2018-06-22T22:34:43Z</time>
      </trkpt>
      <trkpt lat="42.98283" lon="-0.0505">
        <ele>743</ele>
        <time>2018-06-22T22:36:43Z</time>
      </trkpt>
      <trkpt lat="42.98297" lon="-0.05056">
        <ele>740</ele>
        <time>2018-06-22T22:38:43Z</time>
      </trkpt>
      <trkpt lat="42.98333" lon="-0.05046">
        <ele>743</ele>
        <time>2018-06-22T22:43:43Z</time>
      </trkpt>
      <trkpt lat="42.9835" lon="-0.05037">
        <ele>748</ele>
        <time>2018-06-22T22:45:43Z</time>
      </trkpt>
      <trkpt lat="42.98365" lon="-0.05031">
        <ele>751</ele>
        <time>2018-06-22T22:47:43Z</time>
      </trkpt>
      <trkpt lat="42.98385" lon="-0.05029">
        <ele>753</ele>
        <time>2018-06-22T22:50:43Z</time>
      </trkpt>
      <trkpt lat="42.98404" lon="-0.05039">
        <ele>750</ele>
        <time>2018-06-22T22:54:43Z</time>
      </trkpt>
      <trkpt lat="42.98409" lon="-0.05051">
        <ele>746</ele>
        <time>2018-06-22T22:55:43Z</time>
      </trkpt>
      <trkpt lat="42.98415" lon="-0.05084">
        <ele>735</ele>
        <time>2018-06-22T22:56:43Z</time>
      </trkpt>
      <trkpt lat="42.98422" lon="-0.05102">
        <ele>731</ele>
        <time>2018-06-22T22:58:43Z</time>
      </trkpt>
      <trkpt lat="42.98434" lon="-0.05118">
        <ele>730</ele>
        <time>2018-06-22T23:00:43Z</time>
      </trkpt>
      <trkpt lat="42.98471" lon="-0.05155">
        <ele>728</ele>
        <time>2018-06-22T23:04:43Z</time>
      </trkpt>
      <trkpt lat="42.985" lon="-0.05168">
        <ele>731</ele>
        <time>2018-06-22T23:07:43Z</time>
      </trkpt>
      <trkpt lat="42.98524" lon="-0.05195">
        <ele>727</ele>
        <time>2018-06-22T23:09:43Z</time>
      </trkpt>
      <trkpt lat="42.98531" lon="-0.05208">
        <ele>724</ele>
        <time>2018-06-22T23:10:43Z</time>
      </trkpt>
      <trkpt lat="42.98554" lon="-0.05254">
        <ele>716</ele>
        <time>2018-06-22T23:12:43Z</time>
      </trkpt>
      <trkpt lat="42.98586" lon="-0.05306">
        <ele>713</ele>
        <time>2018-06-22T23:14:43Z</time>
      </trkpt>
      <trkpt lat="42.98611" lon="-0.0535">
        <ele>709</ele>
        <time>2018-06-22T23:16:43Z</time>
      </trkpt>
      <trkpt lat="42.98635" lon="-0.0539">
        <ele>707</ele>
        <time>2018-06-22T23:19:43Z</time>
      </trkpt>
      <trkpt lat="42.98659" lon="-0.05449">
        <ele>704</ele>
        <time>2018-06-22T23:23:43Z</time>
      </trkpt>
      <trkpt lat="42.98665" lon="-0.05473">
        <ele>701</ele>
        <time>2018-06-22T23:24:43Z</time>
      </trkpt>
      <trkpt lat="42.98678" lon="-0.05516">
        <ele>698</ele>
        <time>2018-06-22T23:27:43Z</time>
      </trkpt>
      <trkpt lat="42.98682" lon="-0.05543">
        <ele>694</ele>
        <time>2018-06-22T23:28:43Z</time>
      </trkpt>
      <trkpt lat="42.98688" lon="-0.05572">
        <ele>689</ele>
        <time>2018-06-22T23:29:43Z</time>
      </trkpt>
      <trkpt lat="42.98693" lon="-0.05586">
        <ele>688</ele>
        <time>2018-06-22T23:31:43Z</time>
      </trkpt>
      <trkpt lat="42.98732" lon="-0.05619">
        <ele>690</ele>
        <time>2018-06-22T23:36:43Z</time>
      </trkpt>
      <trkpt lat="42.9875" lon="-0.05628">
        <ele>693</ele>
        <time>2018-06-22T23:38:43Z</time>
      </trkpt>
      <trkpt lat="42.98767" lon="-0.05661">
        <ele>688</ele>
        <time>2018-06-22T23:42:43Z</time>
      </trkpt>
      <trkpt lat="42.98776" lon="-0.05688">
        <ele>683</ele>
        <time>2018-06-22T23:43:43Z</time>
      </trkpt>
      <trkpt lat="42.9878" lon="-0.05701">
        <ele>680</ele>
        <time>2018-06-22T23:44:43Z</time>
      </trkpt>
      <trkpt lat="42.98787" lon="-0.0572">
        <ele>677</ele>
        <time>2018-06-22T23:45:43Z</time>
      </trkpt>
      <trkpt lat="42.98792" lon="-0.05735">
        <ele>673</ele>
        <time>2018-06-22T23:46:43Z</time>
      </trkpt>
      <trkpt lat="42.98798" lon="-0.0575">
        <ele>670</ele>
        <time>2018-06-22T23:48:43Z</time>
      </trkpt>
      <trkpt lat="42.98801" lon="-0.05755">
        <ele>669</ele>
        <time>2018-06-22T23:50:43Z</time>
      </trkpt>
      <trkpt lat="42.98847" lon="-0.0578">
        <ele>673</ele>
        <time>2018-06-22T23:53:43Z</time>
      </trkpt>
      <trkpt lat="42.98871" lon="-0.05793">
        <ele>673</ele>
        <time>2018-06-22T23:54:43Z</time>
      </trkpt>
      <trkpt lat="42.98898" lon="-0.05815">
        <ele>669</ele>
        <time>2018-06-22T23:56:43Z</time>
      </trkpt>
      <trkpt lat="42.98908" lon="-0.05828">
        <ele>666</ele>
        <time>2018-06-22T23:57:43Z</time>
      </trkpt>
      <trkpt lat="42.98923" lon="-0.05851">
        <ele>660</ele>
        <time>2018-06-22T23:58:43Z</time>
      </trkpt>
      <trkpt lat="42.98925" lon="-0.05854">
        <ele>659</ele>
        <time>2018-06-23T00:00:43Z</time>
      </trkpt>
      <trkpt lat="42.98932" lon="-0.05868">
        <ele>656</ele>
        <time>2018-06-23T00:01:43Z</time>
      </trkpt>
      <trkpt lat="42.98945" lon="-0.0589">
        <ele>652</ele>
        <time>2018-06-23T00:02:43Z</time>
      </trkpt>
      <trkpt lat="42.98963" lon="-0.05926">
        <ele>646</ele>
        <time>2018-06-23T00:04:43Z</time>
      </trkpt>
      <trkpt lat="42.9897" lon="-0.05948">
        <ele>642</ele>
        <time>2018-06-23T00:05:43Z</time>
      </trkpt>
      <trkpt lat="42.98976" lon="-0.05967">
        <ele>638</ele>
        <time>2018-06-23T00:06:43Z</time>
      </trkpt>
      <trkpt lat="42.98977" lon="-0.05969">
        <ele>638</ele>
        <time>2018-06-23T00:07:43Z</time>
      </trkpt>
      <trkpt lat="42.98992" lon="-0.05988">
        <ele>635</ele>
        <time>2018-06-23T00:09:43Z</time>
      </trkpt>
      <trkpt lat="42.99021" lon="-0.05994">
        <ele>630</ele>
        <time>2018-06-23T00:12:43Z</time>
      </trkpt>
      <trkpt lat="42.99027" lon="-0.05991">
        <ele>630</ele>
        <time>2018-06-23T00:13:43Z</time>
      </trkpt>
      <trkpt lat="42.99049" lon="-0.05973">
        <ele>631</ele>
        <time>2018-06-23T00:15:43Z</time>
      </trkpt>
      <trkpt lat="42.99097" lon="-0.05934">
        <ele>632</ele>
        <time>2018-06-23T00:16:43Z</time>
      </trkpt>
      <trkpt lat="42.99118" lon="-0.05915">
        <ele>632</ele>
        <time>2018-06-23T00:18:43Z</time>
      </trkpt>
      <trkpt lat="42.99141" lon="-0.05899">
        <ele>630</ele>
        <time>2018-06-23T00:20:43Z</time>
      </trkpt>
      <trkpt lat="42.99155" lon="-0.05897">
        <ele>626</ele>
        <time>2018-06-23T00:22:43Z</time>
      </trkpt>
      <trkpt lat="42.99166" lon="-0.05899">
        <ele>622</ele>
        <time>2018-06-23T00:23:43Z</time>
      </trkpt>
      <trkpt lat="42.99201" lon="-0.05904">
        <ele>617</ele>
        <time>2018-06-23T00:25:43Z</time>
      </trkpt>
      <trkpt lat="42.99236" lon="-0.05899">
        <ele>615</ele>
        <time>2018-06-23T00:28:43Z</time>
      </trkpt>
      <trkpt lat="42.99277" lon="-0.05876">
        <ele>615</ele>
        <time>2018-06-23T00:32:43Z</time>
      </trkpt>
      <trkpt lat="42.99312" lon="-0.05831">
        <ele>616</ele>
        <time>2018-06-23T00:36:43Z</time>
      </trkpt>
      <trkpt lat="42.99321" lon="-0.0579">
        <ele>621</ele>
        <time>2018-06-23T00:38:43Z</time>
      </trkpt>
      <trkpt lat="42.99328" lon="-0.05772">
        <ele>623</ele>
        <time>2018-06-23T00:40:43Z</time>
      </trkpt>
      <trkpt lat="42.99339" lon="-0.05758">
        <ele>625</ele>
        <time>2018-06-23T00:43:43Z</time>
      </trkpt>
      <trkpt lat="42.99349" lon="-0.05756">
        <ele>627</ele>
        <time>2018-06-23T00:46:43Z</time>
      </trkpt>
      <trkpt lat="42.99374" lon="-0.05816">
        <ele>621</ele>
        <time>2018-06-23T00:51:43Z</time>
      </trkpt>
      <trkpt lat="42.99384" lon="-0.05851">
        <ele>616</ele>
        <time>2018-06-23T00:52:43Z</time>
      </trkpt>
      <trkpt lat="42.99397" lon="-0.05886">
        <ele>610</ele>
        <time>2018-06-23T00:53:43Z</time>
      </trkpt>
      <trkpt lat="42.99415" lon="-0.05922">
        <ele>602</ele>
        <time>2018-06-23T00:54:43Z</time>
      </trkpt>
      <trkpt lat="42.99425" lon="-0.05952">
        <ele>599</ele>
        <time>2018-06-23T00:56:43Z</time>
      </trkpt>
      <trkpt lat="42.99429" lon="-0.05971">
        <ele>596</ele>
        <time>2018-06-23T00:58:43Z</time>
      </trkpt>
      <trkpt lat="42.99438" lon="-0.05996">
        <ele>593</ele>
        <time>2018-06-23T01:01:43Z</time>
      </trkpt>
      <trkpt lat="42.99443" lon="-0.06005">
        <ele>593</ele>
        <time>2018-06-23T01:02:43Z</time>
      </trkpt>
      <trkpt lat="42.99456" lon="-0.06028">
        <ele>593</ele>
        <time>2018-06-23T01:05:43Z</time>
      </trkpt>
      <trkpt lat="42.99474" lon="-0.06051">
        <ele>592</ele>
        <time>2018-06-23T01:08:43Z</time>
      </trkpt>
      <trkpt lat="42.99523" lon="-0.06106">
        <ele>588</ele>
        <time>2018-06-23T01:11:43Z</time>
      </trkpt>
      <trkpt lat="42.99535" lon="-0.06119">
        <ele>586</ele>
        <time>2018-06-23T01:13:43Z</time>
      </trkpt>
      <trkpt lat="42.99545" lon="-0.06134">
        <ele>583</ele>
        <time>2018-06-23T01:15:43Z</time>
      </trkpt>
      <trkpt lat="42.9956" lon="-0.0615">
        <ele>579</ele>
        <time>2018-06-23T01:17:43Z</time>
      </trkpt>
      <trkpt lat="42.99582" lon="-0.06161">
        <ele>576</ele>
        <time>2018-06-23T01:20:43Z</time>
      </trkpt>
      <trkpt lat="42.99597" lon="-0.06167">
        <ele>573</ele>
        <time>2018-06-23T01:21:43Z</time>
      </trkpt>
      <trkpt lat="42.99632" lon="-0.06179">
        <ele>570</ele>
        <time>2018-06-23T01:23:43Z</time>
      </trkpt>
      <trkpt lat="42.99637" lon="-0.0618">
        <ele>570</ele>
        <time>2018-06-23T01:24:43Z</time>
      </trkpt>
      <trkpt lat="42.99655" lon="-0.06179">
        <ele>569</ele>
        <time>2018-06-23T01:28:43Z</time>
      </trkpt>
      <trkpt lat="42.99696" lon="-0.0619">
        <ele>568</ele>
        <time>2018-06-23T01:34:43Z</time>
      </trkpt>
      <trkpt lat="42.99734" lon="-0.06196">
        <ele>568</ele>
        <time>2018-06-23T01:37:43Z</time>
      </trkpt>
      <trkpt lat="42.99773" lon="-0.06185">
        <ele>569</ele>
        <time>2018-06-23T01:41:43Z</time>
      </trkpt>
      <trkpt lat="42.99796" lon="-0.062">
        <ele>567</ele>
        <time>2018-06-23T01:47:43Z</time>
      </trkpt>
      <trkpt lat="42.99807" lon="-0.06206">
        <ele>566</ele>
        <time>2018-06-23T01:49:43Z</time>
      </trkpt>
      <trkpt lat="42.99849" lon="-0.06198">
        <ele>566</ele>
        <time>2018-06-23T01:55:43Z</time>
      </trkpt>
      <trkpt lat="42.99878" lon="-0.0621">
        <ele>562</ele>
        <time>2018-06-23T01:59:43Z</time>
      </trkpt>
      <trkpt lat="42.99883" lon="-0.06212">
        <ele>562</ele>
        <time>2018-06-23T02:00:43Z</time>
      </trkpt>
      <trkpt lat="42.99909" lon="-0.0622">
        <ele>558</ele>
        <time>2018-06-23T02:03:43Z</time>
      </trkpt>
      <trkpt lat="42.99927" lon="-0.06229">
        <ele>556</ele>
        <time>2018-06-23T02:06:43Z</time>
      </trkpt>
      <trkpt lat="42.99942" lon="-0.06244">
        <ele>552</ele>
        <time>2018-06-23T02:09:43Z</time>
      </trkpt>
      <trkpt lat="42.9995" lon="-0.06259">
        <ele>548</ele>
        <time>2018-06-23T02:10:43Z</time>
      </trkpt>
      <trkpt lat="42.9996" lon="-0.06274">
        <ele>545</ele>
        <time>2018-06-23T02:11:43Z</time>
      </trkpt>
      <trkpt lat="42.99969" lon="-0.06282">
        <ele>542</ele>
        <time>2018-06-23T02:13:43Z</time>
      </trkpt>
      <trkpt lat="42.99971" lon="-0.06283">
        <ele>542</ele>
        <time>2018-06-23T02:14:43Z</time>
      </trkpt>
      <trkpt lat="43.00023" lon="-0.06285">
        <ele>538</ele>
        <time>2018-06-23T02:19:43Z</time>
      </trkpt>
      <trkpt lat="43.00053" lon="-0.06285">
        <ele>534</ele>
        <time>2018-06-23T02:21:43Z</time>
      </trkpt>
      <trkpt lat="43.0008" lon="-0.06279">
        <ele>533</ele>
        <time>2018-06-23T02:23:43Z</time>
      </trkpt>
      <trkpt lat="43.00139" lon="-0.06232">
        <ele>534</ele>
        <time>2018-06-23T02:27:43Z</time>
      </trkpt>
      <trkpt lat="43.00154" lon="-0.06229">
        <ele>531</ele>
        <time>2018-06-23T02:29:43Z</time>
      </trkpt>
      <trkpt lat="43.00172" lon="-0.06229">
        <ele>529</ele>
        <time>2018-06-23T02:31:43Z</time>
      </trkpt>
      <trkpt lat="43.00208" lon="-0.0624">
        <ele>530</ele>
        <time>2018-06-23T02:36:43Z</time>
      </trkpt>
      <trkpt lat="43.00215" lon="-0.06261">
        <ele>527</ele>
        <time>2018-06-23T02:39:43Z</time>
      </trkpt>
      <trkpt lat="43.00218" lon="-0.06279">
        <ele>524</ele>
        <time>2018-06-23T02:40:43Z</time>
      </trkpt>
      <trkpt lat="43.00222" lon="-0.06302">
        <ele>521</ele>
        <time>2018-06-23T02:41:43Z</time>
      </trkpt>
      <trkpt lat="43.00229" lon="-0.06325">
        <ele>518</ele>
        <time>2018-06-23T02:42:43Z</time>
      </trkpt>
      <trkpt lat="43.00229" lon="-0.06326">
        <ele>518</ele>
        <time>2018-06-23T02:43:43Z</time>
      </trkpt>
      <trkpt lat="43.00241" lon="-0.06358">
        <ele>514</ele>
        <time>2018-06-23T02:44:43Z</time>
      </trkpt>
      <trkpt lat="43.00245" lon="-0.06365">
        <ele>514</ele>
        <time>2018-06-23T02:45:43Z</time>
      </trkpt>
      <trkpt lat="43.00257" lon="-0.06387">
        <ele>511</ele>
        <time>2018-06-23T02:47:43Z</time>
      </trkpt>
      <trkpt lat="43.00278" lon="-0.06406">
        <ele>510</ele>
        <time>2018-06-23T02:49:43Z</time>
      </trkpt>
      <trkpt lat="43.00324" lon="-0.0643">
        <ele>510</ele>
        <time>2018-06-23T02:51:43Z</time>
      </trkpt>
      <trkpt lat="43.0037" lon="-0.06453">
        <ele>506</ele>
        <time>2018-06-23T02:52:43Z</time>
      </trkpt>
      <trkpt lat="43.00392" lon="-0.06468">
        <ele>503</ele>
        <time>2018-06-23T02:54:43Z</time>
      </trkpt>
      <trkpt lat="43.00406" lon="-0.06486">
        <ele>499</ele>
        <time>2018-06-23T02:56:43Z</time>
      </trkpt>
      <trkpt lat="43.00412" lon="-0.06489">
        <ele>499</ele>
        <time>2018-06-23T02:57:43Z</time>
      </trkpt>
      <trkpt lat="43.00429" lon="-0.06499">
        <ele>496</ele>
        <time>2018-06-23T02:58:43Z</time>
      </trkpt>
      <trkpt lat="43.00443" lon="-0.06522">
        <ele>493</ele>
        <time>2018-06-23T03:01:43Z</time>
      </trkpt>
      <trkpt lat="43.00449" lon="-0.06529">
        <ele>492</ele>
        <time>2018-06-23T03:03:43Z</time>
      </trkpt>
      <trkpt lat="43.0047" lon="-0.06543">
        <ele>489</ele>
        <time>2018-06-23T03:09:43Z</time>
      </trkpt>
      <trkpt lat="43.00481" lon="-0.06557">
        <ele>487</ele>
        <time>2018-06-23T03:11:43Z</time>
      </trkpt>
      <trkpt lat="43.00446" lon="-0.0661">
        <ele>483</ele>
        <time>2018-06-23T03:14:43Z</time>
      </trkpt>
      <trkpt lat="43.00418" lon="-0.0665">
        <ele>480</ele>
        <time>2018-06-23T03:15:43Z</time>
      </trkpt>
      <trkpt lat="43.00408" lon="-0.06662">
        <ele>478</ele>
        <time>2018-06-23T03:17:43Z</time>
      </trkpt>
      <trkpt lat="43.00402" lon="-0.0667">
        <ele>478</ele>
        <time>2018-06-23T03:18:43Z</time>
      </trkpt>
      <trkpt lat="43.00374" lon="-0.067">
        <ele>475</ele>
        <time>2018-06-23T03:21:43Z</time>
      </trkpt>
      <trkpt lat="43.00349" lon="-0.06731">
        <ele>472</ele>
        <time>2018-06-23T03:23:43Z</time>
      </trkpt>
      <trkpt lat="43.00348" lon="-0.06732">
        <ele>472</ele>
        <time>2018-06-23T03:24:43Z</time>
      </trkpt>
      <trkpt lat="43.00324" lon="-0.06764">
        <ele>469</ele>
        <time>2018-06-23T03:26:43Z</time>
      </trkpt>
      <trkpt lat="43.00283" lon="-0.06828">
        <ele>464</ele>
        <time>2018-06-23T03:28:43Z</time>
      </trkpt>
      <trkpt lat="43.00267" lon="-0.06865">
        <ele>463</ele>
        <time>2018-06-23T03:30:43Z</time>
      </trkpt>
      <trkpt lat="43.00277" lon="-0.06893">
        <ele>462</ele>
        <time>2018-06-23T03:34:43Z</time>
      </trkpt>
      <trkpt lat="43.00255" lon="-0.06905">
        <ele>461</ele>
        <time>2018-06-23T03:38:43Z</time>
      </trkpt>
      <trkpt lat="43.00227" lon="-0.06914">
        <ele>460</ele>
        <time>2018-06-23T03:39:43Z</time>
      </trkpt>
      <trkpt lat="43.0016" lon="-0.06938">
        <ele>456</ele>
        <time>2018-06-23T03:40:43Z</time>
      </trkpt>
      <trkpt lat="43.00123" lon="-0.06951">
        <ele>457</ele>
        <time>2018-06-23T03:41:43Z</time>
      </trkpt>
      <trkpt lat="43.00122" lon="-0.06963">
        <ele>456</ele>
        <time>2018-06-23T03:43:43Z</time>
      </trkpt>
      <trkpt lat="43.00126" lon="-0.0699">
        <ele>455</ele>
        <time>2018-06-23T03:47:43Z</time>
      </trkpt>
      <trkpt lat="43.0014" lon="-0.07024">
        <ele>452</ele>
        <time>2018-06-23T03:51:43Z</time>
      </trkpt>
      <trkpt lat="43.00158" lon="-0.07055">
        <ele>449</ele>
        <time>2018-06-23T03:53:43Z</time>
      </trkpt>
      <trkpt lat="43.00189" lon="-0.07112">
        <ele>446</ele>
        <time>2018-06-23T03:55:43Z</time>
      </trkpt>
      <trkpt lat="43.00208" lon="-0.07151">
        <ele>443</ele>
        <time>2018-06-23T03:56:43Z</time>
      </trkpt>
      <trkpt lat="43.00211" lon="-0.07156">
        <ele>443</ele>
        <time>2018-06-23T03:57:43Z</time>
      </trkpt>
      <trkpt lat="43.00233" lon="-0.07216">
        <ele>440</ele>
        <time>2018-06-23T03:59:43Z</time>
      </trkpt>
      <trkpt lat="43.00267" lon="-0.07323">
        <ele>437</ele>
        <time>2018-06-23T04:01:43Z</time>
      </trkpt>
      <trkpt lat="43.00281" lon="-0.07369">
        <ele>440</ele>
        <time>2018-06-23T04:02:43Z</time>
      </trkpt>
      <trkpt lat="43.00289" lon="-0.07395">
        <ele>442</ele>
        <time>2018-06-23T04:04:43Z</time>
      </trkpt>
      <trkpt lat="43.00296" lon="-0.07426">
        <ele>444</ele>
        <time>2018-06-23T04:06:43Z</time>
      </trkpt>
      <trkpt lat="43.00297" lon="-0.07472">
        <ele>445</ele>
        <time>2018-06-23T04:10:43Z</time>
      </trkpt>
      <trkpt lat="43.00294" lon="-0.07524">
        <ele>446</ele>
        <time>2018-06-23T04:13:43Z</time>
      </trkpt>
      <trkpt lat="43.00301" lon="-0.07592">
        <ele>449</ele>
        <time>2018-06-23T04:16:43Z</time>
      </trkpt>
      <trkpt lat="43.00305" lon="-0.07612">
        <ele>449</ele>
        <time>2018-06-23T04:17:43Z</time>
      </trkpt>
      <trkpt lat="43.00329" lon="-0.07694">
        <ele>449</ele>
        <time>2018-06-23T04:21:43Z</time>
      </trkpt>
      <trkpt lat="43.00347" lon="-0.07748">
        <ele>448</ele>
        <time>2018-06-23T04:23:43Z</time>
      </trkpt>
      <trkpt lat="43.00353" lon="-0.07782">
        <ele>445</ele>
        <time>2018-06-23T04:24:43Z</time>
      </trkpt>
      <trkpt lat="43.00369" lon="-0.07844">
        <ele>441</ele>
        <time>2018-06-23T04:26:43Z</time>
      </trkpt>
      <trkpt lat="43.0038" lon="-0.07868">
        <ele>441</ele>
        <time>2018-06-23T04:27:43Z</time>
      </trkpt>
      <trkpt lat="43.00408" lon="-0.07916">
        <ele>437</ele>
        <time>2018-06-23T04:29:43Z</time>
      </trkpt>
      <trkpt lat="43.0043" lon="-0.07939">
        <ele>438</ele>
        <time>2018-06-23T04:30:43Z</time>
      </trkpt>
      <trkpt lat="43.00449" lon="-0.07957">
        <ele>440</ele>
        <time>2018-06-23T04:32:43Z</time>
      </trkpt>
      <trkpt lat="43.00466" lon="-0.07974">
        <ele>441</ele>
        <time>2018-06-23T04:36:43Z</time>
      </trkpt>
      <trkpt lat="43.00469" lon="-0.07977">
        <ele>441</ele>
        <time>2018-06-23T04:37:43Z</time>
      </trkpt>
      <trkpt lat="43.00497" lon="-0.08024">
        <ele>438</ele>
        <time>2018-06-23T04:43:43Z</time>
      </trkpt>
      <trkpt lat="43.00502" lon="-0.08032">
        <ele>437</ele>
        <time>2018-06-23T04:45:43Z</time>
      </trkpt>
      <trkpt lat="43.00513" lon="-0.08055">
        <ele>434</ele>
        <time>2018-06-23T04:48:43Z</time>
      </trkpt>
      <trkpt lat="43.00528" lon="-0.08078">
        <ele>431</ele>
        <time>2018-06-23T04:49:43Z</time>
      </trkpt>
      <trkpt lat="43.00533" lon="-0.08086">
        <ele>431</ele>
        <time>2018-06-23T04:50:43Z</time>
      </trkpt>
      <trkpt lat="43.00542" lon="-0.08145">
        <ele>426</ele>
        <time>2018-06-23T04:54:43Z</time>
      </trkpt>
      <trkpt lat="43.00545" lon="-0.08205">
        <ele>423</ele>
        <time>2018-06-23T04:56:43Z</time>
      </trkpt>
      <trkpt lat="43.00545" lon="-0.0822">
        <ele>423</ele>
        <time>2018-06-23T04:57:43Z</time>
      </trkpt>
      <trkpt lat="43.0054" lon="-0.0825">
        <ele>423</ele>
        <time>2018-06-23T05:01:43Z</time>
      </trkpt>
      <trkpt lat="43.00543" lon="-0.08253">
        <ele>423</ele>
        <time>2018-06-23T05:04:43Z</time>
      </trkpt>
      <trkpt lat="43.00549" lon="-0.08271">
        <ele>423</ele>
        <time>2018-06-23T05:11:43Z</time>
      </trkpt>
      <trkpt lat="43.00546" lon="-0.0829">
        <ele>423</ele>
        <time>2018-06-23T05:17:43Z</time>
      </trkpt>
      <trkpt lat="43.00531" lon="-0.08304">
        <ele>423</ele>
        <time>2018-06-23T05:25:43Z</time>
      </trkpt>
      <trkpt lat="43.00501" lon="-0.0833">
        <ele>423</ele>
        <time>2018-06-23T05:32:43Z</time>
      </trkpt>
      <trkpt lat="43.00501" lon="-0.08345">
        <ele>423</ele>
        <time>2018-06-23T05:34:43Z</time>
      </trkpt>
      <trkpt lat="43.00519" lon="-0.08423">
        <ele>424</ele>
        <time>2018-06-23T05:39:43Z</time>
      </trkpt>
      <trkpt lat="43.0053" lon="-0.08485">
        <ele>424</ele>
        <time>2018-06-23T05:41:43Z</time>
      </trkpt>
      <trkpt lat="43.00533" lon="-0.08528">
        <ele>425</ele>
        <time>2018-06-23T05:43:43Z</time>
      </trkpt>
      <trkpt lat="43.00537" lon="-0.0853">
        <ele>425</ele>
        <time>2018-06-23T05:45:43Z</time>
      </trkpt>
      <trkpt lat="43.0054" lon="-0.08564">
        <ele>426</ele>
        <time>2018-06-23T05:54:43Z</time>
      </trkpt>
      <trkpt lat="43.00554" lon="-0.08655">
        <ele>426</ele>
        <time>2018-06-23T05:58:43Z</time>
      </trkpt>
      <trkpt lat="43.00556" lon="-0.0869">
        <ele>427</ele>
        <time>2018-06-23T06:00:43Z</time>
      </trkpt>
      <trkpt lat="43.00558" lon="-0.08782">
        <ele>428</ele>
        <time>2018-06-23T06:03:43Z</time>
      </trkpt>
      <trkpt lat="43.00581" lon="-0.08875">
        <ele>430</ele>
        <time>2018-06-23T06:06:43Z</time>
      </trkpt>
      <trkpt lat="43.00605" lon="-0.0896">
        <ele>431</ele>
        <time>2018-06-23T06:08:43Z</time>
      </trkpt>
      <trkpt lat="43.00612" lon="-0.08985">
        <ele>431</ele>
        <time>2018-06-23T06:10:43Z</time>
      </trkpt>
      <trkpt lat="43.00622" lon="-0.09039">
        <ele>431</ele>
        <time>2018-06-23T06:14:43Z</time>
      </trkpt>
      <trkpt lat="43.00637" lon="-0.09131">
        <ele>432</ele>
        <time>2018-06-23T06:17:43Z</time>
      </trkpt>
      <trkpt lat="43.00665" lon="-0.09227">
        <ele>432</ele>
        <time>2018-06-23T06:20:43Z</time>
      </trkpt>
      <trkpt lat="43.00668" lon="-0.09241">
        <ele>432</ele>
        <time>2018-06-23T06:22:43Z</time>
      </trkpt>
      <trkpt lat="43.00648" lon="-0.09291">
        <ele>432</ele>
        <time>2018-06-23T06:27:43Z</time>
      </trkpt>
      <trkpt lat="43.00635" lon="-0.09331">
        <ele>433</ele>
        <time>2018-06-23T06:30:43Z</time>
      </trkpt>
      <trkpt lat="43.00634" lon="-0.09345">
        <ele>433</ele>
        <time>2018-06-23T06:34:43Z</time>
      </trkpt>
      <trkpt lat="43.00632" lon="-0.09379">
        <ele>434</ele>
        <time>2018-06-23T06:38:43Z</time>
      </trkpt>
      <trkpt lat="43.00627" lon="-0.094">
        <ele>435</ele>
        <time>2018-06-23T06:39:43Z</time>
      </trkpt>
      <trkpt lat="43.00591" lon="-0.09549">
        <ele>438</ele>
        <time>2018-06-23T06:40:43Z</time>
      </trkpt>
      <trkpt lat="43.0059" lon="-0.09561">
        <ele>438</ele>
        <time>2018-06-23T06:41:43Z</time>
      </trkpt>
      <trkpt lat="43.00599" lon="-0.09575">
        <ele>438</ele>
        <time>2018-06-23T06:45:43Z</time>
      </trkpt>
      <trkpt lat="43.00597" lon="-0.096">
        <ele>439</ele>
        <time>2018-06-23T06:50:43Z</time>
      </trkpt>
      <trkpt lat="43.00607" lon="-0.09607">
        <ele>439</ele>
        <time>2018-06-23T06:52:43Z</time>
      </trkpt>
      <trkpt lat="43.00681" lon="-0.0964">
        <ele>438</ele>
        <time>2018-06-23T06:53:43Z</time>
      </trkpt>
      <trkpt lat="43.00702" lon="-0.09648">
        <ele>437</ele>
        <time>2018-06-23T06:54:43Z</time>
      </trkpt>
      <trkpt lat="43.00702" lon="-0.09648">
        <ele>437</ele>
        <time>2018-06-23T06:55:43Z</time>
      </trkpt>
      <trkpt lat="43.007" lon="-0.09671">
        <ele>438</ele>
        <time>2018-06-23T06:56:43Z</time>
      </trkpt>
      <trkpt lat="43.00694" lon="-0.09753">
        <ele>441</ele>
        <time>2018-06-23T06:57:43Z</time>
      </trkpt>
      <trkpt lat="43.00689" lon="-0.09821">
        <ele>442</ele>
        <time>2018-06-23T06:59:43Z</time>
      </trkpt>
      <trkpt lat="43.00689" lon="-0.09846">
        <ele>443</ele>
        <time>2018-06-23T07:02:43Z</time>
      </trkpt>
      <trkpt lat="43.00692" lon="-0.09851">
        <ele>443</ele>
        <time>2018-06-23T07:09:43Z</time>
      </trkpt>
      <trkpt lat="43.0069" lon="-0.0986">
        <ele>444</ele>
        <time>2018-06-23T07:20:43Z</time>
      </trkpt>
      <trkpt lat="43.00685" lon="-0.09861">
        <ele>444</ele>
        <time>2018-06-23T07:27:43Z</time>
      </trkpt>
      <trkpt lat="43.00675" lon="-0.09909">
        <ele>447</ele>
        <time>2018-06-23T07:29:43Z</time>
      </trkpt>
      <trkpt lat="43.00674" lon="-0.09913">
        <ele>447</ele>
        <time>2018-06-23T07:30:43Z</time>
      </trkpt>
      <trkpt lat="43.0068" lon="-0.09929">
        <ele>449</ele>
        <time>2018-06-23T07:33:43Z</time>
      </trkpt>
      <trkpt lat="43.00722" lon="-0.0996">
        <ele>455</ele>
        <time>2018-06-23T07:35:43Z</time>
      </trkpt>
      <trkpt lat="43.00744" lon="-0.09975">
        <ele>458</ele>
        <time>2018-06-23T07:36:43Z</time>
      </trkpt>
      <trkpt lat="43.00756" lon="-0.09983">
        <ele>459</ele>
        <time>2018-06-23T07:38:43Z</time>
      </trkpt>
      <trkpt lat="43.00778" lon="-0.09971">
        <ele>458</ele>
        <time>2018-06-23T07:40:43Z</time>
      </trkpt>
      <trkpt lat="43.00788" lon="-0.09972">
        <ele>458</ele>
        <time>2018-06-23T07:44:43Z</time>
      </trkpt>
      <trkpt lat="43.0083" lon="-0.09962">
        <ele>458</ele>
        <time>2018-06-23T07:50:43Z</time>
      </trkpt>
      <trkpt lat="43.00915" lon="-0.09955">
        <ele>458</ele>
        <time>2018-06-23T07:53:43Z</time>
      </trkpt>
      <trkpt lat="43.00915" lon="-0.09955">
        <ele>458</ele>
        <time>2018-06-23T07:54:43Z</time>
      </trkpt>
      <trkpt lat="43.00914" lon="-0.10007">
        <ele>460</ele>
        <time>2018-06-23T07:56:43Z</time>
      </trkpt>
      <trkpt lat="43.00907" lon="-0.10054">
        <ele>463</ele>
        <time>2018-06-23T07:59:43Z</time>
      </trkpt>
      <trkpt lat="43.00904" lon="-0.10064">
        <ele>463</ele>
        <time>2018-06-23T08:00:43Z</time>
      </trkpt>
      <trkpt lat="43.0089" lon="-0.10088">
        <ele>465</ele>
        <time>2018-06-23T08:04:43Z</time>
      </trkpt>
      <trkpt lat="43.00872" lon="-0.10099">
        <ele>465</ele>
        <time>2018-06-23T08:06:43Z</time>
      </trkpt>
      <trkpt lat="43.00795" lon="-0.10107">
        <ele>466</ele>
        <time>2018-06-23T08:07:43Z</time>
      </trkpt>
      <trkpt lat="43.00723" lon="-0.10114">
        <ele>468</ele>
        <time>2018-06-23T08:09:43Z</time>
      </trkpt>
      <trkpt lat="43.00708" lon="-0.10125">
        <ele>469</ele>
        <time>2018-06-23T08:12:43Z</time>
      </trkpt>
      <trkpt lat="43.00709" lon="-0.10138">
        <ele>471</ele>
        <time>2018-06-23T08:14:43Z</time>
      </trkpt>
      <trkpt lat="43.00705" lon="-0.1015">
        <ele>472</ele>
        <time>2018-06-23T08:19:43Z</time>
      </trkpt>
      <trkpt lat="43.00679" lon="-0.10159">
        <ele>473</ele>
        <time>2018-06-23T08:25:43Z</time>
      </trkpt>
      <trkpt lat="43.00626" lon="-0.10162">
        <ele>473</ele>
        <time>2018-06-23T08:29:43Z</time>
      </trkpt>
      <trkpt lat="43.00589" lon="-0.10178">
        <ele>474</ele>
        <time>2018-06-23T08:33:43Z</time>
      </trkpt>
      <trkpt lat="43.00561" lon="-0.10204">
        <ele>476</ele>
        <time>2018-06-23T08:36:43Z</time>
      </trkpt>
      <trkpt lat="43.00522" lon="-0.1027">
        <ele>479</ele>
        <time>2018-06-23T08:39:43Z</time>
      </trkpt>
      <trkpt lat="43.00497" lon="-0.10307">
        <ele>482</ele>
        <time>2018-06-23T08:41:43Z</time>
      </trkpt>
      <trkpt lat="43.00487" lon="-0.10372">
        <ele>490</ele>
        <time>2018-06-23T08:44:43Z</time>
      </trkpt>
      <trkpt lat="43.00484" lon="-0.10396">
        <ele>493</ele>
        <time>2018-06-23T08:45:43Z</time>
      </trkpt>
      <trkpt lat="43.00477" lon="-0.10415">
        <ele>494</ele>
        <time>2018-06-23T08:47:43Z</time>
      </trkpt>
      <trkpt lat="43.00436" lon="-0.10457">
        <ele>498</ele>
        <time>2018-06-23T08:49:43Z</time>
      </trkpt>
      <trkpt lat="43.0042" lon="-0.10477">
        <ele>500</ele>
        <time>2018-06-23T08:51:43Z</time>
      </trkpt>
      <trkpt lat="43.00397" lon="-0.10517">
        <ele>505</ele>
        <time>2018-06-23T08:53:43Z</time>
      </trkpt>
      <trkpt lat="43.00385" lon="-0.10542">
        <ele>509</ele>
        <time>2018-06-23T08:54:43Z</time>
      </trkpt>
      <trkpt lat="43.00373" lon="-0.10562">
        <ele>512</ele>
        <time>2018-06-23T08:55:43Z</time>
      </trkpt>
      <trkpt lat="43.00356" lon="-0.1058">
        <ele>513</ele>
        <time>2018-06-23T08:57:43Z</time>
      </trkpt>
      <trkpt lat="43.00304" lon="-0.10627">
        <ele>517</ele>
        <time>2018-06-23T09:00:43Z</time>
      </trkpt>
      <trkpt lat="43.00284" lon="-0.10656">
        <ele>521</ele>
        <time>2018-06-23T09:01:43Z</time>
      </trkpt>
      <trkpt lat="43.00258" lon="-0.10684">
        <ele>525</ele>
        <time>2018-06-23T09:03:43Z</time>
      </trkpt>
      <trkpt lat="43.00217" lon="-0.10718">
        <ele>531</ele>
        <time>2018-06-23T09:04:43Z</time>
      </trkpt>
      <trkpt lat="43.00179" lon="-0.10749">
        <ele>536</ele>
        <time>2018-06-23T09:05:43Z</time>
      </trkpt>
      <trkpt lat="43.00174" lon="-0.10754">
        <ele>536</ele>
        <time>2018-06-23T09:06:43Z</time>
      </trkpt>
      <trkpt lat="43.00138" lon="-0.10791">
        <ele>543</ele>
        <time>2018-06-23T09:08:43Z</time>
      </trkpt>
      <trkpt lat="43.00106" lon="-0.10819">
        <ele>546</ele>
        <time>2018-06-23T09:10:43Z</time>
      </trkpt>
      <trkpt lat="43.00055" lon="-0.1085">
        <ele>550</ele>
        <time>2018-06-23T09:12:43Z</time>
      </trkpt>
      <trkpt lat="43.00029" lon="-0.10865">
        <ele>552</ele>
        <time>2018-06-23T09:14:43Z</time>
      </trkpt>
      <trkpt lat="42.99983" lon="-0.10872">
        <ele>550</ele>
        <time>2018-06-23T09:18:43Z</time>
      </trkpt>
      <trkpt lat="42.99969" lon="-0.10871">
        <ele>547</ele>
        <time>2018-06-23T09:19:43Z</time>
      </trkpt>
      <trkpt lat="42.9995" lon="-0.10872">
        <ele>545</ele>
        <time>2018-06-23T09:21:43Z</time>
      </trkpt>
      <trkpt lat="42.99926" lon="-0.109">
        <ele>548</ele>
        <time>2018-06-23T09:28:43Z</time>
      </trkpt>
      <trkpt lat="42.99917" lon="-0.10972">
        <ele>552</ele>
        <time>2018-06-23T09:31:43Z</time>
      </trkpt>
      <trkpt lat="42.99915" lon="-0.11032">
        <ele>557</ele>
        <time>2018-06-23T09:33:43Z</time>
      </trkpt>
      <trkpt lat="42.99912" lon="-0.11075">
        <ele>561</ele>
        <time>2018-06-23T09:35:43Z</time>
      </trkpt>
      <trkpt lat="42.99908" lon="-0.11103">
        <ele>564</ele>
        <time>2018-06-23T09:36:43Z</time>
      </trkpt>
      <trkpt lat="42.99907" lon="-0.11124">
        <ele>567</ele>
        <time>2018-06-23T09:38:43Z</time>
      </trkpt>
      <trkpt lat="42.99908" lon="-0.11138">
        <ele>571</ele>
        <time>2018-06-23T09:40:43Z</time>
      </trkpt>
      <trkpt lat="42.99912" lon="-0.11148">
        <ele>574</ele>
        <time>2018-06-23T09:43:43Z</time>
      </trkpt>
      <trkpt lat="42.99918" lon="-0.11153">
        <ele>578</ele>
        <time>2018-06-23T09:45:43Z</time>
      </trkpt>
      <trkpt lat="42.99922" lon="-0.11158">
        <ele>581</ele>
        <time>2018-06-23T09:46:43Z</time>
      </trkpt>
      <trkpt lat="42.99925" lon="-0.11163">
        <ele>584</ele>
        <time>2018-06-23T09:48:43Z</time>
      </trkpt>
      <trkpt lat="42.99929" lon="-0.11174">
        <ele>588</ele>
        <time>2018-06-23T09:50:43Z</time>
      </trkpt>
      <trkpt lat="42.99929" lon="-0.11193">
        <ele>592</ele>
        <time>2018-06-23T09:52:43Z</time>
      </trkpt>
      <trkpt lat="42.99927" lon="-0.11202">
        <ele>592</ele>
        <time>2018-06-23T09:53:43Z</time>
      </trkpt>
      <trkpt lat="42.99881" lon="-0.11287">
        <ele>588</ele>
        <time>2018-06-23T09:56:43Z</time>
      </trkpt>
      <trkpt lat="42.99868" lon="-0.11317">
        <ele>587</ele>
        <time>2018-06-23T09:58:43Z</time>
      </trkpt>
      <trkpt lat="42.99863" lon="-0.1139">
        <ele>592</ele>
        <time>2018-06-23T10:02:43Z</time>
      </trkpt>
      <trkpt lat="42.99863" lon="-0.11426">
        <ele>595</ele>
        <time>2018-06-23T10:04:43Z</time>
      </trkpt>
      <trkpt lat="42.99858" lon="-0.11445">
        <ele>595</ele>
        <time>2018-06-23T10:05:43Z</time>
      </trkpt>
      <trkpt lat="42.99845" lon="-0.1151">
        <ele>597</ele>
        <time>2018-06-23T10:07:43Z</time>
      </trkpt>
      <trkpt lat="42.99847" lon="-0.11534">
        <ele>602</ele>
        <time>2018-06-23T10:09:43Z</time>
      </trkpt>
      <trkpt lat="42.99844" lon="-0.11564">
        <ele>605</ele>
        <time>2018-06-23T10:11:43Z</time>
      </trkpt>
      <trkpt lat="42.99834" lon="-0.116">
        <ele>608</ele>
        <time>2018-06-23T10:13:43Z</time>
      </trkpt>
      <trkpt lat="42.99815" lon="-0.11643">
        <ele>613</ele>
        <time>2018-06-23T10:15:43Z</time>
      </trkpt>
      <trkpt lat="42.99781" lon="-0.11694">
        <ele>616</ele>
        <time>2018-06-23T10:18:43Z</time>
      </trkpt>
      <trkpt lat="42.99768" lon="-0.11707">
        <ele>616</ele>
        <time>2018-06-23T10:19:43Z</time>
      </trkpt>
      <trkpt lat="42.99698" lon="-0.1174">
        <ele>621</ele>
        <time>2018-06-23T10:22:43Z</time>
      </trkpt>
      <trkpt lat="42.99647" lon="-0.11757">
        <ele>626</ele>
        <time>2018-06-23T10:23:43Z</time>
      </trkpt>
      <trkpt lat="42.99609" lon="-0.11767">
        <ele>629</ele>
        <time>2018-06-23T10:24:43Z</time>
      </trkpt>
      <trkpt lat="42.99582" lon="-0.11774">
        <ele>631</ele>
        <time>2018-06-23T10:26:43Z</time>
      </trkpt>
      <trkpt lat="42.9955" lon="-0.11779">
        <ele>628</ele>
        <time>2018-06-23T10:29:43Z</time>
      </trkpt>
      <trkpt lat="42.99546" lon="-0.11782">
        <ele>628</ele>
        <time>2018-06-23T10:30:43Z</time>
      </trkpt>
      <trkpt lat="42.99523" lon="-0.11816">
        <ele>631</ele>
        <time>2018-06-23T10:34:43Z</time>
      </trkpt>
      <trkpt lat="42.99511" lon="-0.11839">
        <ele>633</ele>
        <time>2018-06-23T10:37:43Z</time>
      </trkpt>
      <trkpt lat="42.99498" lon="-0.11909">
        <ele>638</ele>
        <time>2018-06-23T10:41:43Z</time>
      </trkpt>
      <trkpt lat="42.99494" lon="-0.11953">
        <ele>641</ele>
        <time>2018-06-23T10:43:43Z</time>
      </trkpt>
      <trkpt lat="42.99488" lon="-0.12002">
        <ele>644</ele>
        <time>2018-06-23T10:44:43Z</time>
      </trkpt>
      <trkpt lat="42.99488" lon="-0.1201">
        <ele>644</ele>
        <time>2018-06-23T10:45:43Z</time>
      </trkpt>
      <trkpt lat="42.99491" lon="-0.12028">
        <ele>646</ele>
        <time>2018-06-23T10:48:43Z</time>
      </trkpt>
      <trkpt lat="42.99499" lon="-0.12059">
        <ele>650</ele>
        <time>2018-06-23T10:50:43Z</time>
      </trkpt>
      <trkpt lat="42.99508" lon="-0.12089">
        <ele>654</ele>
        <time>2018-06-23T10:52:43Z</time>
      </trkpt>
      <trkpt lat="42.99513" lon="-0.12113">
        <ele>657</ele>
        <time>2018-06-23T10:55:43Z</time>
      </trkpt>
      <trkpt lat="42.99511" lon="-0.12142">
        <ele>658</ele>
        <time>2018-06-23T10:57:43Z</time>
      </trkpt>
      <trkpt lat="42.99494" lon="-0.12217">
        <ele>665</ele>
        <time>2018-06-23T10:59:43Z</time>
      </trkpt>
      <trkpt lat="42.99486" lon="-0.1225">
        <ele>669</ele>
        <time>2018-06-23T11:00:43Z</time>
      </trkpt>
      <trkpt lat="42.99474" lon="-0.12294">
        <ele>673</ele>
        <time>2018-06-23T11:01:43Z</time>
      </trkpt>
      <trkpt lat="42.99459" lon="-0.12329">
        <ele>675</ele>
        <time>2018-06-23T11:03:43Z</time>
      </trkpt>
      <trkpt lat="42.99443" lon="-0.12367">
        <ele>676</ele>
        <time>2018-06-23T11:05:43Z</time>
      </trkpt>
      <trkpt lat="42.99409" lon="-0.12408">
        <ele>677</ele>
        <time>2018-06-23T11:09:43Z</time>
      </trkpt>
      <trkpt lat="42.99344" lon="-0.12468">
        <ele>683</ele>
        <time>2018-06-23T11:11:43Z</time>
      </trkpt>
      <trkpt lat="42.99291" lon="-0.12536">
        <ele>688</ele>
        <time>2018-06-23T11:13:43Z</time>
      </trkpt>
      <trkpt lat="42.99277" lon="-0.12577">
        <ele>692</ele>
        <time>2018-06-23T11:15:43Z</time>
      </trkpt>
      <trkpt lat="42.99273" lon="-0.12607">
        <ele>693</ele>
        <time>2018-06-23T11:17:43Z</time>
      </trkpt>
      <trkpt lat="42.99264" lon="-0.1266">
        <ele>696</ele>
        <time>2018-06-23T11:19:43Z</time>
      </trkpt>
      <trkpt lat="42.99261" lon="-0.12672">
        <ele>696</ele>
        <time>2018-06-23T11:20:43Z</time>
      </trkpt>
      <trkpt lat="42.99239" lon="-0.12732">
        <ele>698</ele>
        <time>2018-06-23T11:23:43Z</time>
      </trkpt>
      <trkpt lat="42.99214" lon="-0.12778">
        <ele>700</ele>
        <time>2018-06-23T11:25:43Z</time>
      </trkpt>
      <trkpt lat="42.99192" lon="-0.12839">
        <ele>704</ele>
        <time>2018-06-23T11:28:43Z</time>
      </trkpt>
      <trkpt lat="42.99181" lon="-0.12911">
        <ele>711</ele>
        <time>2018-06-23T11:30:43Z</time>
      </trkpt>
      <trkpt lat="42.9918" lon="-0.12916">
        <ele>712</ele>
        <time>2018-06-23T11:31:43Z</time>
      </trkpt>
      <trkpt lat="42.99179" lon="-0.1292">
        <ele>712</ele>
        <time>2018-06-23T11:32:43Z</time>
      </trkpt>
      <trkpt lat="42.99169" lon="-0.12953">
        <ele>714</ele>
        <time>2018-06-23T11:35:43Z</time>
      </trkpt>
      <trkpt lat="42.99125" lon="-0.13018">
        <ele>716</ele>
        <time>2018-06-23T11:37:43Z</time>
      </trkpt>
      <trkpt lat="42.99113" lon="-0.13035">
        <ele>716</ele>
        <time>2018-06-23T11:38:43Z</time>
      </trkpt>
      <trkpt lat="42.99074" lon="-0.13086">
        <ele>716</ele>
        <time>2018-06-23T11:41:43Z</time>
      </trkpt>
      <trkpt lat="42.99036" lon="-0.13122">
        <ele>716</ele>
        <time>2018-06-23T11:44:43Z</time>
      </trkpt>
      <trkpt lat="42.99009" lon="-0.13162">
        <ele>718</ele>
        <time>2018-06-23T11:47:43Z</time>
      </trkpt>
      <trkpt lat="42.99002" lon="-0.1319">
        <ele>720</ele>
        <time>2018-06-23T11:50:43Z</time>
      </trkpt>
      <trkpt lat="42.98998" lon="-0.13214">
        <ele>722</ele>
        <time>2018-06-23T11:53:43Z</time>
      </trkpt>
      <trkpt lat="42.98985" lon="-0.13249">
        <ele>725</ele>
        <time>2018-06-23T11:56:43Z</time>
      </trkpt>
      <trkpt lat="42.98977" lon="-0.13261">
        <ele>725</ele>
        <time>2018-06-23T11:57:43Z</time>
      </trkpt>
      <trkpt lat="42.98933" lon="-0.13311">
        <ele>725</ele>
        <time>2018-06-23T12:00:43Z</time>
      </trkpt>
      <trkpt lat="42.98909" lon="-0.13359">
        <ele>726</ele>
        <time>2018-06-23T12:03:43Z</time>
      </trkpt>
      <trkpt lat="42.98872" lon="-0.13453">
        <ele>729</ele>
        <time>2018-06-23T12:07:43Z</time>
      </trkpt>
      <trkpt lat="42.98858" lon="-0.13476">
        <ele>729</ele>
        <time>2018-06-23T12:08:43Z</time>
      </trkpt>
      <trkpt lat="42.98824" lon="-0.13557">
        <ele>730</ele>
        <time>2018-06-23T12:12:43Z</time>
      </trkpt>
      <trkpt lat="42.98806" lon="-0.13629">
        <ele>732</ele>
        <time>2018-06-23T12:14:43Z</time>
      </trkpt>
      <trkpt lat="42.98792" lon="-0.13672">
        <ele>733</ele>
        <time>2018-06-23T12:16:43Z</time>
      </trkpt>
      <trkpt lat="42.98772" lon="-0.13724">
        <ele>736</ele>
        <time>2018-06-23T12:17:43Z</time>
      </trkpt>
      <trkpt lat="42.98706" lon="-0.13884">
        <ele>738</ele>
        <time>2018-06-23T12:20:43Z</time>
      </trkpt>
      <trkpt lat="42.98664" lon="-0.13992">
        <ele>739</ele>
        <time>2018-06-23T12:23:43Z</time>
      </trkpt>
      <trkpt lat="42.98654" lon="-0.14022">
        <ele>743</ele>
        <time>2018-06-23T12:24:43Z</time>
      </trkpt>
      <trkpt lat="42.98637" lon="-0.14066">
        <ele>747</ele>
        <time>2018-06-23T12:25:43Z</time>
      </trkpt>
      <trkpt lat="42.98573" lon="-0.14217">
        <ele>750</ele>
        <time>2018-06-23T12:28:43Z</time>
      </trkpt>
      <trkpt lat="42.98552" lon="-0.14284">
        <ele>754</ele>
        <time>2018-06-23T12:29:43Z</time>
      </trkpt>
      <trkpt lat="42.98537" lon="-0.14349">
        <ele>758</ele>
        <time>2018-06-23T12:31:43Z</time>
      </trkpt>
      <trkpt lat="42.98518" lon="-0.14392">
        <ele>758</ele>
        <time>2018-06-23T12:32:43Z</time>
      </trkpt>
      <trkpt lat="42.98509" lon="-0.14406">
        <ele>758</ele>
        <time>2018-06-23T12:33:43Z</time>
      </trkpt>
      <trkpt lat="42.98461" lon="-0.14472">
        <ele>762</ele>
        <time>2018-06-23T12:34:43Z</time>
      </trkpt>
      <trkpt lat="42.98456" lon="-0.14479">
        <ele>763</ele>
        <time>2018-06-23T12:35:43Z</time>
      </trkpt>
      <trkpt lat="42.98411" lon="-0.14541">
        <ele>764</ele>
        <time>2018-06-23T12:37:43Z</time>
      </trkpt>
      <trkpt lat="42.98375" lon="-0.14605">
        <ele>760</ele>
        <time>2018-06-23T12:39:43Z</time>
      </trkpt>
      <trkpt lat="42.98367" lon="-0.14633">
        <ele>759</ele>
        <time>2018-06-23T12:41:43Z</time>
      </trkpt>
      <trkpt lat="42.98359" lon="-0.14709">
        <ele>760</ele>
        <time>2018-06-23T12:44:43Z</time>
      </trkpt>
      <trkpt lat="42.98347" lon="-0.14813">
        <ele>763</ele>
        <time>2018-06-23T12:46:43Z</time>
      </trkpt>
      <trkpt lat="42.98341" lon="-0.14839">
        <ele>763</ele>
        <time>2018-06-23T12:47:43Z</time>
      </trkpt>
      <trkpt lat="42.98308" lon="-0.14919">
        <ele>761</ele>
        <time>2018-06-23T12:49:43Z</time>
      </trkpt>
      <trkpt lat="42.98298" lon="-0.14945">
        <ele>761</ele>
        <time>2018-06-23T12:50:43Z</time>
      </trkpt>
      <trkpt lat="42.98276" lon="-0.15027">
        <ele>764</ele>
        <time>2018-06-23T12:53:43Z</time>
      </trkpt>
      <trkpt lat="42.98254" lon="-0.15126">
        <ele>770</ele>
        <time>2018-06-23T12:54:43Z</time>
      </trkpt>
      <trkpt lat="42.98246" lon="-0.15155">
        <ele>770</ele>
        <time>2018-06-23T12:55:43Z</time>
      </trkpt>
      <trkpt lat="42.98191" lon="-0.15263">
        <ele>774</ele>
        <time>2018-06-23T12:58:43Z</time>
      </trkpt>
      <trkpt lat="42.98161" lon="-0.15317">
        <ele>777</ele>
        <time>2018-06-23T13:00:43Z</time>
      </trkpt>
      <trkpt lat="42.98139" lon="-0.15356">
        <ele>776</ele>
        <time>2018-06-23T13:01:43Z</time>
      </trkpt>
      <trkpt lat="42.98094" lon="-0.15444">
        <ele>778</ele>
        <time>2018-06-23T13:04:43Z</time>
      </trkpt>
      <trkpt lat="42.98081" lon="-0.15493">
        <ele>782</ele>
        <time>2018-06-23T13:06:43Z</time>
      </trkpt>
      <trkpt lat="42.98051" lon="-0.15633">
        <ele>786</ele>
        <time>2018-06-23T13:07:43Z</time>
      </trkpt>
      <trkpt lat="42.98049" lon="-0.15644">
        <ele>786</ele>
        <time>2018-06-23T13:08:43Z</time>
      </trkpt>
      <trkpt lat="42.98021" lon="-0.1577">
        <ele>794</ele>
        <time>2018-06-23T13:09:43Z</time>
      </trkpt>
      <trkpt lat="42.98015" lon="-0.15801">
        <ele>797</ele>
        <time>2018-06-23T13:10:43Z</time>
      </trkpt>
      <trkpt lat="42.98005" lon="-0.15853">
        <ele>802</ele>
        <time>2018-06-23T13:11:43Z</time>
      </trkpt>
      <trkpt lat="42.97993" lon="-0.15902">
        <ele>805</ele>
        <time>2018-06-23T13:13:43Z</time>
      </trkpt>
      <trkpt lat="42.9798" lon="-0.15954">
        <ele>808</ele>
        <time>2018-06-23T13:15:43Z</time>
      </trkpt>
      <trkpt lat="42.97975" lon="-0.15987">
        <ele>810</ele>
        <time>2018-06-23T13:17:43Z</time>
      </trkpt>
      <trkpt lat="42.9797" lon="-0.16058">
        <ele>814</ele>
        <time>2018-06-23T13:18:43Z</time>
      </trkpt>
      <trkpt lat="42.97969" lon="-0.16063">
        <ele>814</ele>
        <time>2018-06-23T13:19:43Z</time>
      </trkpt>
      <trkpt lat="42.97962" lon="-0.16167">
        <ele>818</ele>
        <time>2018-06-23T13:20:43Z</time>
      </trkpt>
      <trkpt lat="42.97958" lon="-0.16232">
        <ele>821</ele>
        <time>2018-06-23T13:22:43Z</time>
      </trkpt>
      <trkpt lat="42.97959" lon="-0.16247">
        <ele>821</ele>
        <time>2018-06-23T13:23:43Z</time>
      </trkpt>
      <trkpt lat="42.97971" lon="-0.16324">
        <ele>824</ele>
        <time>2018-06-23T13:25:43Z</time>
      </trkpt>
      <trkpt lat="42.97975" lon="-0.16361">
        <ele>825</ele>
        <time>2018-06-23T13:27:43Z</time>
      </trkpt>
      <trkpt lat="42.97976" lon="-0.164">
        <ele>825</ele>
        <time>2018-06-23T13:30:43Z</time>
      </trkpt>
      <trkpt lat="42.97967" lon="-0.16501">
        <ele>829</ele>
        <time>2018-06-23T13:31:43Z</time>
      </trkpt>
      <trkpt lat="42.97965" lon="-0.16526">
        <ele>831</ele>
        <time>2018-06-23T13:32:43Z</time>
      </trkpt>
      <trkpt lat="42.97966" lon="-0.16544">
        <ele>832</ele>
        <time>2018-06-23T13:34:43Z</time>
      </trkpt>
      <trkpt lat="42.97972" lon="-0.16585">
        <ele>837</ele>
        <time>2018-06-23T13:36:43Z</time>
      </trkpt>
      <trkpt lat="42.97975" lon="-0.16632">
        <ele>838</ele>
        <time>2018-06-23T13:38:43Z</time>
      </trkpt>
      <trkpt lat="42.97981" lon="-0.1676">
        <ele>840</ele>
        <time>2018-06-23T13:42:43Z</time>
      </trkpt>
      <trkpt lat="42.97982" lon="-0.16777">
        <ele>842</ele>
        <time>2018-06-23T13:44:43Z</time>
      </trkpt>
      <trkpt lat="42.97981" lon="-0.16785">
        <ele>842</ele>
        <time>2018-06-23T13:45:43Z</time>
      </trkpt>
      <trkpt lat="42.97968" lon="-0.16831">
        <ele>842</ele>
        <time>2018-06-23T13:49:43Z</time>
      </trkpt>
      <trkpt lat="42.97946" lon="-0.16907">
        <ele>844</ele>
        <time>2018-06-23T13:52:43Z</time>
      </trkpt>
      <trkpt lat="42.97938" lon="-0.16929">
        <ele>843</ele>
        <time>2018-06-23T13:54:43Z</time>
      </trkpt>
      <trkpt lat="42.97915" lon="-0.1697">
        <ele>840</ele>
        <time>2018-06-23T13:57:43Z</time>
      </trkpt>
      <trkpt lat="42.9791" lon="-0.16982">
        <ele>840</ele>
        <time>2018-06-23T13:58:43Z</time>
      </trkpt>
      <trkpt lat="42.97903" lon="-0.17024">
        <ele>840</ele>
        <time>2018-06-23T14:03:43Z</time>
      </trkpt>
      <trkpt lat="42.9789" lon="-0.17104">
        <ele>837</ele>
        <time>2018-06-23T14:09:43Z</time>
      </trkpt>
      <trkpt lat="42.97877" lon="-0.1713">
        <ele>834</ele>
        <time>2018-06-23T14:10:43Z</time>
      </trkpt>
      <trkpt lat="42.97864" lon="-0.17158">
        <ele>831</ele>
        <time>2018-06-23T14:11:43Z</time>
      </trkpt>
      <trkpt lat="42.97845" lon="-0.17195">
        <ele>830</ele>
        <time>2018-06-23T14:13:43Z</time>
      </trkpt>
      <trkpt lat="42.97828" lon="-0.17245">
        <ele>834</ele>
        <time>2018-06-23T14:16:43Z</time>
      </trkpt>
      <trkpt lat="42.97826" lon="-0.17254">
        <ele>834</ele>
        <time>2018-06-23T14:17:43Z</time>
      </trkpt>
      <trkpt lat="42.97822" lon="-0.17327">
        <ele>833</ele>
        <time>2018-06-23T14:20:43Z</time>
      </trkpt>
      <trkpt lat="42.97822" lon="-0.17399">
        <ele>832</ele>
        <time>2018-06-23T14:23:43Z</time>
      </trkpt>
      <trkpt lat="42.97824" lon="-0.17426">
        <ele>831</ele>
        <time>2018-06-23T14:25:43Z</time>
      </trkpt>
      <trkpt lat="42.97827" lon="-0.17495">
        <ele>831</ele>
        <time>2018-06-23T14:27:43Z</time>
      </trkpt>
      <trkpt lat="42.97829" lon="-0.17529">
        <ele>831</ele>
        <time>2018-06-23T14:30:43Z</time>
      </trkpt>
      <trkpt lat="42.97831" lon="-0.17608">
        <ele>834</ele>
        <time>2018-06-23T14:34:43Z</time>
      </trkpt>
      <trkpt lat="42.97828" lon="-0.17648">
        <ele>835</ele>
        <time>2018-06-23T14:36:43Z</time>
      </trkpt>
      <trkpt lat="42.97808" lon="-0.17706">
        <ele>837</ele>
        <time>2018-06-23T14:39:43Z</time>
      </trkpt>
      <trkpt lat="42.97793" lon="-0.17747">
        <ele>838</ele>
        <time>2018-06-23T14:43:43Z</time>
      </trkpt>
      <trkpt lat="42.97779" lon="-0.1782">
        <ele>837</ele>
        <time>2018-06-23T14:47:43Z</time>
      </trkpt>
      <trkpt lat="42.97759" lon="-0.17918">
        <ele>837</ele>
        <time>2018-06-23T14:50:43Z</time>
      </trkpt>
      <trkpt lat="42.97753" lon="-0.17974">
        <ele>839</ele>
        <time>2018-06-23T14:53:43Z</time>
      </trkpt>
      <trkpt lat="42.97746" lon="-0.1804">
        <ele>841</ele>
        <time>2018-06-23T14:56:43Z</time>
      </trkpt>
      <trkpt lat="42.97731" lon="-0.18086">
        <ele>842</ele>
        <time>2018-06-23T14:59:43Z</time>
      </trkpt>
      <trkpt lat="42.97698" lon="-0.18147">
        <ele>842</ele>
        <time>2018-06-23T15:02:43Z</time>
      </trkpt>
      <trkpt lat="42.97692" lon="-0.18162">
        <ele>842</ele>
        <time>2018-06-23T15:03:43Z</time>
      </trkpt>
      <trkpt lat="42.97657" lon="-0.18237">
        <ele>843</ele>
        <time>2018-06-23T15:04:43Z</time>
      </trkpt>
      <trkpt lat="42.97651" lon="-0.18252">
        <ele>844</ele>
        <time>2018-06-23T15:05:43Z</time>
      </trkpt>
      <trkpt lat="42.97647" lon="-0.18264">
        <ele>844</ele>
        <time>2018-06-23T15:06:43Z</time>
      </trkpt>
      <trkpt lat="42.97633" lon="-0.18309">
        <ele>846</ele>
        <time>2018-06-23T15:09:43Z</time>
      </trkpt>
      <trkpt lat="42.97622" lon="-0.18349">
        <ele>847</ele>
        <time>2018-06-23T15:11:43Z</time>
      </trkpt>
      <trkpt lat="42.97594" lon="-0.18429">
        <ele>845</ele>
        <time>2018-06-23T15:15:43Z</time>
      </trkpt>
      <trkpt lat="42.97585" lon="-0.18462">
        <ele>844</ele>
        <time>2018-06-23T15:17:43Z</time>
      </trkpt>
      <trkpt lat="42.97563" lon="-0.18527">
        <ele>845</ele>
        <time>2018-06-23T15:21:43Z</time>
      </trkpt>
      <trkpt lat="42.97523" lon="-0.18578">
        <ele>846</ele>
        <time>2018-06-23T15:23:43Z</time>
      </trkpt>
      <trkpt lat="42.97514" lon="-0.18594">
        <ele>846</ele>
        <time>2018-06-23T15:25:43Z</time>
      </trkpt>
      <trkpt lat="42.97498" lon="-0.1865">
        <ele>849</ele>
        <time>2018-06-23T15:31:43Z</time>
      </trkpt>
      <trkpt lat="42.97496" lon="-0.1867">
        <ele>850</ele>
        <time>2018-06-23T15:33:43Z</time>
      </trkpt>
      <trkpt lat="42.97476" lon="-0.18725">
        <ele>850</ele>
        <time>2018-06-23T15:40:43Z</time>
      </trkpt>
      <trkpt lat="42.97456" lon="-0.18759">
        <ele>851</ele>
        <time>2018-06-23T15:46:43Z</time>
      </trkpt>
      <trkpt lat="42.97456" lon="-0.18809">
        <ele>853</ele>
        <time>2018-06-23T15:53:43Z</time>
      </trkpt>
      <trkpt lat="42.97476" lon="-0.18882">
        <ele>854</ele>
        <time>2018-06-23T15:54:43Z</time>
      </trkpt>
      <trkpt lat="42.97478" lon="-0.18893">
        <ele>855</ele>
        <time>2018-06-23T15:55:43Z</time>
      </trkpt>
      <trkpt lat="42.9748" lon="-0.18901">
        <ele>855</ele>
        <time>2018-06-23T15:56:43Z</time>
      </trkpt>
      <trkpt lat="42.97481" lon="-0.18944">
        <ele>858</ele>
        <time>2018-06-23T16:00:43Z</time>
      </trkpt>
      <trkpt lat="42.97477" lon="-0.18963">
        <ele>859</ele>
        <time>2018-06-23T16:02:43Z</time>
      </trkpt>
      <trkpt lat="42.97464" lon="-0.19014">
        <ele>861</ele>
        <time>2018-06-23T16:05:43Z</time>
      </trkpt>
      <trkpt lat="42.97459" lon="-0.19044">
        <ele>863</ele>
        <time>2018-06-23T16:07:43Z</time>
      </trkpt>
      <trkpt lat="42.97455" lon="-0.1908">
        <ele>866</ele>
        <time>2018-06-23T16:09:43Z</time>
      </trkpt>
      <trkpt lat="42.97453" lon="-0.19085">
        <ele>866</ele>
        <time>2018-06-23T16:10:43Z</time>
      </trkpt>
      <trkpt lat="42.97404" lon="-0.19203">
        <ele>868</ele>
        <time>2018-06-23T16:13:43Z</time>
      </trkpt>
      <trkpt lat="42.97401" lon="-0.19208">
        <ele>868</ele>
        <time>2018-06-23T16:14:43Z</time>
      </trkpt>
      <trkpt lat="42.97377" lon="-0.19242">
        <ele>871</ele>
        <time>2018-06-23T16:17:43Z</time>
      </trkpt>
      <trkpt lat="42.97338" lon="-0.19286">
        <ele>872</ele>
        <time>2018-06-23T16:19:43Z</time>
      </trkpt>
      <trkpt lat="42.97323" lon="-0.19329">
        <ele>873</ele>
        <time>2018-06-23T16:25:43Z</time>
      </trkpt>
      <trkpt lat="42.97308" lon="-0.19349">
        <ele>871</ele>
        <time>2018-06-23T16:28:43Z</time>
      </trkpt>
      <trkpt lat="42.9729" lon="-0.1942">
        <ele>869</ele>
        <time>2018-06-23T16:32:43Z</time>
      </trkpt>
      <trkpt lat="42.97276" lon="-0.19456">
        <ele>869</ele>
        <time>2018-06-23T16:34:43Z</time>
      </trkpt>
      <trkpt lat="42.97254" lon="-0.19497">
        <ele>867</ele>
        <time>2018-06-23T16:37:43Z</time>
      </trkpt>
      <trkpt lat="42.97279" lon="-0.19536">
        <ele>871</ele>
        <time>2018-06-23T16:40:43Z</time>
      </trkpt>
      <trkpt lat="42.97279" lon="-0.19536">
        <ele>871</ele>
        <time>2018-06-23T16:41:43Z</time>
      </trkpt>
      <trkpt lat="42.97264" lon="-0.19589">
        <ele>871</ele>
        <time>2018-06-23T16:43:43Z</time>
      </trkpt>
      <trkpt lat="42.97249" lon="-0.1962">
        <ele>870</ele>
        <time>2018-06-23T16:45:43Z</time>
      </trkpt>
    </trkseg>
  </trk>
</gpx>